     2              OBSERVATION DATA    GPS                 RINEX VERSION / TYPE
TRRINEXO-V2.3.1-LH UCLA/SCEC 25-FEB-1994                    PGM / RUN BY / DATE
                                                            COMMENT
Original Marker Name: UCLA YOUNG HALL                       COMMENT
Campaign Name: Northridge 1994                              COMMENT
4-Character Station Name: UCLA                              COMMENT
6-Character Antenna Code: TRMSST                            COMMENT
Vertical Measurement Point: BPA                             COMMENT
Vertical Offset to Rinex Ref. Point: 0.0000                 COMMENT
Radial Measurement Point: RRP                               COMMENT
Radial Offset to Rinex Ref. Point: 0.0000                   COMMENT
Antenna Height from Field Measurement: 0.0000 m             COMMENT
Fixed station.                                              COMMENT
Original XYZ: -2518954.1083 -4650780.7526 3552818.9217      COMMENT
New XYZ position is based on association with SCEC monument COMMENT
E1C7Y6O1+0021. Position of that monument is believed to be  COMMENT
valid to within 1 m horizontally; vertical accuracy         COMMENT
should be no worse than 3-times this value.                 COMMENT
                                                            COMMENT
Revised Rinex header created by UCSD GPS archive for        COMMENT
GSAC on 06-Apr-1999 (1999:096) 06:43:17 GMT                 COMMENT
For assistance contact dagnew@ucsd.edu or hjohnson@ucsd.edu COMMENT
                                                            COMMENT
UCLA YOUNG HALL 1990                                        MARKER NAME
X. GE UCLA                                                  OBSERVER / AGENCY
432 TRIMBLE 4000 SST 4.81                                   REC # / TYPE / VERS
97 TR 4000SST L1/L2 GEO                                     ANT # / TYPE
 -2518952.0000 -4650737.0000  3552822.0000                  APPROX POSITION XYZ
        0.0000        0.0000        0.0000                  ANTENNA: DELTA H/E/N
     1     2     0                                          WAVELENGTH FACT L1/2
     3    C1    L1    L2                                    # / TYPES OF OBSERV
    30                                                      INTERVAL
  1994     2     2     0     1   30.000000                  TIME OF FIRST OBS
  1994     2     2    23    57   30.000000                  TIME OF LAST OBS
     0                                                      # OF SATELLITES
                                                            END OF HEADER
 94  2  2  0  1 30.0000000  0  7 27  2 16 18  7 19 31
  20682270.313          -0.73417
  21892263.445          -0.77516
  24226242.727          -0.80715
  22811040.188          -0.56716
  24099473.805          -0.15115
  21172498.891          -0.24817
  22879021.297          -0.48016
 94  2  2  0  2  0.0000000  0  7 27  2 16 18  7 19 31
  20678942.305      -17473.514 7        -0.02719
  21885239.469      -36913.355 6        -0.21617
  24230972.469       24865.739 5
  22831197.156      105946.856 6        -0.06816
  24080450.469      -99938.232 5
  21178321.328       30591.810 7        -0.01919
  22892300.289       69790.969 6        -0.02516
 94  2  2  0  2 30.0000000  0  7 27  2 16 18  7 19 31
  20675674.828      -34659.456 7    -13391.655 9
  21878273.070      -73504.398 6    -28512.703 7
  24235795.586       50191.852 5        -0.17814
  22851408.977      212156.699 6     82760.790 6
  24061456.477     -199778.445 5        -0.28914
  21184187.625       61430.103 7     24029.815 9
  22905680.227      140094.194 6     54781.700 6
 94  2  2  0  3  0.0000000  0  7 27  2 16 18  7 19 31
  20672448.547      -51600.890 7    -26592.756 9
  21871370.148     -109800.600 6    -56795.425 7
  24240698.469       75947.963 5     20069.517 2
  22871666.648      318614.752 6    165715.089 6
  24042477.391     -299526.639 5    -77726.050 5
  21190099.820       92505.015 7     48244.031 9
  22919152.672      210885.597 6    109943.819 6
 94  2  2  0  3 30.0000000  0  7 27  2 16 18  7 19 31
  20669272.234      -68305.838 7    -39609.585 9
  21864515.242     -145804.182 6    -84850.137 7
  24245679.461      102142.634 5     40480.893 2
  22891973.141      425325.945 6    248866.613 6
  24023519.734     -399151.846 5   -155355.982 4
  21196067.164      123858.367 7     72675.213 9
  22932714.680      282158.685 6    165481.292 6
 94  2  2  0  4  0.0000000  0  7 27  2 16 18  7 19 31
  20666136.367      -84771.477 7    -52439.937 9
  21857718.711     -181526.806 6   -112685.928 7
  24250753.305      128777.512 5     61235.327 3
  22912322.109      532280.682 6    332207.926 5
  24004583.594     -498656.221 5   -232891.752 5
  21202088.539      155504.136 7     97334.244 9
  22946365.961      353896.352 6    221380.748 6
 94  2  2  0  4 30.0000000  0  7 27  2 16 18  7 19 31
  20663054.266     -100977.595 7    -65068.070 9
  21850971.961     -216981.279 7   -140312.750 7
  24255904.672      155867.165 5     82344.153 3
  22932728.227      639481.227 6    415740.776 5
  23985670.070     -598034.061 5   -310328.931 4
  21208167.586      187443.048 7    122221.707 9
  22960101.914      426097.919 6    277641.712 6
 94  2  2  0  5  0.0000000  0  7 27  2 16 18  7 19 31
  20660019.680     -116916.911 7    -77488.305 9
  21844272.180     -252187.294 6   -167745.982 7
  24261143.633      183409.510 5    103805.722 3
  22953166.492      746914.150 6    499454.700 6
  23966780.289     -697309.366 5   -387686.248 5
  21214299.906      219671.235 7    147334.573 9
  22973932.445      498764.582 6    334265.078 6
 94  2  2  0  5 30.0000000  0  7 27  2 16 18  7 19 31
  20657043.414     -132566.886 7    -89683.081 9
  21837620.484     -287153.472 7   -194992.321 7
  24266472.695      211393.733 5    125611.575 4
  22973655.867      854560.719 6    583335.099 6
  23947909.453     -796491.939 5   -464971.284 5
  21220484.023      252158.177 7    172649.065 9
  22987850.000      571896.401 6    391250.898 6
 94  2  2  0  6  0.0000000  0  7 27  2 16 18  7 19 31
  20654124.961     -147900.053 7   -101630.992 9
  21831013.383     -321857.129 6   -222034.095 7
  24271886.492      239833.049 5    147772.077 4
  22994183.102      962429.016 6    667388.257 6
  23929057.391     -895582.280 5   -542184.438 5
  21226709.039      284884.876 7    198150.381 9
  23001857.742      645507.129 6    448609.898 6
 94  2  2  0  6 30.0000000  0  7 27  2 16 18  7 19 31
  20651263.586     -162931.390 7   -113343.715 9
  21824465.930     -356278.501 7   -248855.909 7
  24277385.328      268735.553 5    170293.497 4
  23014755.344     1070533.958 6    751625.840 6
  23910219.141     -994572.756 5   -619319.771 5
  21232982.563      317850.784 7    223838.091 9
  23015957.422      719601.181 6    506345.496 6
 94  2  2  0  7  0.0000000  0  7 27  2 16 18  7 19 31
  20648457.430     -177683.870 7   -124839.147 9
  21817967.852     -390412.239 7   -275453.606 7
  24282976.523      298103.472 5    193177.578 4
  23035374.203     1178883.200 6    836053.760 5
  23891397.828    -1093460.846 5   -696375.353 5
  21239302.727      351056.850 7    249712.949 9
  23030146.469      794174.905 6    564454.887 6
 94  2  2  0  7 30.0000000  0  7 27  2 16 18  7 19 31
  20645697.258     -192181.679 7   -136136.133 9
  21811531.148     -424262.509 7   -301830.397 8
  24288645.742      327933.806 5    216421.968 4
  23056032.070     1287474.805 6    920670.564 5
  23872598.336    -1192254.510 5   -773357.345 5
  21245662.594      384492.427 7    275766.643 9
  23044428.187      869214.619 6    622927.377 6
 94  2  2  0  8  0.0000000  0  7 27  2 16 18  7 19 31
  20642986.539     -206441.881 7   -147247.968 9
  21805139.461     -457813.647 7   -327974.118 7
  24294413.930      358248.265 5    240043.642 2
  23076751.656     1396332.231 6   1005494.482 6
  23853819.992    -1290945.971 5   -850259.713 5
  21252075.391      418185.518 7    302020.984 9
  23058795.016      944717.607 6    681760.855 6
 94  2  2  0  8 30.0000000  0  7 27  2 16 18  7 19 31
  20640315.570     -220463.249 7   -158173.704 9
  21798815.578     -491074.480 6   -353891.628 7
  24300276.453      389041.044 5    264037.994 3
  23097513.672     1505453.347 6   1090523.876 5
  23835056.859    -1389535.007 5   -927082.264 5
  21258536.508      452138.777 7    328478.072 9
  23073255.758     1020694.855 6    740963.894 6
 94  2  2  0  9  0.0000000  0  7 27  2 16 18  7 19 31
  20637699.773     -234218.856 7   -168892.347 9
  21792535.641     -524056.243 7   -379591.673 8
  24306225.688      420292.836 5    288390.017 4
  23118323.578     1614811.298 6   1175737.813 5
  23816312.406    -1488027.524 5  -1003829.641 5
  21265045.938      486348.344 7    355134.881 9
  23087802.523     1097149.522 6    800538.946 6
 94  2  2  0  9 30.0000000  0  7 27  2 16 18  7 19 31
  20635133.414     -247697.913 7   -179395.504 9
  21786318.859     -556746.390 7   -405064.483 7
  24312253.555      451992.939 5    313091.403 2
  23139181.227     1724392.986 6   1261126.102 5
  23797590.586    -1586417.734 5  -1080497.282 5
  21271606.102      520822.874 7    381998.146 9
  23102439.609     1174077.133 6    860482.520 6
 94  2  2  0 10  0.0010000  0  7 27  2 16 18  7 19 31
  20632626.161     -260886.660 7   -189672.445 9
  21780147.263     -589160.077 7   -430321.887 7
  24318370.974      484129.264 5    338132.698 2
  23160068.560     1834186.837 6   1346679.700 5
  23778885.669    -1684689.126 5  -1157072.366 5
  21278217.630      555571.128 7    409074.699 9
  23117167.286     1251466.473 6    920785.883 6
 94  2  2  0 10 30.0010000  0  7 27  2 16 18  7 19 31
  20630173.192     -273760.383 7   -199703.905 9
  21774034.505     -621300.671 7   -455366.476 7
  24324564.942      516691.832 5    363506.113 4
  23181000.005     1944165.697 6   1432377.474 5
  23760212.950    -1782825.465 5  -1233542.219 5
  21284885.247      590594.385 7    436365.560 9
  23131980.942     1329316.588 6    981448.301 6
 94  2  2  0 11  0.0010000  0  7 27  2 16 18  7 19 31
  20627785.489     -286326.452 7   -209495.642 9
  21767966.333     -653175.114 7   -480203.676 8
  24330848.544      549684.308 5    389214.552 2
  23201962.497     2054322.798 6   1518214.144 5
  23741558.606    -1880830.235 5  -1309909.541 5
  21291602.208      625901.524 7    463877.609 9
  23146878.583     1407601.479 6   1042449.498 6
 94  2  2  0 11 30.0010000  0  7 27  2 16 18  7 19 31
  20625444.981     -298608.279 7   -219065.883 9
  21761949.356     -684807.799 7   -504852.493 8
  24337205.966      583109.026 5    415259.758 2
  23222955.263     2164659.467 5   1604190.710 5
  23722938.294    -1978698.499 5  -1386170.516 5
  21298373.091      661472.850 7    491595.532 9
  23161853.169     1486296.510 6   1103770.279 6
 94  2  2  0 12  0.0010000  0  7 27  2 16 18  7 19 31
  20623164.700     -310592.064 7   -228403.896 9
  21755973.294     -716216.250 7   -529326.574 7
  24343653.474      616974.572 5    441648.494 3
  23243992.138     2275180.003 6   1690310.565 6
  23704340.599    -2076421.834 5  -1462318.556 5
  21305192.153      697305.972 7    519517.445 8
  23176905.591     1565403.662 6   1165412.200 6
 94  2  2  0 12 30.0010000  0  7 27  2 16 18  7 19 31
  20620941.966     -322278.700 7   -237510.354 9
  21750039.231     -747381.080 7   -553610.827 8
  24350181.560      651285.544 5    468384.299 3
  23265056.888     2385892.358 6   1776579.873 5
  23685770.247    -2173998.534 5  -1538352.320 5
  21312057.466      733400.327 7    547642.924 8
  23192041.364     1644933.107 6   1227383.183 6
 94  2  2  0 13  0.0010000  0  7 27  2 16 18  7 19 31
  20618771.263     -333671.190 7   -246387.606 9
  21744160.364     -778289.690 7   -577695.421 8
  24356795.903      686040.364 5    495465.962 3
  23286168.099     2496818.153 5   1863015.520 5
  23667235.497    -2271415.066 5  -1614261.256 5
  21318980.849      769768.358 7    575981.645 9
  23207259.036     1724893.947 6   1289690.310 6
 94  2  2  0 13 30.0010000  0  7 27  2 16 18  7 19 31
  20616660.122     -344778.015 7   -255042.263 9
  21738326.778     -808944.605 7   -601582.342 8
  24363486.958      721209.553 5    522870.488 2
  23307314.255     2607946.480 6   1949608.977 5
  23648729.880    -2368687.857 5  -1690058.195 5
  21325951.825      806398.159 7    604524.345 9
  23222556.403     1805292.373 6   1352338.431 6
 94  2  2  0 14  0.0010000  0  7 27  2 16 18  7 19 31
  20614601.255     -355592.960 7   -263469.490 9
  21732541.528     -839322.685 7   -625253.540 8
  24370259.396      756781.912 5    550589.213 2
  23328493.263     2719269.373 5   2036354.041 5
  23630247.497    -2465831.462 5  -1765754.468 5
  21332973.708      843298.883 7    633278.156 8
  23237941.528     1886138.648 6   1415335.505 6
 94  2  2  0 14 30.0010000  0  7 27  2 16 18  7 19 31
  20612599.208     -366106.779 7   -271662.071 9
  21726824.622     -869383.302 7   -648677.365 8
  24377106.849      792768.002 5    578630.313 5
  23349722.263     2830800.948 5   2123261.709 5
  23611781.989    -2562840.586 5  -1841345.945 5
  21340048.825      880485.595 7    662254.816 9
  23253416.263     1967451.200 6   1478695.925 6
 94  2  2  0 15  0.0010000  0  7 27  2 16 18  7 19 31
  20610658.895     -376318.336 7   -279619.116 9
  21721163.263     -899132.302 7   -671858.374 8
  24384030.591      829172.313 5    606997.275 3
  23370987.317     2942542.246 5   2210332.803 5
  23593350.138    -2659722.324 5  -1916838.140 5
  21347181.700      917959.253 7    691455.070 8
  23268977.927     2049234.725 6   1542423.328 6
 94  2  2  0 15 30.0010000  0  7 27  2 16 18  7 19 31
  20608775.388     -386217.554 7   -287332.786 9
  21715559.505     -928574.124 7   -694800.028 8
  24391043.989      866006.273 5    635699.048 3
  23392285.622     3054485.141 5   2297560.983 5
  23574939.646    -2756466.345 5  -1992223.021 5
  21354364.200      955710.830 7    720871.884 8
  23284625.716     2131475.374 6   1606506.943 6
 94  2  2  0 16  0.0010000  0  7 27  2 16 18  7 19 31
  20606945.114     -395818.911 7   -294814.349 9
  21710013.981     -957725.938 7   -717515.706 8
  24398126.974      903267.071 5    664733.415 2
  23413625.474     3166614.900 5   2384934.754 5
  23556554.216    -2853067.030 5  -2067496.239 5
  21361598.708      993723.540 7    750492.180 9
  23300358.192     2214143.137 6   1670923.374 6
 94  2  2  0 16 30.0010000  0  7 27  2 16 18  7 19 31
  20605178.130     -405110.377 7   -302054.448 9
  21704520.802     -986600.395 7   -740015.265 8
  24405304.849      940972.118 5    694113.963 3
  23435003.716     3278943.208 5   2472463.247 5
  23538197.794    -2949500.019 5  -2142638.789 5
  21368885.474     1032014.581 7    780329.360 8
  23316170.435     2297247.866 6   1735680.286 6
 94  2  2  0 17  0.0010000  0  7 27  2 16 18  7 19 31
  20603468.817     -414114.690 7   -309070.787 9
  21699063.935    -1015260.748 7   -762347.987 8
  24412560.192      979088.520 5    723815.037 3
  23456403.083     3391435.043 5   2560119.171 5
  23519886.106    -3045773.481 5  -2217657.030 5
  21376217.974     1070558.676 7    810363.724 8
  23332063.614     2380749.429 6   1800746.419 6
 94  2  2  0 17 30.0010000  0  7 27  2 16 18  7 19 31
  20601813.950     -422809.289 7   -315845.785 9
  21693650.372    -1043696.985 7   -784506.082 8
  24419888.435     1017632.444 4
  23477846.606     3504096.973 5   2647907.643 5
  23501598.817    -3141858.586 5  -2292528.505 5
  21383604.614     1109367.105 7
  23348029.606     2464655.081 6   1866127.426 6
 94  2  2  0 18  0.0010000  0  7 27  2 16 18  7 19 31
  20600215.419     -431204.203 7   -322387.269 9
  21688282.341    -1071916.022 7   -806494.923 8
  24427312.458     1056610.196 5
  23499314.583     3616927.408 5   2735827.402 5
  23483347.638    -3237769.201 5  -2367263.988 5
  21391039.911     1148442.468 7
  23364072.192     2548972.052 6   1931828.944 6
 94  2  2  0 18 30.0010000  0  7 27  2 16 18  7 19 31
  20598671.911     -439307.658 7   -328701.639 9
  21682954.942    -1099927.225 7   -828321.825 8
  24434802.247     1096001.890 4
  23520821.419     3729912.263 5   2823867.479 5
  23465122.771    -3333518.811 5  -2441874.043 5
  21398525.911     1187781.497 7
  23380196.114     2633685.716 6   1997839.583 6
 94  2  2  0 19  0.0010000  0  7 27  2 16 18  7 19 31
  20597187.919     -447108.920 7   -334780.528 9
  21677671.216    -1127682.499 7   -849949.294 8
  24442382.044     1135820.693 4    845944.862 2
  23542347.997     3843068.834 5   2912041.387 5
  23446942.833    -3429088.779 5  -2516344.109 6
  21406059.856     1227380.534 7    932562.576 8
  23396394.372     2718808.248 6   2064168.823 6
 94  2  2  0 19 30.0010000  0  7 27  2 16 18  7 19 31
  20595760.474     -454604.258 7   -340621.046 9
  21672444.974    -1155146.663 7   -871349.927 8
  24450045.200     1176072.520 5    877309.909 2
  23563921.536     3956408.544 5   3000357.977 5
  23428790.341    -3524486.398 5  -2590679.842 5
  21413643.739     1267237.652 7    963620.064 8
  23412672.669     2804349.155 6   2130824.050 6
 94  2  2  0 20  0.0010000  0  7 27  2 16 18  7 19 31
  20594390.606     -461807.676 7   -346234.089 9
  21667275.606    -1182315.049 7   -892520.079 8
  24457782.013     1216721.796 5    908984.654 4
  23585520.435     4069926.545 5   3088813.515 4
  23410663.505    -3619724.504 5  -2664891.305 5
  21421278.021     1307350.107 7    994876.519 8
  23429029.622     2890300.604 6   2197799.209 5
 94  2  2  0 20 30.0010000  0  7 27  2 16 18  7 19 31
  20593079.419     -468682.811 7   -351591.330 9
  21662169.231    -1209152.544 7   -913432.397 8
  24465593.599     1257763.116 5    940964.875 3
  23607162.278     4183639.709 5   3177421.124 5
  23392568.747    -3714773.259 5  -2738955.223 6
  21428964.739     1347738.716 7   1026348.159 8
  23445464.958     2976677.304 6   2265105.712 5
 94  2  2  0 21  0.0010000  0  7 27  2 16 18  7 19 31
  20591832.317     -475243.061 7   -356703.202 9
  21657121.911    -1235674.054 7   -934098.492 8
  24473476.411     1299194.057 5    973248.717 3
  23628830.575     4297532.380 5   3266168.587 5
  23374521.310    -3809642.473 5  -2812879.222 5
  21436699.747     1388391.342 7   1058025.529 8
  23461982.138     3063467.933 6   2332734.766 5
 94  2  2  0 21 30.0010000  0  7 27  2 16 18  7 19 31
  20590643.067     -481499.282 7   -361578.170 9
  21652129.872    -1261915.470 7   -954546.332 8
  24481429.653     1340997.113 5   1005822.489 4
  23650528.489     4411584.117 5   3355040.022 5
  23356505.169    -3904340.794 5  -2886670.036 6
  21444488.646     1429325.800 7   1089922.502 8
  23478571.474     3150659.039 6   2400675.870 5
 94  2  2  0 22  0.0010000  0  7 27  2 16 18  7 19 31
  20589510.528     -487449.556 7   -366214.741 9
  21647185.935    -1287884.797 7   -974782.149 8
  24489451.786     1383171.904 5   1038685.925 3
  23672263.755     4525783.995 5   3444026.880 5
  23338519.661    -3998853.309 6  -2960316.088 5
  21452332.270     1470549.946 7   1122045.214 8
  23495239.247     3238239.928 6   2468920.718 5
 94  2  2  0 22 30.0010000  0  7 27  2 16 18  7 19 31
  20588439.067     -493072.651 7   -370596.368 9
  21642296.677    -1313573.145 7   -994799.029 8
  24497556.216     1425757.033 4   1071869.106 3
  23694026.442     4640131.907 5   3533129.071 5
  23320574.591    -4093159.575 6  -3033801.420 5
  21460238.911     1512085.827 7   1154410.835 8
  23511979.935     3326214.028 6   2537471.955 6
 94  2  2  0 23  0.0010000  0  7 27  2 16 18  7 19 31
  20587427.880     -498387.522 7   -374737.826 9
  21637458.567    -1339002.628 7  -1014614.188 8
  24505739.513     1468763.169 4   1105380.361 2
  23715819.567     4754626.550 5   3622345.619 5
  23302661.896    -4187255.398 5  -3107122.774 6
  21468199.286     1553927.764 7   1187014.939 8
  23528795.560     3414578.182 6   2606327.133 6
 94  2  2  0 23 30.0010000  0  8 27  2 16 18  7 19 31 26
  20586474.841     -503399.658 7   -378643.379 9
  21632665.200    -1364196.255 7  -1034245.562 8
  24513996.646     1512155.236 4   1139192.336 2
  23737629.060     4869250.940 5   3711663.274 5
  23284786.239    -4281159.808 5  -3180294.965 5
  21476215.794     1596043.285 7   1219832.228 8
  23545680.239     3503309.627 6   2675468.510 5
  25128929.145          -0.32814
 94  2  2  0 24  0.0010000  0  8 27  2 16 18  7 19 31 26
  20585584.911     -508084.190 7   -382293.662 9
  21627915.356    -1389143.013 7  -1053684.565 8
  24522332.388     1555938.443 4   1173309.092 3
  23759470.271     4984020.809 5   3801094.281 5
  23266964.028    -4374864.547 6  -3253311.586 6
  21484278.771     1638428.974 7   1252860.035 8
  23562634.935     3592408.376 6   2744896.095 5
  25112151.528      -88146.536 4
 94  2  2  0 24 30.0010000  0  8 27  2 16 18  7 19 31 26
  20584755.028     -512435.668 7   -385684.421 9
  21623215.083    -1413848.939 7  -1072935.924 8
  24530738.419     1600120.214 5   1207736.404 2
  23781342.380     5098947.748 5   3890647.689 4
  23249165.091    -4468384.577 6  -3326184.262 6
  21492397.583     1681081.844 7   1286096.038 8
  23579658.044     3681880.487 5   2814614.618 5
  25095415.458     -176100.438 3        -0.12112
 94  2  2  0 25  0.0010000  0  8 27  2 16 18  7 19 31 26
  20583987.271     -516466.180 7   -388825.071 9
  21618561.458    -1438326.114 7  -1092009.007 8
  24539220.349     1644673.932 5   1242453.553 2
  23803237.138     5214033.844 5   3980325.125 5
  23231410.052    -4561731.904 6  -3398922.374 6
  21500559.981     1723982.503 7   1319525.123 8
  23596758.528     3771727.678 6   2884625.413 5
  25078722.286     -263860.280 4    -68384.285 2
 94  2  2  0 25 30.0010000  0  8 27  2 16 18  7 19 31 26
  20583287.497     -520149.749 7   -391695.388 9
  21613947.849    -1462549.827 7  -1110884.602 8
  24547767.942     1689591.817 5   1277454.455 4
  23825164.396     5329269.390 5   4070118.985 5
  23213670.552    -4654914.802 6  -3471532.360 6
  21508774.349     1767149.944 7   1353162.086 8
  23613923.591     3861952.142 5   2954930.180 6
  25062062.497     -351398.825 4   -136596.052 1
 94  2  2  0 26  0.0010000  0  8 27  2 16 18  7 19 31 26
  20582649.716     -523513.513 7   -394316.503 9
  21609384.771    -1486529.301 7  -1129569.882 8
  24556381.833     1734866.078 5   1312733.070 2
  23847119.481     5444635.876 5   4160014.879 5
  23195965.497    -4747948.001 6  -3544025.695 6
  21517040.653     1810587.472 7   1387009.512 8
  23631165.091     3952536.171 5   3025515.130 5
  25045438.356     -438737.858 3   -204652.384 1
 94  2  2  0 26 30.0010000  0  8 27  2 16 18  7 19 31 26
  20582067.560     -526551.509 7   -396683.778 9
  21604872.755    -1510245.382 7  -1148049.926 8
  24565062.599     1780507.207 4   1348297.571 3
  23869102.185     5560139.890 5   4250017.951 5
  23178293.700    -4840799.517 6  -3616377.488 6
  21525361.599     1854310.863 7   1421079.676 8
  23648473.521     4043495.611 5   3096392.624 6
  25028848.841     -525875.561 3   -272551.784 2
 94  2  2  0 27  0.0010000  0  8 27  2 16 18  7 19 31 26
  20581558.560     -529250.585 7   -398786.952 9
  21600409.724    -1533679.933 7  -1166310.598 8
  24573816.606     1826516.630 5   1384149.039 3
  23891108.419     5675788.336 5   4340133.567 4
  23160674.880    -4933428.227 6  -3688555.637 6
  21533740.677     1898342.800 7   1455390.276 8
  23665858.622     4134838.111 5   3167568.584 5
  25012313.763     -612822.228 3   -340302.397 2
 94  2  2  0 27 30.0010000  0  8 27  2 16 18  7 19 31 26
  20581107.224     -531605.648 7   -400622.064 9
  21596009.271    -1556831.751 7  -1184350.958 8
  24582649.942     1872908.169 5   1420298.251 2
  23913135.146     5791576.253 5   4430357.862 5
  23143092.419    -5025828.888 6  -3760556.069 6
  21542177.513     1942682.267 7   1489940.504 8
  23683310.606     4226555.578 5   3239036.736 5
  24995806.560     -699585.019 3   -407909.694 1
 94  2  2  0 28  0.0010000  0  8 27  2 16 18  7 19 31 26
  20580722.685     -533641.304 7   -402208.283 9
  21591649.380    -1579721.283 7  -1202186.951 8
  24591549.106     1919681.446 4   1456744.941 1
  23935194.130     5907499.518 5   4520687.617 5
  23125550.130    -5117985.646 6  -3832366.463 6
  21550669.020     1987303.987 7   1524710.673 8
  23700834.974     4318639.878 5   3310790.719 5
  24979314.708     -786183.054 3   -475388.600 1
 94  2  2  0 28 30.0010000  0  8 27  2 16 18  7 19 31 26
  20580391.716     -535366.756 7   -403552.781 9
  21587343.481    -1602359.800 7  -1219827.344 8
  24600517.302     1966825.152 4   1493480.248 2
  23957274.997     6023533.388 5   4611103.568 4
  23108063.067    -5209896.966 6  -3903985.617 6
  21559209.622     2032186.253 7   1559683.858 8
  23718427.317     4411097.332 5   3382835.496 5
  24962873.677     -872616.920 4   -542739.616 2
 94  2  2  0 29  0.0010000  0  8 27  2 16 18  7 19 31 26
  20580126.130     -536774.624 7   -404649.813 9
  21583085.536    -1624735.787 7  -1237263.169 8
  24609564.278     2014359.437 4   1530519.911 2
  23979383.216     6139683.754 5   4701610.277 5
  23090613.919    -5301565.978 6  -3975415.965 6
  21567804.302     2077344.834 7   1594872.363 8
  23736090.536     4503945.285 5   3455184.524 5
  24946461.489     -958858.265 3   -609940.561 3
 94  2  2  0 29 30.0010000  0  8 27  2 16 18  7 19 31 26
  20579914.661     -537877.781 7   -405509.402 9
  21578875.036    -1646847.229 7  -1254492.856 8
  24618687.138     2062279.569 5   1567860.247 2
  24001506.513     6255932.002 5   4792193.234 5
  23073214.419    -5393007.702 6  -4046669.207 6
  21576447.528     2122770.111 7   1630268.680 8
  23753834.247     4597169.519 6   3527826.782 5
  24930093.263    -1044896.197 3   -676983.018 2
 94  2  2  0 30  0.0010000  0  8 27  2 16 18  7 19 31 26
  20579759.810     -538685.706 7   -406138.930 9
  21574719.411    -1668700.519 7  -1271521.390 8
  24627870.755     2110560.141 5   1605481.426 2
  24023646.192     6372271.152 5   4882847.047 5
  23055863.630    -5484223.434 6  -4117746.335 6
  21585140.278     2168459.005 7   1665870.410 8
  23771640.841     4690752.957 5   3600748.922 5
  24913753.310    -1130725.597 4   -743862.956 1
 94  2  2  0 30 30.0010000  0  8 27  2 16 18  7 19 31 26
  20579663.239     -539184.406 7   -406527.522 9
  21570610.567    -1690297.978 7  -1288350.567 8
  24637122.013     2159189.743 4   1643374.588 3
  24045800.849     6488713.061 5   4973580.942 3
  23038536.060    -5575223.212 6  -4188655.188 6
  21593885.981     2214418.276 7   1701682.826 8
  23789515.591     4784688.562 5   3673945.478 5
  24897467.317    -1216323.874 4   -810562.833 2
 94  2  2  0 31  0.0010000  0  8 27  2 16 18  7 19 31 26
  20579636.325     -539340.232 7
  21566549.310    -1711627.265 7  -1304970.783 8
  24646450.036     2208177.696 4   1681546.972 2
  24067982.997     6605289.904 5   5064419.975 4
  23021271.458    -5665985.305 6  -4259378.859 6
  21602687.028     2260667.723 7   1737721.350 8
  23807459.200     4878964.988 5   3747407.624 5
  24881219.481    -1301679.583 3   -877073.633 2
 94  2  2  0 31 30.0010000  0  8 27  2 16 18  7 19 31 26
  20579672.544     -539148.385 7
  21562536.138    -1732715.319 7  -1321403.026 8
  24655838.192     2257503.467 5   1719982.593 2
  24090194.841     6721997.476 5   5155360.887 5
  23004043.310    -5756510.319 6  -4329917.780 6
  21611540.216     2307184.344 7   1773968.064 8
  23825458.942     4973569.082 5   3821125.070 5
  24865029.520    -1386809.595 4   -943408.639 2
 94  2  2  0 32  0.0010000  0  8 27  2 16 18  7 19 31 26
  20579774.130     -538605.549 7   -406076.410 9
  21558566.169    -1753588.359 7  -1337667.724 8
  24665281.935     2307145.968 4   1758665.026 3
  24112420.888     6838837.751 5   5246405.188 4
  22986863.520    -5846798.467 6  -4400272.130 6
  21620442.052     2353955.633 7   1810413.218 8
  23843523.411     5068495.969 5   3895094.056 5
  24848868.927    -1471712.117 3  -1009566.299 2
 94  2  2  0 32 30.0010000  0  8 27  2 16 18  7 19 31 26
  20579946.333     -537711.578 7   -405379.793 9
  21554633.075    -1774248.743 7  -1353766.703 8
  24674785.497     2357115.731 3   1797602.483 1
  24134675.997     6955797.826 5   5337542.836 4
  22969727.567    -5936854.416 6  -4470445.550 6
  21629392.028     2400988.742 7   1847062.398 8
  23861651.067     5163751.872 5   3969319.425 5
  24832751.458    -1556389.417 4  -1075548.510 2
 94  2  2  0 33  0.0010000  0  8 27  2 16 18  7 19 31 26
  20580186.247     -536446.642 7   -404394.117 9
  21550748.646    -1794658.966 7  -1369670.765 8
  24684365.341     2407446.771 4   1836821.419 1
  24156964.466     7072895.983 5   5428788.083 4
  22952639.224    -6026658.452 6  -4540422.674 6
  21638399.536     2448325.849 7   1883948.441 8
  23879843.685     5259361.088 5   4043820.086 5
  24816694.239    -1640824.077 4  -1141341.631 1
 94  2  2  0 33 30.0010000  0  8 27  2 16 18  7 19 31 26
  20580498.638     -534832.414 7   -403136.267 9
  21546911.997    -1814823.137 7  -1385383.090 8
  24694013.161     2458124.905 4   1876310.851 1
  24179272.856     7190112.331 5   5520125.445 4
  22935589.950    -6116223.215 6  -4610213.340 6
  21647463.153     2495957.874 7   1921064.305 8
  23898105.466     5355314.865 5   4118589.239 5
  24800665.810    -1725013.385 4  -1206943.584 2
 94  2  2  0 34  0.0010000  0  8 27  2 16 18  7 19 31 26
  20580867.395     -532883.337 7   -401617.488 9
  21543125.388    -1834724.408 7  -1400890.561 8
  24703718.169     2509136.480 4   1916060.109 2
  24201599.349     7307424.120 5   5611537.171 3
  22918594.005    -6205559.247 6  -4679825.785 6
  21656580.599     2543885.398 7   1958410.426 8
  23916423.802     5451583.854 5   4193604.026 5
  24784695.364    -1808971.287 4  -1272365.219 3
 94  2  2  0 34 30.0010000  0  8 27  2 16 18  7 19 31 26
  20581302.216     -530589.638 7   -399830.187 9
  21539393.474    -1854336.636 7  -1416172.796 8
  24713498.325     2560504.827 5   1956087.377 2
  24223941.075     7424829.265 5   5703021.615 3
  22901638.880    -6294662.009 6  -4749256.449 6
  21665761.950     2592129.355 7   1996003.111 8
  23934804.974     5548176.399 5   4268870.911 5
  24768757.739    -1892699.901 4  -1337608.197 2
 94  2  2  0 35  0.0010000  0  8 27  2 16 18  7 19 31 26
  20581804.060     -527950.924 7   -397774.032 9
  21535712.278    -1873671.670 7  -1431239.048 8
  24723338.771     2612204.884 4   1996373.100 2
  24246298.716     7542309.173 5   5794564.362 4
  22884727.567    -6383523.321 6  -4818498.977 6
  21675001.958     2640677.770 7   2033833.041 8
  23953244.013     5645071.106 5   4344373.290 5
  24752866.005    -1976211.306 4  -1402681.920 4
 94  2  2  0 35 30.0010000  0  8 27  2 16 18  7 19 31 26
  20582373.099     -524965.958 7   -395448.074 9
  21532082.591    -1892747.290 7  -1446103.151 8
  24733227.396     2664221.987 3   2036905.878 3
  24268665.919     7659841.180 5   5886147.674 3
  22867868.997    -6472126.102 6  -4887540.033 6
  21684295.567     2689511.785 7   2071885.514 8
  23971738.685     5742263.730 5   4420107.803 5
  24737017.810    -2059513.911 4  -1467592.946 2
 94  2  2  0 36  0.0010000  0  8 27  2 16 18  7 19 31 26
  20583009.169     -521619.386 7   -392840.348 9
  21528505.005    -1911557.076 7  -1460760.109 8
  24743194.544     2716575.139 4   2077700.521 1
  24291026.224     7777427.755 4   5977773.505 3
  22851054.981    -6560465.799 6  -4956376.116 6
  21693646.927     2738652.295 7   2110176.817 8
  23990293.981     5839785.528 5   4496098.790 5
  24721202.927    -2142599.487 5  -1532334.913 1
 94  2  2  0 36 30.0010000  0  8 27  2 16 18  7 19 31 26
  20583715.794     -517916.709 7   -389955.146 9
  21524968.958    -1930130.168 7  -1475232.627 8
  24753219.724     2769262.837 4   2118755.834 3
  24313419.052     7895074.781 4   6069446.420 1
  22834299.591    -6648544.930 6  -5025009.142 6
  21703055.185     2788100.000 7   2148707.495 8
  24008922.583     5937648.067 5   4572355.309 5
  24705431.630    -2225454.260 4  -1596896.975 2
 94  2  2  0 37  0.0010000  0  8 27  2 16 18  7 19 31 26
  20584485.810     -513860.829 7   -386794.718 9
  21521478.872    -1948486.771 7  -1489536.456 8
  24763307.513     2822268.328 4   2160058.793 2
  24335825.903     8012786.605 4   6161169.874 1
  22817584.146    -6736358.556 6  -5093435.286 6
  21712520.927     2837834.289 7   2187461.486 8
  24027600.950     6035838.120 5   4648867.053 5
  24689714.130    -2308074.120 5  -1661275.976 2
 94  2  2  0 37 30.0010000  0  8 27  2 16 18  7 19 31 26
  20585326.614     -509452.075 7   -383359.324 9
  21518024.966    -1966614.597 7  -1503662.026 8
  24773454.638     2875600.763 4   2201616.495 2
  24358238.606     8130581.020 4   6252957.662 2
  22800923.349    -6823917.499 6  -5161662.982 6
  21722035.669     2887848.292 7   2226433.429 8
  24046350.419     6134366.885 5   4725642.702 5
  24674041.544    -2390448.623 5  -1725463.853 3
 94  2  2  0 38  0.0010000  0  8 27  2 16 18  7 19 31 26
  20586227.013     -504706.425 7   -379661.411 9
  21514618.005    -1984526.007 7  -1517618.946 8
  24783660.849     2929251.630 4   2243422.344 1
  24380666.052     8248456.740 4   6344808.787 2
  22784306.466    -6911242.335 6  -5229708.260 6
  21731605.677     2938130.292 7   2265614.206 8
  24065164.880     6233220.553 5   4802671.499 5
  24658414.653    -2472577.422 5  -1789460.225 2
 94  2  2  0 38 30.0010000  0  8 27  2 16 18  7 19 31 26
  20587197.013     -499617.775 7   -375696.222 9
  21511252.724    -2002216.990 7  -1531404.109 8
  24793936.208     2983214.016 4   2285470.933 2
  24403120.349     8366429.670 5   6436735.700 2
  22767737.161    -6998305.988 6  -5297550.014 6
  21741222.677     2988672.401 7   2304997.659 8
  24084029.599     6332371.161 5   4879931.715 5
  24642830.349    -2554456.391 5  -1853261.962 2
 94  2  2  0 39  0.0010000  0  8 27  2 16 18  7 19 31 26
  20588232.278     -494160.726 7   -371443.975 9
  21507934.802    -2019653.816 7  -1544991.240 8
  24804261.169     3037510.648 3   2327779.952 2
  24425595.021     8484509.714 5   6528746.068 4
  22751223.872    -7085085.047 6  -5365170.022 6
  21750891.497     3039477.017 7   2344585.665 8
  24102952.895     6431824.899 5   4957428.135 5
  24627293.341    -2636075.473 4  -1916861.170 2
 94  2  2  0 39 30.0010000  0  8 27  2 16 18  7 19 31 26
  20589339.653     -488350.172 7   -366916.265 9
  21504664.325    -2036844.193 7  -1558386.325 8
  24814661.286     3092133.162 4   2370342.921 2
  24448076.114     8602677.087 5   6620824.454 3
  22734762.544    -7171593.396 6  -5432579.071 6
  21760606.981     3090543.718 7   2384377.890 8
  24121942.372     6531576.503 5   5035156.647 5
  24611818.317    -2717431.847 4  -1980255.641 2
 94  2  2  0 40  0.0010000  0  8 27  2 16 18  7 19 31 26
  20590510.060     -482189.462 7   -362115.713 9
  21501439.833    -2053791.876 7  -1571592.294 8
  24825112.364     3147074.701 3   2413154.504 1
  24470579.708     8720933.431 5   6712972.188 3
  22718356.341    -7257820.782 6  -5499769.205 6
  21770380.130     3141887.875 7   2424386.312 8
  24140972.888     6631611.510 5   5113105.998 5
  24596384.935    -2798513.876 5  -2043436.366 3
 94  2  2  0 40 30.0010000  0  8 27  2 16 18  7 19 31 26
  20591754.294     -475655.483 7   -357024.299 9
  21498266.880    -2070473.044 7  -1584590.593 8
  24835634.700     3202335.534 4   2456214.868 2
  24493101.255     8839289.879 5   6805197.932 2
  22702001.060    -7343753.777 6  -5566729.918 6
  21780206.419     3193526.091 7   2464623.872 8
  24160068.075     6731936.080 5   5191280.986 5
  24581009.099    -2879307.958 5  -2106392.715 3
 94  2  2  0 41  0.0010000  0  8 27  2 16 18  7 19 31 26
  20593063.645     -468765.513 7   -351655.492 9
  21495140.325    -2086897.097 7  -1597388.547 8
  24846205.997     3257899.652 4   2499511.525 1
  24515636.997     8957722.715 5   6897483.177 2
  22685697.638    -7429425.497 6  -5633487.063 6
  21790087.067     3245458.732 7   2505090.868 8
  24179212.575     6832551.730 5   5269682.773 5
  24565695.536    -2959812.424 5  -2169123.385 2
 94  2  2  0 41 30.0010000  0  8 27  2 16 18  7 19 31 26
  20594442.864     -461528.644 7   -346016.367 9
  21492060.638    -2103063.670 7  -1609985.856 8
  24856830.270     3313751.731 3   2543032.615 2
  24538194.942     9076235.785 5   6989830.973 3
  22669447.544    -7514825.729 6  -5700032.648 7
  21800031.575     3297713.384 7   2545808.769 8
  24198415.896     6933456.285 5   5348309.713 5
  24550432.255    -3040016.892 5  -2231620.273 2
 94  2  2  0 42  0.0010000  0  8 27  2 16 18  7 19 31 26
  20595890.146     -453939.769 7   -340102.955 9
  21489031.747    -2118971.392 7  -1622381.479 8
  24867518.888     3369885.367 3   2586773.098 1
  24560754.263     9194828.646 5   7082240.931 3
  22653248.560    -7599950.051 6  -5766363.241 7
  21810036.114     3350285.634 7   2586774.151 8
  24217665.177     7034633.909 5   5427149.398 4
  24535219.067    -3119949.621 5  -2293905.433 3
 94  2  2  0 42 30.0010000  0  8 27  2 16 18  7 19 31 26
  20597395.169     -446005.731 7   -333920.577 9
  21486055.075    -2134633.754 7  -1634585.894 8
  24878248.841     3426301.193 3   2630733.420 2
  24583330.981     9313473.932 4   7174691.726 3
  22637102.411    -7684797.891 6  -5832478.393 7
  21820098.521     3403156.021 7   2627971.853 8
  24236979.255     7136081.844 5   5506199.732 5
  24520061.958    -3199630.664 5  -2355994.462 3
 94  2  2  0 43  0.0010000  0  8 27  2 16 18  7 19 31 26
  20598974.138     -437722.159 7   -327465.852 9
  21483119.700    -2150049.000 7  -1646597.757 8
  24889039.575     3483013.703 3   2674924.972 2
  24605919.060     9432170.753 4   7267182.686 3
  22621016.427    -7769342.616 6  -5898357.352 7
  21830217.333     3456330.528 7   2669406.523 8
  24256327.333     7237812.013 5   5585469.993 5
  24504944.560    -3279048.381 5  -2417878.297 4
 94  2  2  0 43 30.0010000  0  8 27  2 16 18  7 19 31 26
  20600619.903     -429080.005 7   -320731.703 9
  21480232.872    -2165220.102 7  -1658419.370 8
  24899889.583     3540019.026 3   2719344.684 1
  24628518.927     9550911.392 4   7359707.796 3
  22604987.247    -7853568.290 6  -5963987.715 7
  21840387.692     3509789.445 7   2711062.818 8
  24275746.169     7339820.105 5   5664956.796 5
  24489880.497    -3358211.172 5  -2479563.485 3
 94  2  2  0 44  0.0010000  0  8 27  2 16 18  7 19 31 26
  20602335.567     -420059.664 7   -313702.861 9
  21477392.669    -2180151.478 7  -1670054.185 8
  24910792.341     3597326.813 3   2764000.091 2
  24651117.020     9669686.836 3   7452260.009 4
  22589019.231    -7937473.518 6  -6029368.368 7
  21850612.271     3563520.252 7   2752930.967 8
  24295211.169     7442126.327 5   5744675.926 4
  24474865.263    -3437106.268 5  -2541040.125 2
 94  2  2  0 44 30.0010000  0  8 27  2 16 18  7 19 31 26
  20604121.435     -410662.708 7   -306380.555 9
  21474596.505    -2194844.233 7  -1681503.069 8
  24921755.474     3654926.706 3   2808883.107 1
  24673720.294     9788482.668 3   7544828.091 1
  22573117.067    -8021058.007 6  -6094499.101 7
  21860889.958     3617524.786 7   2795012.421 8
  24314739.411     7544742.079 5   5824636.247 5
  24459913.606    -3515700.559 5  -2602282.331 3
 94  2  2  0 45  0.0010000  0  8 27  2 16 18  7 19 31 26
  20605986.372     -400872.037 7   -298751.449 9
  21471848.114    -2209292.496 7  -1692761.426 8
  24932772.974     3712800.426 3   2853979.477 1
  24696340.614     9907312.713 3   7637422.885 1
  22557267.341    -8104324.524 6  -6159382.061 7
  21871219.583     3671806.230 7   2837309.643 8
  24334326.724     7647668.886 5   5904838.948 4
  24445005.825    -3593989.735 4  -2663286.814 3
 94  2  2  0 45 30.0010000  0  8 27  2 16 18  7 19 31 26
  20607924.083     -390693.748 7   -290820.310 9
  21469141.419    -2223505.268 7  -1703836.286 8
  24943833.716     3770934.790 3   2899278.973 1
  24718959.521    10026174.378 3   7730042.298 1
  22541480.263    -8187298.419 6  -6224037.002 7
  21881600.333     3726359.964 6   2879819.046 8
  24353971.106     7750895.395 5   5985275.175 5
  24430169.185    -3671991.799 5  -2724067.553 2
 94  2  2  0 46  0.0010000  0  8 27  2 16 18  7 19 31 26
  20609933.763     -380131.675 7   -282590.120 9
  21466482.364    -2237480.919 7  -1714726.387 8
  24954942.950     3829331.905 3   2944783.200 1
  24741575.622    10145071.671 3   7822689.464 1
  22525747.630    -8269979.818 6  -6288464.011 7
  21892036.396     3781205.219 7   2922555.610 8
  24373664.896     7854407.214 5   6065933.723 4
  24415380.692    -3749712.586 5  -2784629.158 4
 94  2  2  0 46 30.0010000  0  8 27  2 16 18  7 19 31 26
  20612015.630     -369195.499 7   -274068.431 9
  21463871.966    -2251201.662 7  -1725417.846 8
  24966097.927     3888000.276 3   2990498.768 2
  24764220.114    10264029.669 3   7915383.916 1
  22510069.122    -8352354.469 6  -6352652.003 7
  21902531.364     3836356.333 7   2965530.499 8
  24393415.950     7958187.884 5   6146801.772 4
  24400641.255    -3827157.144 5  -2844975.502 4
 94  2  2  0 47  0.0010000  0  8 27  2 16 18  7 19 31 26
  20614166.208     -357887.133 7   -265256.705 9
  21461309.536    -2264661.971 7  -1735906.372 8
  24977329.755     3946961.843 3   3036442.808 1
  24786876.888    10383066.157 3   8008139.552 2
  22494458.966    -8434408.606 6  -6416590.256 7
  21913088.567     3891825.252 7   3008753.027 8
  24413212.114     8062234.985 5   6227877.424 5
  24385957.841    -3904332.908 5  -2905112.415 2
 94  2  2  0 47 30.0010000  0  8 27  2 16 18  7 19 31 26
  20616380.356     -346254.732 7   -256192.494 9
  21458792.591    -2277896.828 7  -1746219.216 8
  24988602.028     4006199.078 3   3082601.721 1
  24809522.411    10502137.983 4   8100922.755 1
  22478894.661    -8516171.230 6  -6480301.351 7
  21923700.817     3947594.833 7   3052209.839 8
  24433058.286     8166510.247 5   6309130.865 5
  24371318.606    -3981257.129 5  -2965053.290 4
 94  2  2  0 48  0.0010000  0  8 27  2 16 18  7 19 31 26
  20618654.021     -334295.018 7   -246873.228 9
  21456317.263    -2290906.355 7  -1756356.487 8
  24999928.083     4065713.207 4   3128976.332 1
  24832194.685    10621244.207 4   8193732.739 1
  22463400.614    -8597617.832 6  -6543766.175 7
  21934370.185     4003667.189 7   3095902.582 8
  24452945.341     8271018.045 5   6390565.521 5
  24356729.278    -4057902.306 5  -3024776.751 4
 94  2  2  0 48 30.0010000  0  8 27  2 16 18  7 19 31 26
  20620994.255     -321993.661 7   -237287.751 9
  21453883.919    -2303688.857 7  -1766316.847 8
  25011300.122     4125496.973 3   3175561.060 2
  24854873.872    10740382.690 5   8286567.877 1
  22447959.942    -8678740.309 6  -6606978.454 7
  21945097.716     4060038.149 6   3139828.009 8
  24472880.419     8375766.797 5   6472187.903 5
  24342205.060    -4134248.238 5  -3084267.015 2
 94  2  2  0 49  0.0010000  0  8 27  2 16 18  7 19 31 26
  20623406.692     -309329.818 7   -227419.816 9
  21451488.161    -2316268.088 7  -1776118.823 8
  25022729.560     4185539.254 3   3222347.218 1
  24877543.130    10859535.525 5   8379414.235 1
  22432585.028    -8759559.180 6  -6669954.157 7
  21955878.099     4116700.779 6   3183980.695 8
  24492853.458     8480743.919 5   6553988.245 5
  24327737.067    -4210286.236 5  -3143517.369 4
 94  2  2  0 49 30.0010000  0  8 27  2 15 18  7 19 31 26
  20625887.872     -296275.099 7   -217247.303 9
  21449137.755    -2328639.203 7  -1785758.633 8
  24976149.427          -0.73613
  24900231.185    10978698.524 5   8472268.466 1
  22417260.528    -8840078.857 6  -6732696.707 7
  21966717.591     4173652.320 7   3228358.520 8
  24512877.341     8585952.069 5   6635968.630 5
  24313324.778    -4285996.463 5  -3202512.281 3
 94  2  2  0 50  0.0010000  0  8 27  2 15 18  7 19 31 26
  20628451.294     -282827.649 7   -206768.763 9
  21446818.646    -2340815.256 7  -1795246.434 8
  24966391.771      -51259.796 4
  24922884.458    11097863.503 3   8565124.235 3
  22401992.630    -8920299.479 6  -6795206.237 7
  21977604.911     4230873.765 6   3272946.662 8
  24532932.263     8691378.393 5   6718119.001 4
  24298978.247    -4361387.451 5  -3261258.434 4
 94  2  2  0 50 30.0010000  0  8 27  2 15 18  7 19 31 26
  20631086.083     -268976.017 7   -195975.281 9
  21444543.528    -2352781.007 7  -1804570.371 8
  24956689.638     -102255.967 4        -0.43912
  24945560.489    11217028.495 3   8657980.023 3
  22386788.575    -9000227.504 6  -6857487.767 7
  21988550.161     4288375.628 6   3317753.310 8
  24553033.161     8797018.939 5   6800436.307 2
  24284696.091    -4436456.878 5  -3319754.045 4
 94  2  2  0 51  0.0010000  0  8 27  2 15 18  7 19 31 26
  20633795.396     -254729.678 7   -184874.232 9
  21442300.708    -2364539.240 7  -1813732.615 8
  24947038.614     -152986.959 4    -39530.979 3
  24968245.388    11336190.494 3   8750833.493 3
  22371626.247    -9079865.584 6  -6919543.370 7
  21999543.630     4346145.273 7   3362768.616 8
  24573187.427     8902879.537 5   6882925.097 4
  24270470.403    -4511211.569 5  -3378004.400 4
 94  2  2  0 51 30.0010000  0  8 27  2 15 18  7 19 31 26
  20636581.606     -240092.456 7   -173468.600 9
  21440112.599    -2376053.730 7  -1822704.925 8
  24937433.278     -203444.213 4    -78848.224 2
  24990916.771    11455349.972 3   8843684.965 3
  22356538.466    -9159175.206 6  -6981343.030 7
  22010586.099     4404184.513 6   3407993.995 8
  24593376.669     9008990.995 5   6965609.351 4
  24256305.200    -4585650.592 5  -3436008.771 4
 94  2  2  0 52  0.0010000  0  8 27  2 15 18  7 19 31 26
  20639440.442     -225078.316 7   -161769.262 9
  21437968.896    -2387312.510 7  -1831477.984 9
  24927882.083     -253626.448 4   -117951.156 2
  25013598.817    11574509.043 3   8936536.144 2
  22341513.747    -9238138.682 6  -7042872.969 7
  22021684.294     4462501.020 7   3453435.420 8
  24613611.958     9115339.211 5   7048478.092 4
  24242201.763    -4659778.422 5  -3493770.645 4
 94  2  2  0 52 30.0010000  0  8 27  2 15 18  7 19 31 26
  20642371.028     -209681.191 7   -149771.499 9
  21435876.005    -2398301.364 7  -1840040.710 8
  24918387.942     -303524.902 4   -156832.993 2
  25036259.521    11693681.102 2   9029397.410 1
  22326549.396    -9316762.550 6  -7104138.288 7
  22032833.778     4521091.080 7   3499090.009 8
  24633898.231     9221932.735 5   7131537.983 4
  24228149.724    -4733590.355 5  -3551286.376 4
 94  2  2  0 53  0.0010000  0  7 27  2 15  7 19 31 26
  20645372.638     -193893.330 7   -137469.266 9
  21433839.841    -2409029.406 7  -1848400.209 9
  24908949.825     -353134.375 4   -195489.630 3
  22311656.138    -9395028.191 6  -7165124.464 7
  22044036.864     4579964.639 6   3544965.505 8
  24654233.146     9328779.743 5   7214795.391 4
  24214168.755    -4807076.698 5  -3608548.394 5
 94  2  2  0 53 30.0010000  0  8 27  2 15 18  7 19 31 26
  20648449.958     -177715.972 7   -124863.518 9
  21431844.153    -2419507.840 7  -1856565.214 9
  24899562.310     -402457.070 4   -233922.812 4
  25081656.778          -0.46713
  22296833.122    -9472932.848 6  -7225829.352 7
  22055295.435     4639140.261 6   3591076.375 8
  24674612.505     9435856.369 5   7298231.715 4
  24200246.896    -4880230.273 5  -3665551.120 4
 94  2  2  0 54  0.0010000  0  8 27  2 15 18  7 19 31 26
  20651605.044     -161143.716 7   -111950.070 9
  21429891.981    -2429760.941 7  -1864554.624 9
  24890231.021     -451487.985 4   -272128.639 3
  25104332.669      119259.249 3
  22282077.497    -9550489.565 6  -7286263.113 7
  22066619.278     4698632.188 6   3637433.721 8
  24695024.271     9543153.457 5   7381839.836 5
  24186388.927    -4953038.264 5  -3722284.557 4
 94  2  2  0 54 30.0010000  0  8 27  2 15 18  7 19 31 26
  20654830.872     -144174.081 7    -98726.966 9
  21427983.294    -2439811.108 7  -1872385.913 9
  24880961.442     -500224.632 5   -310105.164 4
  25127062.505      238551.756 3        -0.09812
  22267379.560    -9627707.320 6  -7346432.769 8
  22077999.521     4758435.623 6   3684033.811 7
  24715484.833     9650686.072 5   7465631.482 5
  24172607.263    -5025509.850 5  -3778755.887 4
 94  2  2  0 55  0.0010000  0  8 27  2 15 18  7 19 31 26
  20658138.864     -126808.675 7    -85195.475 9
  21426106.286    -2449661.182 7  -1880061.285 9
  24871740.872     -548658.107 5   -347845.441 4
  25149725.356      357860.303 2     92967.556 3
  22252751.591    -9704563.198 6  -7406320.433 8
  22089442.536     4818576.455 6   3730896.793 8
  24735995.771     9758450.854 4   7549604.048 5
  24158874.849    -5097652.782 5  -3834971.097 4
 94  2  2  0 55 30.0010000  0  8 27  2 15 18  7 19 31 26
  20661517.153     -109065.560 7    -71369.656 9
  21424266.911    -2459311.652 7  -1887581.121 9
  24862578.763     -596795.091 5   -385354.685 3
  25172453.685      477164.384 2    185931.733 2
  22238192.341    -9781073.044 6  -7465938.460 8
  22100945.192     4879030.638 6   3778003.944 7
  24756542.989     9866433.956 5   7633746.754 3
  24145200.997    -5169491.668 5  -3890949.396 4
 94  2  2  0 56  0.0010000  0  8 27  2 15 18  7 19 31 26
  20664961.630      -90963.442 7    -57264.106 9
  21422471.231    -2468755.954 7  -1894940.303 9
  24853480.028     -644640.318 5   -422636.576 3
  25195130.810      596450.708 2    278882.093 1
  22223697.731    -9857251.319 6  -7525298.116 8
  22112506.442     4939776.429 6   3825338.330 7
  24777132.106     9974625.492 5   7718051.850 4
  24131590.786    -5241035.607 5  -3946697.869 5
 94  2  2  0 56 30.0010000  0  8 27  2 15 18  7 19 31 26
  20668475.161      -72495.190 7    -42873.256 9
  21420717.880    -2477979.075 7  -1902127.150 9
  24844426.950     -692180.696 5   -459680.929 3
  25217837.106      715710.740 3    371811.981 1
  22209269.544    -9933076.964 6  -7584383.003 8
  22124121.278     5000815.029 6   3872900.874 7
  24797757.755    10083021.636 5   7802516.386 4
  24118029.005    -5312264.627 5  -4002200.956 4
 94  2  2  0 57  0.0010000  0  8 27  2 15 18  7 19 31 26
  20672057.942      -53660.928 7    -28197.196 9
  21419005.200    -2486965.755 7  -1909129.738 9
  24835440.942     -739421.747 5   -496492.040 3
  25240536.325      834936.408 4    464715.080 1
  22194908.403   -10008550.018 6  -7643193.145 8
  22135790.114     5062136.111 6   3920683.541 7
  24818418.325    10191594.929 4   7887118.969 4
  24104540.458    -5383167.637 5  -4057450.002 4
 94  2  2  0 57 30.0010000  0  8 27  2 15 18  7 19 31 26
  20675715.122      -34446.168 7    -13224.647 9
  21417343.036    -2495701.805 7  -1915937.032 9
  24826509.833     -786356.775 5   -533064.717 3
  25263206.661      954139.186 4    557600.384 1
  22180609.981   -10083670.955 6  -7701728.912 8
  22147511.567     5123734.425 6   3968682.235 8
  24839112.849    10300351.995 4   7971864.742 4
  24091113.700    -5453712.038 5  -4112419.615 5
 94  2  2  0 58  0.0010000  0  8 27  2 15 18  7 19 31 26
  20679446.427      -14835.823 7      2056.146 8
  21415728.825    -2504193.733 7  -1922554.105 9
  24817637.856     -832984.633 5   -569398.018 2
  25285899.169     1073323.151 4    650471.021 1
  22166385.333   -10158437.980 6  -7759988.899 8
  22159285.731     5185609.582 6   4016896.645 7
  24859844.075    10409291.700 5   8056752.852 3
  24077765.122    -5523885.479 5  -4167100.140 4
 94  2  2  0 58 30.0010000  0  8 27  2 15 18  7 19 31 26
  20683257.091        5198.885 7     17667.623 8
  21414161.122    -2512437.379 7  -1928977.701 9
  24808826.638     -879289.780 5   -605479.847 4
  25308568.817     1192500.184 4    743336.253 1
  22152228.317   -10232826.333 6  -7817953.815 8
  22171114.591     5247766.282 6   4065330.434 7
  24880612.505    10518435.557 4   8141800.052 3
  24064487.997    -5593681.822 5  -4221486.862 5
 94  2  2  0 59  0.0010000  0  7 27  2 15  7 19 31 26
  20687153.896       25661.238 7     33612.318 9
  21412638.810    -2520427.484 7  -1935203.741 9
  24800076.810     -925265.973 5   -641305.363 3
  22138142.161   -10306842.930 6  -7875629.056 8
  22182997.294     5310211.995 6   4113989.425 7
  24901424.411    10627801.187 4   8227020.044 2
  24051271.771    -5663109.042 5  -4275585.933 3
 94  2  2  0 59 30.0010000  0  7 27  2 15  7 19 31 26
  20691123.021       46530.755 7     49874.288 9
  21411157.192    -2528213.085 7  -1941270.428 9
  24791383.146     -970928.409 5   -676886.401 4
  22124127.880   -10380507.655 6  -7933030.106 8
  22194929.310     5372925.781 6   4162857.316 7
  24922278.060    10737381.025 4   8312406.965 2
  24038128.138    -5732196.119 5  -4329419.950 4
 94  2  2  1  0  0.0010000  0  7 27  2 15  7 19 31 26
  20695169.817       67799.423 7     66447.288 8
  21409714.981    -2535809.056 7  -1947189.344 9
  24782756.771    -1016272.620 5   -712219.472 3
  22110173.317   -10453816.004 6  -7990153.462 8
  22206914.645     5435901.957 6   4211929.662 7
  24943168.364    10847166.686 4   8397954.260 2
  24025044.099    -5800946.819 5  -4382991.857 5
 94  2  2  1  0 30.0010000  0  7 27  2 15  7 19 31 26
  20699292.231       89456.713 7     83323.109 8
  21408303.981    -2543211.728 7  -1952957.635 9
  24774187.911    -1061294.046 5   -747301.016 4
  22096293.833   -10526759.966 6  -8046992.885 8
  22218954.716     5499165.354 6   4261225.814 7
  24964103.122    10957148.782 5   8483654.639 2
  24012020.677    -5869356.635 5  -4436298.128 4
 94  2  2  1  1  0.0010000  0  7 27  2 15  7 19 31 26
  20703486.927      111502.048 7    100501.302 9
  21406931.669    -2550428.120 7  -1958580.771 9
  24765685.544    -1105986.019 5   -782125.846 4
  22082479.489   -10599342.498 6  -8103550.674 8
  22231053.505     5562746.640 6   4310769.675 7
  24985064.630    11067320.835 4   8569503.031 2
  23999073.739    -5937417.364 5  -4489332.403 5
 94  2  2  1  1 30.0010000  0  7 27  2 15  7 19 31 26
  20707754.388      133930.645 7    117978.141 8
  21405594.825    -2557461.877 7  -1964061.603 9
  24757241.099    -1150356.832 5   -816700.447 2
  22068738.646   -10671554.894 6  -8159820.041 8
  22243211.271     5626636.167 6   4360553.714 7
  25006054.567    11177656.831 4   8655479.175 3
  23986185.028    -6005132.408 5  -4542097.310 5
 94  2  2  1  2  0.0010000  0  7 27  2 15  7 19 31 26
  20712095.153      156745.336 7    135755.830 8
  21404296.372    -2564272.775 7  -1969368.772 9
  24748861.997    -1194388.589 5   -851010.839 3
  22055078.599   -10743378.682 6  -8215786.599 8
  22255432.302     5690858.711 6   4410597.243 7
  25027089.997    11288162.497 4   8741587.508 2
  23973368.075    -6072477.675 5  -4594574.076 4
 94  2  2  1  2 30.0010000  0  7 27  2 15  7 19 31 26
  20716512.403      179946.076 7    153834.333 8
  21403040.583    -2570858.124 7  -1974500.185 9
  24740546.864    -1238083.759 5   -885058.969 4
  22041477.763   -10814820.933 6  -8271455.854 8
  22267717.888     5755415.911 6   4460901.546 7
  25048147.638    11398837.352 3   8827827.678 3
  23960623.481    -6139457.543 5  -4646766.128 3
 94  2  2  1  3  0.0010000  0  7 27  2 15  7 19 31 26
  20720998.231      203533.700 7    172214.309 8
  21401832.060    -2577232.615 7  -1979467.305 9
  24732296.981    -1281446.042 5   -918847.693 2
  22027954.528   -10885889.453 6  -8326833.891 8
  22280058.099     5820267.393 6   4511435.171 7
  25069237.013    11509686.875 3   8914203.977 4
  23947948.106    -6206074.313 5  -4698675.241 5
 94  2  2  1  3 30.0010000  0  7 27  2 15  7 19 31 26
  20725567.403      227529.805 7    190912.578 8
  21400662.755    -2583363.758 7  -1984244.804 9
  24724107.513    -1324456.549 5   -952362.308 5
  22014505.567   -10956566.266 6  -8381906.697 8
  22292455.435     5885411.839 6   4562197.070 7
  25090374.935    11620727.481 3   9000729.170 3
  23935348.942    -6272297.095 5  -4750277.350 5
 94  2  2  1  4  0.0010000  0  7 27  2 15  7 19 31 26
  20730207.028      251923.464 7    209920.623 8
  21399538.903    -2589277.223 7  -1988852.669 9
  24715994.380    -1367125.451 5   -985610.752 5
  22001125.411   -11026879.052 6  -8436695.838 8
  22304904.146     5950835.937 6   4613176.885 7
  25111538.513    11731945.664 3   9087392.724 2
  23922817.896    -6338128.758 5  -4801574.700 5
 94  2  2  1  4 30.0010000  0  6 27  2 15  7 19 26
  20734928.396      276733.309 7    229252.967 8
  21398450.864    -2594978.239 7  -1993295.002 9
  24707938.177    -1409443.260 5  -1018585.603 3
  21987817.763   -11096817.951 6  -8491193.651 8
  22317408.669     6016539.827 6   4664374.705 7
  23910371.981    -6403564.536 5  -4852563.570 5
 94  2  2  1  5  0.0010000  0  6 27  2 15  7 19 26
  20739728.880      301960.935 7    248910.856 8
  21397412.677    -2600449.624 7  -1997558.397 9
  24699955.575    -1451398.809 5  -1051278.178 4
  21974583.786   -11166365.985 6  -8545386.880 8
  22329963.388     6082532.027 6   4715797.203 7
  23897991.599    -6468601.810 5  -4903241.937 5
 94  2  2  1  5 30.0010000  0  6 27  2 15  7 19 26
  20744605.060      327584.354 7    268877.156 8
  21396415.778    -2605691.338 7  -2001642.825 9
  24692037.513    -1493005.424 5  -1083698.847 4
  21961416.239   -11235530.004 6  -8599280.876 8
  22342577.810     6148812.214 6   4767444.095 7
  23885691.896    -6533254.338 5  -4953620.491 5
 94  2  2  1  6  0.0010000  0  6 27  2 15  7 19 26
  20749556.208      353604.773 7    289152.804 8
  21395460.794    -2610701.322 7  -2005546.690 9
  24684191.310    -1534253.100 5  -1115839.835 4
  21948335.692   -11304285.173 6  -8652856.294 8
  22355245.122     6215377.847 6   4819313.412 7
  23873453.966    -6597530.959 5  -5003706.113 5
 94  2  2  1  6 30.0010000  0  6 27  2 15  7 19 26
  20754587.872      380033.541 7    309746.651 8
  21394552.599    -2615475.734 7  -2009266.992 9
  24676407.146    -1575134.379 5  -1147695.307 4
  21935334.755   -11372614.767 6  -8706100.092 8
  22367968.247     6282227.519 6   4871404.066 7
  23861294.567    -6661441.675 5  -5053506.641 5
 94  2  2  1  7  0.0010000  0  6 27  2 15  7 19 26
  20759694.489      406870.379 7    330658.476 8
  21393687.638    -2620025.133 7  -2012811.961 9
  24668698.903    -1615657.242 5  -1179271.472 5
  21922407.802   -11440540.150 7  -8759028.923 8
  22380737.513     6349355.420 6   4923711.517 7
  23849202.099    -6724988.493 5  -5103023.585 5
 94  2  2  1  7 30.0010000  0  6 27  2 15  7 19 26
  20764884.317      434136.868 7    351905.094 8
  21392858.263    -2624370.753 7  -2016198.139 9
  24661057.606    -1655815.748 5  -1210563.761 3
  21909556.927   -11508069.056 6  -8811648.807 8
  22393567.060     6416768.653 6   4976241.317 7
  23837177.974    -6788157.770 5  -5152246.357 5
 94  2  2  1  8  0.0010000  0  6 27  2 15  7 19 26
  20770150.974      461828.259 7    373482.802 8
  21392070.661    -2628530.480 7  -2019439.456 9
  24653484.013    -1695611.478 5  -1241573.356 4
  21896778.474   -11575225.006 6  -8863978.080 9
  22406449.950     6484468.313 6   5028994.300 7
  23825228.325    -6850957.843 5  -5201181.423 5
 94  2  2  1  8 30.0010000  0  6 27  2 15  7 19 26
  20775500.341      489946.898 7    395393.434 8
  21391310.036    -2632513.808 7  -2022543.340 9
  24645981.794    -1735043.404 5  -1272299.471 4
  21884065.606   -11642030.975 6  -8916034.632 9
  22419391.856     6552475.602 6   5081987.007 7
  23813354.614    -6913373.622 5  -5249817.051 5
 94  2  2  1  9  0.0010000  0  6 27  2 15  7 19 26
  20780931.997      518483.775 7    417629.965 8
  21390588.591    -2636317.208 7  -2025507.011 9
  24638548.239    -1774110.250 5  -1302741.106 4
  21871420.325   -11708473.586 6  -8967808.046 9
  22432395.755     6620797.135 6   5135224.561 7
  23801554.669    -6975391.852 5  -5298142.892 5
 94  2  2  1  9 30.0010000  0  6 27  2 15  7 19 26
  20786439.481      547427.547 7    440183.564 8
  21389898.716    -2639938.549 7  -2028328.814 9
  24631184.216    -1812812.107 5  -1332898.332 5
  21858849.099   -11774532.353 7  -9019282.365 9
  22445450.575     6689420.912 6   5188697.633 7
  23789823.622    -7037020.575 5  -5346165.235 5
 94  2  2  1 10  0.0010000  0  6 27  2 15  7 19 26
  20792027.021      576783.098 7    463058.026 8
  21389245.411    -2643353.498 7  -2030989.804 9
  24623882.325    -1851140.817 5  -1362764.769 4
  21846359.419   -11840182.919 7  -9070438.607 9
  22458568.239     6758343.812 6   5242403.795 7
  23778171.755    -7098252.009 5  -5393877.967 5
 94  2  2  1 10 30.0010000  0  6 27  2 15  7 19 26
  20797694.200      606561.717 7    486262.146 8
  21388637.856    -2646549.866 7  -2033480.461 9
  24616660.255    -1889088.066 5  -1392333.994 5
  21833946.411   -11905388.601 6  -9121248.190 9
  22471737.544     6827555.072 6   5296334.652 7
  23766598.075    -7159072.220 5  -5441270.294 5
 94  2  2  1 11  0.0010000  0  6 27  2 15  7 19 26
  20803440.685      636760.628 7    509793.774 8
  21388078.138    -2649513.610 7  -2035789.855 9
  24609513.942    -1926649.620 5  -1421602.694 5
  21821622.919   -11970141.575 6  -9171705.003 9
  22484960.442     6897039.980 6   5350478.737 7
  23755101.310    -7219477.564 5  -5488339.337 5
 94  2  2  1 11 30.0010000  0  6 27  2 15  7 19 26
  20809266.419      667387.200 7    533658.633 8
  21387558.825    -2652238.330 7  -2037912.998 9
  24602443.388    -1963811.947 5  -1450560.280 5
  21809393.497   -12034455.260 7  -9221819.507 9
  22498237.380     6966805.969 6   5404841.845 7
  23743686.208    -7279464.559 5  -5535082.398 5
 94  2  2  1 12  0.0010000  0  6 27  2 15  7 19 26
  20815171.544      698405.003 7    557828.360 8
  21387080.669    -2654745.042 7  -2039866.270 9
  24595445.435    -2000589.302 5  -1479217.905 4
  21797229.841   -12098358.342 7  -9271614.066 9
  22511562.114     7036839.603 6   5459413.518 7
  23732346.169    -7339044.837 5  -5581508.541 5
 94  2  2  1 12 30.0010000  0  6 27  2 15  7 19 26
  20821148.536      729806.115 7    582296.763 8
  21386645.114    -2657035.351 7  -2041650.911 9
  24588526.247    -2036972.463 5  -1507568.379 4
  21785146.724   -12161855.504 7  -9321092.328 9
  22524944.200     7107156.704 6   5514206.067 7
  23721093.685    -7398207.468 5  -5627609.242 5
 94  2  2  1 13  0.0010000  0  6 27  2 15  7 19 26
  20827194.630      761589.339 7    607062.922 8
  21386247.146    -2659125.139 7  -2043279.303 9
  24581671.388    -2072964.574 5  -1535614.126 5
  21773137.505   -12224959.115 7  -9370263.932 9
  22538382.669     7177769.874 6   5569229.317 7
  23709908.317    -7456957.353 5  -5673388.321 5
 94  2  2  1 13 30.0010000  0  6 27  2 15  7 19 26
  20833319.700      793774.035 7    632141.910 8
  21385885.888    -2661005.783 7  -2044744.729 9
  24574904.606    -2108545.083 5  -1563339.148 4
  21761210.888   -12287635.109 7  -9419102.325 9
  22551881.021     7248700.536 6   5624499.966 7
  23698811.599    -7515271.697 5  -5718828.007 5
 94  2  2  1 14  0.0010000  0  6 27  2 15  7 19 26
  20839515.021      826346.500 7    657523.067 8
  21385567.911    -2662698.786 7  -2046063.932 9
  24568209.356    -2143736.892 5  -1590761.306 4
  21749361.825   -12349894.076 7  -9467615.754 9
  22565433.544     7319922.528 6   5679997.623 7
  23687796.177    -7573169.286 5  -5763942.934 5
 94  2  2  1 14 30.0010000  0  6 27  2 15  7 19 26
  20845796.700      859342.583 7    683234.305 8
  21385281.466    -2664202.347 7  -2047235.527 9
  24561584.591    -2178530.899 5  -1617873.473 4
  21737594.739   -12411729.540 7  -9515799.180 9
  22579044.747     7391445.866 6   5735730.094 7
  23676861.919    -7630646.324 5  -5808730.188 5
 94  2  2  1 15  0.0010000  0  6 27  2 15  7 19 26
  20852155.489      892766.255 7    709278.730 8
  21385029.817    -2665526.522 7  -2048267.341 9
  24555039.177    -2212930.481 5  -1644678.297 5
  21725911.067   -12473141.598 7  -9563652.689 9
  22592709.106     7463259.831 6   5791689.026 6
  23666003.372    -7687722.416 6  -5853205.011 5
 94  2  2  1 15 30.0010000  0  6 27  2 15  7 19 26
  20858599.661      926626.109 7    735663.039 8
  21384812.294    -2666667.608 7  -2049156.485 9
  24548567.513    -2246929.701 5  -1671171.150 5
  21714302.372   -12534139.054 7  -9611183.131 9
  22606425.263     7535353.310 6   5847865.756 6
  23655209.036    -7744404.269 5  -5897372.627 5
 94  2  2  1 16  0.0010000  0  6 27  2 15  7 19 26
  20865128.591      960933.632 7    762396.177 8
  21384630.278    -2667627.686 7  -2049904.583 9
  24542174.020    -2280526.674 5  -1697350.549 4
  21702772.849   -12594728.497 7  -9658395.643 9
  22620202.489     7607730.754 6   5904263.760 6
  23644499.810    -7800695.310 5  -5941235.703 5
 94  2  2  1 16 30.0010000  0  6 27  2 15  7 19 26
  20871743.231      995686.446 7    789476.304 8
  21384482.106    -2668401.857 7  -2050507.808 9
  24535861.638    -2313713.705 5  -1723210.518 3
  21691322.638   -12654898.039 7  -9705280.952 9
  22634026.044     7680397.539 6   5960887.228 6
  23633865.442    -7856583.154 5  -5984784.609 5
 94  2  2  1 17  0.0010000  0  6 27  2 15  7 19 26
  20878435.606     1030875.791 7    816896.595 8
  21384373.442    -2668976.367 7  -2050955.463 9
  24529622.036    -2346482.657 5  -1748744.711 5
  21679956.169   -12714630.048 7  -9751825.326 9
  22647910.263     7753351.629 6   6017734.555 6
  23623311.411    -7912051.195 5  -6028006.412 5
 94  2  2  1 17 30.0010000  0  6 27  2 15  7 19 26
  20885214.380     1066483.080 7    844642.528 8
  21384305.302    -2669337.039 7
  24523470.005    -2378839.245 5  -1773957.577 4
  21668670.302   -12773931.857 7  -9798034.481 9
  22661847.028     7826583.000 6   6074797.950 6
  23612838.021    -7967085.518 5  -6070890.251 5
 94  2  2  1 18  0.0010000  0  6 27  2 15  7 19 26
  20892063.395     1102477.732 7    872690.318 8
  21384272.645    -2669483.393 7
  24517389.466    -2410788.200 5  -1798852.819 5
  21657466.849   -12832802.485 7  -9843907.652 9
  22675833.278     7900090.246 6   6132076.317 6
  23602449.927    -8021680.540 5  -6113431.784 5
 94  2  2  1 18 30.0010000  0  6 27  2 15  7 19 26
  20898985.552     1138851.785 7    901033.742 8
  21384291.645    -2669408.085 7
  24511385.294    -2442320.577 5  -1823423.460 4
  21646349.411   -12891239.681 7  -9889443.078 9
  22689876.278     7973879.029 6   6189574.063 6
  23592140.396    -8075832.960 5  -6155628.421 5
 94  2  2  1 19  0.0010000  0  6 27  2 15  7 19 26
  20905980.458     1175622.532 7    929686.285 8
  21384346.435    -2669107.447 7
  24505467.442    -2473427.400 5  -1847662.475 4
  21635309.888   -12949250.081 7  -9934645.951 9
  22703972.903     8047953.467 6   6247294.396 6
  23581922.747    -8129542.253 6  -6197479.761 5
 94  2  2  1 19 30.0010000  0  6 27  2 15  7 19 26
  20913057.966     1212800.683 7    958656.271 8
  21384446.106    -2668602.390 7  -2050663.984 9
  24499633.278    -2504106.746 5  -1871568.415 4
  21624349.200   -13006846.802 7  -9979526.468 9
  22718123.872     8122320.157 6   6305242.453 6
  23571786.544    -8182810.741 6  -6238987.634 5
 94  2  2  1 20  0.0010000  0  6 27  2 15  7 19 26
  20920213.021     1250408.321 7    987960.926 8
  21384569.489    -2667921.063 7  -2050133.062 9
  24493871.669    -2534355.108 5  -1895138.531 4
  21613469.575   -13064029.441 7 -10024084.330 9
  22732330.849     8196978.249 6   6363417.585 6
  23561733.942    -8235639.133 5  -6280152.597 5
 94  2  2  1 20 30.0010000  0  6 27  2 15  7 19 26
  20927451.833     1288452.488 7   1017605.736 8
  21384732.599    -2667081.542 7  -2049478.872 9
  24488200.341    -2564179.660 5  -1918378.415 5
  21602665.270   -13120792.580 7 -10068315.304 9
  22746590.731     8271912.935 6   6421808.249 6
  23551762.513    -8288034.884 6  -6320980.398 5
 94  2  2  1 21  0.0010000  0  6 27  2 15  7 19 26
  20934778.630     1326957.315 7   1047609.510 8
  21384926.020    -2666069.512 7  -2048690.257 9
  24482610.138    -2593563.325 5  -1941274.742 3
  21591950.872   -13177110.692 7 -10112199.507 9
  22760903.646     8347125.404 6   6480415.361 6
  23541875.575    -8339969.419 5  -6361448.845 5
 94  2  2  1 21 30.0010000  0  6 27  2 15  7 19 26
  20942190.013     1365902.778 7   1077956.630 8
  21385149.192    -2664891.328 7  -2047772.179 9
  24477096.536    -2622510.424 5  -1963830.883 5
  21581321.669   -13232970.204 7 -10155726.360 9
  22775266.630     8422610.937 6   6539235.241 6
  23532082.231    -8391445.187 5  -6401559.778 5
 94  2  2  1 22  0.0010000  0  6 27  2 15  7 19 26
  20949685.177     1405270.462 7   1108632.752 8
  21385406.185    -2663529.816 7  -2046711.240 9
  24471677.896    -2651024.817 5  -1986049.856 4
  21570780.411   -13288356.241 7 -10198884.268 9
  22789682.146     8498368.155 6   6598266.833 6
  23522372.989    -8442476.301 6  -6441324.257 5
 94  2  2  1 22 30.0010000  0  6 27  2 15  7 19 26
  20957249.552     1445044.318 7   1139625.368 8
  21385705.427    -2661960.039 7  -2045488.021 9
  24466332.270    -2679101.189 5  -2007927.521 4
  21560333.271   -13343253.426 7 -10241661.257 9
  22804153.950     8574408.284 6   6657518.891 6
  23512748.942    -8493064.968 6  -6480743.953 5
 94  2  2  1 23  0.0010000  0  6 27  2 15  7 19 26
  20964896.044     1485221.551 7   1170932.311 8
  21386049.271    -2660175.815 7  -2044097.696 9
  24461068.161    -2706744.336 5  -2029467.583 5
  21549975.153   -13397685.991 7 -10284076.207 9
  22818675.567     8650736.187 6   6716995.179 6
  23503202.411    -8543221.141 6  -6519826.658 5
 94  2  2  1 23 30.0010000  0  6 27  2 15  7 19 26
  20972617.739     1525801.641 7   1202553.162 8
  21386427.700    -2658166.834 7  -2042532.235 9
  24455890.606    -2733950.529 5  -2050667.154 4
  21539704.341   -13451655.229 7 -10326130.120 9
  22833260.489     8727371.194 6   6776710.764 6
  23493737.403    -8592953.462 6  -6558579.075 5
 94  2  2  1 24  0.0010000  0  6 27  2 15  7 19 26
  20980424.185     1566807.455 7   1234505.752 8
  21386854.013    -2655927.332 7  -2040787.149 9
  24450804.325    -2760707.056 5  -2071516.334 5
  21529523.888   -13505162.752 7 -10367824.262 9
  22847903.427     8804315.108 6   6836667.070 6
  23484357.130    -8642241.920 6  -6596985.634 5
 94  2  2  1 24 30.0010000  0  6 27  2 15  7 19 26
  20988309.294     1608247.869 7   1266796.983 8
  21387318.677    -2653472.823 7  -2038874.534 9
  24445790.192    -2787015.421 5  -2092016.311 5
  21519423.817   -13558224.567 7 -10409171.089 9
  22862602.708     8881547.396 6   6896848.073 6
  23475066.044    -8691077.910 6  -6635039.624 5
 94  2  2  1 25  0.0010000  0  6 27  2 15  7 19 26
  20996280.599     1650138.302 7   1299438.881 8
  21387825.091    -2650827.869 7  -2036813.513 9
  24440872.435    -2812871.765 5  -2112164.067 5
  21509410.356   -13610849.734 7 -10450177.680 9
  22877350.489     8959065.484 6   6957251.785 6
  23465859.583    -8739449.396 6  -6672731.654 5
 94  2  2  1 25 30.0010000  0  6 27  2 15  7 19 26
  21004332.919     1692461.385 7   1332417.908 8
  21388360.067    -2648025.717 7  -2034630.005 9
  24436030.091    -2838284.929 5  -2131966.473 5
  21499479.653   -13663038.613 7 -10490844.302 9
  22892148.599     9036839.903 6   7017855.239 6
  23456744.106    -8787357.836 6  -6710062.878 5
 94  2  2  1 26  0.0010000  0  6 27  2 15  7 19 26
  21012471.560     1735217.886 7   1365734.663 8
  21388922.185    -2645060.679 7  -2032319.564 9
  24431286.396    -2863243.205 5  -2151414.442 4
  21489630.583   -13714786.802 7 -10531167.530 9
  22906999.497     9114868.302 6   7078656.585 6
  23447715.310    -8834787.027 6  -6747020.655 5
 94  2  2  1 26 30.0010000  0  6 27  2 15  7 19 26
  21020687.755     1778396.485 7   1399380.329 8
  21389517.661    -2641926.120 7  -2029877.037 9
  24426620.333    -2887749.418 5  -2170510.136 4
  21479868.380   -13766095.005 7 -10571147.917 9
  22921900.755     9193166.304 6   7139668.013 6
  23438783.036    -8881742.582 6  -6783609.360 5
 94  2  2  1 27  0.0010000  0  6 27  2 15  7 19 26
  21028980.403     1821978.446 7   1433340.294 8
  21390147.989    -2638617.158 7  -2027298.610 9
  24422046.349    -2911807.362 5  -2189256.542 5
  21470188.911   -13816964.638 7 -10610786.557 9
  22936851.653     9271733.864 6   7200889.495 6
  23429935.708    -8928235.823 6  -6819837.816 5
 94  2  2  1 27 30.0010000  0  6 27  2 15  7 19 26
  21037345.825     1865950.653 7   1467604.351 8
  21390816.825    -2635109.767 7  -2024565.559 9
  24417557.169    -2935415.200 5  -2207652.218 4
  21460590.497   -13867386.691 7 -10650076.432 9
  22951851.599     9350571.200 6   7262321.192 6
  23421174.841    -8974275.476 6  -6855712.842 5
 94  2  2  1 28  0.0010000  0  6 27  2 15  7 19 26
  21045793.341     1910331.810 7   1502187.076 8
  21391526.060    -2631371.908 7  -2021652.917 9
  24413145.606    -2958556.847 5  -2225684.631 5
  21451087.981   -13917343.692 7 -10689003.932 9
  22966910.747     9429710.806 6   7323988.418 6
  23412504.817    -9019844.935 6  -6891221.468 5
 94  2  2  1 28 30.0010000  0  6 27  2 15  7 19 26
  21054313.044     1955123.631 7   1537089.797 8
  21392278.716    -2627428.431 7  -2018580.067 9
  24408833.552    -2981242.108 5  -2243361.414 4
  21441669.872   -13966828.349 7 -10727563.371 9
  22982027.372     9509143.521 6   7385884.035 6
  23403919.450    -9064955.987 6  -6926372.902 5
 94  2  2  1 29  0.0010000  0  6 27  2 15  7 19 26
  21062920.044     2000339.288 7   1572322.787 8
  21393064.075    -2623296.925 7  -2015360.695 9
  24404604.755    -3003463.502 5  -2260676.747 5
  21432345.810   -14015827.774 7 -10765744.703 9
  22997195.388     9588857.635 6   7447998.938 6
  23395421.200    -9109603.662 6  -6961163.245 5
 94  2  2  1 29 30.0010000  0  6 27  2 15  7 19 26
  21071609.528     2045994.254 7   1607898.077 8
  21393884.419    -2618988.260 7  -2012003.275 9
  24400467.333    -3025217.960 5  -2277628.248 5
  21423113.528   -14064343.456 7 -10803549.099 9
  23012417.677     9668858.495 6   7510337.274 6
  23387014.364    -9153779.670 6  -6995586.062 5
 94  2  2  1 30  0.0010000  0  6 27  2 15  7 19 26
  21080382.606     2092099.254 7   1643824.059 8
  21394734.286    -2614516.445 7  -2008518.722 9
  24396415.333    -3046502.908 5  -2294213.890 5
  21413969.786   -14112377.498 7 -10840978.193 9
  23027695.513     9749134.759 6   7572890.184 6
  23378706.911    -9197475.380 6  -7029634.632 5
 94  2  2  1 30 30.0010000  0  6 27  2 15  7 19 26
  21089240.114     2138651.437 7   1680098.491 8
  21395616.646    -2609886.333 7  -2004910.819 9
  24392456.333    -3067312.077 5  -2310428.797 5
  21404922.653   -14159927.786 7 -10878030.325 9
  23043022.396     9829676.135 6   7635649.717 6
  23370477.911    -9240694.254 6  -7063311.647 5
 94  2  2  1 31  0.0010000  0  6 27  2 15  7 19 26
  21098179.731     2185632.414 7   1716707.055 8
  21396527.333    -2605091.635 7  -2001174.670 9
  24388585.825    -3087652.372 5  -2326278.340 4
  21395962.325   -14207022.136 7 -10914727.188 9
  23058395.927     9910467.203 6   7698603.805 6
  23362342.200    -9283438.481 6  -7096618.792 5
 94  2  2  1 31 30.0010000  0  6 27  2 15  7 19 26
  21107197.981     2233014.474 7   1753628.153 8
  21397475.317    -2600119.398 7  -1997300.182 9
  24384799.419    -3107536.245 5  -2341772.209 4
  21387084.380   -14253674.782 7 -10951079.861 9
  23073813.521     9991495.194 6   7761742.497 6
  23354291.755    -9325729.668 6  -7129572.943 6
 94  2  2  1 32  0.0010000  0  7 27  2 15 13  7 19 26
  21116291.349     2280809.204 7   1790870.805 8
  21398458.442    -2594947.501 7  -1993270.113 9
  24381105.833    -3126937.623 5  -2356890.133 4
  25180393.591          -0.48313
  21378298.106   -14299856.753 7 -10987065.779 9
  23089283.747    10072787.131 6   7825086.862 6
  23346334.950    -9367545.054 6  -7162156.316 5
 94  2  2  1 32 30.0010000  0  7 27  2 15 13  7 19 26
  21125461.606     2328998.403 7   1828420.843 8
  21399477.833    -2589587.568 7  -1989093.512 9
  24377501.716    -3145868.574 5  -2371641.466 5
  25158817.794     -113402.372 3
  21369595.958   -14345582.572 7 -11022696.256 9
  23104803.528    10154338.980 6   7888633.763 6
  23338466.935    -9408901.904 6  -7194382.403 5
 94  2  2  1 33  0.0010000  0  7 27  2 15 13  7 19 26
  21134709.481     2377600.822 7   1866292.868 8
  21400536.739    -2584022.412 7  -1984757.003 9
  24373999.513    -3164311.338 5  -2386012.403 4
  25137232.896     -226752.577 3
  21360983.513   -14390840.710 7 -11057962.308 9
  23120377.200    10236180.289 6   7952406.217 6
  23330689.169    -9449778.332 6  -7226234.129 5
 94  2  2  1 33 30.0010000  0  7 27  2 15 13  7 19 26
  21144040.177     2426627.263 7   1904495.296 8
  21401632.099    -2578269.964 7  -1980274.551 9
  24370575.646    -3182265.791 5  -2400002.843 4
  25115684.497          -0.98513
  21352458.208   -14435631.380 7 -11092864.094 9
  23136009.099    10318322.610 6   8016413.225 6
  23323001.161    -9490179.354 6  -7257715.424 6
 94  2  2  1 34  0.0010000  0  7 27  2 15 13  7 19 26
  21153449.614     2476065.014 7   1943018.234 8
  21402754.505    -2572377.174 7  -1975682.742 9
  24367254.544    -3199753.627 5  -2413629.687 5
  25094137.810     -113265.740 4
  21344018.770   -14479988.874 7 -11127428.343 9
  23151692.099    10400734.304 6   8080630.123 6
  23315400.521    -9530111.471 6  -7288831.325 5
 94  2  2  1 34 30.0010000  0  7 27  2 15 13  7 19 26
  21162937.833     2525938.485 7   1981880.687 8
  21403907.591    -2566318.110 7  -1970961.365 9
  24364015.255    -3216754.621 5  -2426877.154 5
  25072592.606     -226476.894 4        -0.25811
  21335664.872   -14523894.057 7 -11161640.142 9
  23167424.060    10483419.596 6   8145060.233 6
  23307897.560    -9569548.906 6  -7319561.760 5
 94  2  2  1 35  0.0010000  0  7 27  2 15 13  7 19 26
  21172513.700     2576254.672 7   2021088.115 8
  21405091.966    -2560091.785 7  -1966109.657 9
  24360877.130    -3233269.468 5  -2439745.830 5
  25051054.810     -339633.776 4    -88174.347 1
  21327395.927   -14567342.759 7 -11195496.240 9
  23183212.536    10566371.404 6   8209698.020 6
  23300485.177    -9608486.434 6  -7349902.658 5
 94  2  2  1 35 30.0010000  0  7 27  2 15 13  7 19 26
  21182172.521     2627016.990 7   2060643.174 8
  21406310.685    -2553693.247 7  -1961123.757 9
  24357822.325    -3249298.956 5  -2452236.307 4
  25029533.896     -452735.842 5   -176305.729 1
  21319220.091   -14610317.137 7 -11228982.734 9
  23199047.646    10649575.515 6   8274532.394 6
  23293173.380    -9646916.359 6  -7379848.027 6
 94  2  2  1 36  0.0010000  0  7 27  2 15 13  7 19 26
  21191917.817     2678222.056 7   2100543.228 8
  21407561.091    -2547107.037 7  -1955991.623 9
  24354871.294    -3264837.490 5  -2464344.214 3
  25008014.442     -565776.353 5   -264389.095 1
  21311134.208   -14652794.541 7 -11262081.974 9
  23214930.060    10733031.441 6   8339562.981 6
  23285961.028    -9684831.909 6  -7409392.588 5
 94  2  2  1 36 30.0010000  0  7 27  2 15 13  7 19 26
  21201744.177     2729861.449 7   2140781.722 8
  21408851.521    -2540322.448 7  -1950704.905 9
  24352003.692    -3279887.965 5  -2476071.809 4
  24986522.724     -678756.711 5   -352425.561 1
  21303147.216   -14694766.337 7 -11294787.239 9
  23230856.966    10816748.407 6   8404796.988 6
  23278842.403    -9722238.908 6  -7438540.872 6
 94  2  2  1 37  0.0010000  0  7 27  2 15 13  7 19 26
  21211655.692     2781949.570 7   2181369.869 8
  21410184.450    -2533328.036 7  -1945254.693 9
  24349237.278    -3294433.423 5  -2487405.878 5
  24965027.560     -791658.428 4   -440400.731 2
  21295257.185   -14736217.229 7 -11327086.605 9
  23246840.450    10900761.263 6   8470261.554 5
  23271822.653    -9759131.007 6  -7467287.935 5
 94  2  2  1 37 30.0010000  0  7 27  2 15 13  7 19 26
  21221645.794     2834455.639 7   2222283.697 8
  21411549.856    -2526149.676 7  -1939661.151 9
  24346562.669    -3308493.635 5  -2498361.837 5
  24943564.380     -904500.721 5
  21287463.599   -14777188.203 7 -11359012.010 9
  23262884.208    10985049.644 6   8535940.806 6
  23264894.075    -9795541.780 6  -7495659.931 5
 94  2  2  1 38  0.0010000  0  7 27  2 15 13  7 19 26
  21231717.442     2887379.514 7   2263523.079 8
  21412952.122    -2518787.888 7  -1933924.660 9
  24343976.005    -3322056.869 5  -2508930.539 5
  24922100.489    -1017269.934 5
  21279755.286   -14817689.624 7 -11390571.526 9
  23278976.028    11069618.883 6   8601838.923 5
  23258052.771    -9831476.805 6  -7523661.220 6
 94  2  2  1 38 30.0010000  0  7 27  2 15 13  7 19 26
  21241864.677     2940708.649 7   2305078.252 8
  21414383.153    -2511253.256 7  -1928053.502 9
  24341490.317    -3335127.011 5  -2519115.028 5
  24900653.411    -1129968.895 4        -0.13811
  21272135.810   -14857739.070 7 -11421778.859 9
  23295123.028    11154456.824 6   8667946.418 6
  23251304.880    -9866946.609 6  -7551300.003 6
 94  2  2  1 39  0.0010000  0  7 27  2 15 13  7 19 26
  21252094.302     2994449.978 7   2346954.615 8
  21415851.130    -2503543.712 7  -1922046.040 9
  24339101.216    -3347698.257 5  -2528910.758 5
  24879216.028    -1242590.140 3    -87756.788 1
  21264598.435   -14897337.781 7 -11452634.958 9
  23311310.864    11239557.912 6   8734258.956 5
  23244644.286    -9901948.895 6  -7578574.475 6
 94  2  2  1 39 30.0010000  0  7 27  2 15 13  7 19 26
  21262399.317     3048609.066 7   2389156.511 8
  21417350.146    -2495657.382 7  -1915900.832 9
  24336803.075    -3359761.960 5  -2538311.009 5
  24857813.786    -1355123.772 3
  21257153.263   -14936465.335 7 -11483123.927 9
  23327556.645    11324909.530 6   8800766.717 5
  23238074.661    -9936460.920 6  -7605466.942 6
 94  2  2  1 40  0.0010000  0  7 27  2 15 13  7 19 26
  21272782.146     3103176.469 7   2431676.572 8
  21418882.700    -2487605.627 7  -1909626.716 9
  24334603.583    -3371329.004 5  -2547324.260 4
  24836412.849    -1467579.269 3        -0.23311
  21249800.786   -14975103.661 7 -11513231.690 9
  23343844.403    11410496.683 6   8867457.997 5
  23231602.645    -9970473.589 6  -7631970.281 6
 94  2  2  1 40 30.0010000  0  7 27  2 15 13  7 19 26
  21283250.544     3158184.717 7   2474540.152 8
  21420451.333    -2479371.724 7  -1903210.666 9
  24332497.310    -3382381.986 5  -2555936.924 5
  24815024.919    -1579937.630 3    -87552.110 1
  21242547.388   -15013219.513 7 -11542932.322 9
  23360180.708    11496342.101 6   8934350.537 5
  23225230.724   -10003956.614 6  -7658060.922 5
 94  2  2  1 41  0.0010000  0  7 27  2 15 13  7 19 26
  21293800.646     3213631.806 7   2517745.682 8
  21422050.474    -2470974.437 7  -1896667.300 9
  24330485.864    -3392933.109 5  -2564158.544 5
  24793664.294    -1692209.558 3   -175036.619 1
  21235393.622   -15050821.076 7 -11572232.220 9
  23376562.747    11582429.537 6   9001431.666 5
  23218959.747   -10036913.533 6  -7683741.617 5
 94  2  2  1 41 30.0010000  0  7 27  2 15 13  7 19 26
  21304440.310     3269531.523 7   2561303.911 8
  21423678.083    -2462410.049 7  -1889993.733 9
  24328578.231    -3402966.571 5  -2571976.795 5
  24772317.599    -1804377.928 4   -262440.440 1
  21228337.856   -15087890.592 7 -11601117.516 9
  23392989.528    11668775.767 5   9068714.439 5
  23212787.192   -10069333.643 6  -7709004.009 6
 94  2  2  1 42  0.0010000  0  7 27  2 15 13  7 19 26
  21315158.442     3325863.905 7   2605199.280 8
  21425339.810    -2453697.015 7  -1883204.335 9
  24326761.474    -3412502.252 5  -2579407.152 5
  24750992.825    -1916461.011 4   -349777.792 1
  21221379.044   -15124463.816 7 -11629616.100 9
  23409467.450    11755367.348 5   9136188.408 5
  23206713.896   -10101251.882 6  -7733875.348 6
 94  2  2  1 42 30.0010000  0  7 27  2 15 13  7 19 26
  21325960.888     3382625.456 7   2649429.069 8
  21427026.919    -2444829.365 7  -1876294.452 9
  24325051.474    -3421533.702 5  -2586444.594 5
  24729680.833    -2028450.586 5   -437042.234 1
  21214509.638   -15160559.226 7 -11657742.361 9
  23425999.575    11842217.971 5   9203864.218 5
  23200736.591   -10132679.723 6  -7758364.541 6
 94  2  2  1 43  0.0010000  0  7 27  2 15 13  7 19 26
  21336840.372     3439802.376 7   2693982.511 8
  21428744.872    -2435801.962 7  -1869260.092 9
  24323420.380    -3430057.051 5  -2593086.122 5
  24708387.161    -2140341.349 5   -524229.651 1
  21207730.646   -15196187.884 7 -11685504.917 9
  23442574.489    11929326.825 6   9271741.263 5
  23194843.294   -10163625.641 6  -7782478.219 6
 94  2  2  1 43 30.0010000  0  7 27  2 15 13  7 19 26
  21347800.411     3497393.597 7   2738858.792 8
  21430494.497    -2426594.665 7  -1862085.551 9
  24321901.731    -3438061.124 5  -2599323.026 4
  24687117.958    -2252120.185 5   -611329.823 1
  21201040.146   -15231341.048 7 -11712896.963 9
  23459202.591    12016715.192 5   9339836.096 5
  23189047.528   -10194088.120 6  -7806215.203 5
 94  2  2  1 44  0.0010000  0  7 27  2 15 13  7 19 26
  21358834.075     3555376.742 7   2784040.471 8
  21432280.224    -2417208.722 7  -1854771.810 9
  24320478.630    -3445561.438 5  -2605167.389 4
  24665865.216    -2363801.044 5   -698353.673 1
  21194437.661   -15266034.483 7 -11739930.777 9
  23475880.997    12104368.499 5   9408137.373 5
  23183341.528   -10224079.719 6  -7829585.256 6
 94  2  2  1 44 30.0010000  0  7 27  2 15 13  7 19 26
  21369944.966     3613768.758 7   2829540.747 8
  21434103.521    -2407630.843 7  -1847308.510 9
  24319142.036    -3452540.562 5  -2610605.611 5
  24644635.177    -2475364.838 5   -785286.296 1
  21187928.489   -15300242.315 7 -11766586.192 9
  23492614.528    12192286.043 5   9476644.544 5
  23177730.888   -10253569.892 6  -7852564.600 6
 94  2  2  1 45  0.0010000  0  7 27  2 15 13  7 19 26
  21381137.044     3672579.649 7   2875367.426 8
  21435962.075    -2397866.848 7  -1839700.183 9
  24317920.755    -3458998.164 5  -2615637.455 5
  24623428.786    -2586809.805 5   -872126.310 2
  21181511.583   -15333954.532 7 -11792855.414 9
  23509387.302    12280449.472 5   9545343.317 5
  23172220.028   -10282543.728 6  -7875141.594 6
 94  2  2  1 45 30.0010000  0  7 27  2 15 13  7 19 26
  21392407.333     3731808.554 7   2921519.820 8
  21437852.692    -2387923.111 7  -1831951.796 9
  24316793.771    -3464938.118 5  -2620265.947 5
  24602241.927    -2698138.026 5   -958875.343 1
  21175189.802   -15367167.401 7 -11818735.540 9
  23526213.083    12368851.548 5   9614228.051 5
  23166804.872   -10310995.750 6  -7897311.975 6
 94  2  2  1 46  0.0010000  0  7 27  2 15 13  7 19 26
  21403758.224     3791458.252 7   2968000.111 8
  21439775.067    -2377814.493 7  -1824074.928 9
  24315753.864    -3470360.672 5  -2624491.268 5
  24581073.942    -2809348.317 5  -1045532.521 1
  21168967.052   -15399890.625 7 -11844234.120 9
  23543075.489    12457473.673 5   9683284.254 5
  23161492.333   -10338922.831 6  -7919073.312 6
 94  2  2  1 46 30.0010000  0  7 27  2 15 13  7 19 26
  21415190.966     3851534.515 7   3014812.797 8
  21441728.317    -2367545.325 7  -1816072.964 9
  24314825.677    -3475257.827 5  -2628307.207 5
  24559942.849    -2920430.855 5  -1132090.190 1
  21162831.903   -15432124.122 7 -11869351.099 9
  23559982.302    12546317.687 5   9752513.371 5
  23156277.271   -10366319.642 6  -7940421.456 6
 94  2  2  1 47  0.0010000  0  7 27  2 15 13  7 19 26
  21426701.669     3912031.623 7   3061953.403 8
  21443715.474    -2357115.446 7  -1807945.759 9
  24313992.411    -3479633.181 5  -2631716.532 5
  24538831.856    -3031387.030 5  -1218549.356 1
  21156789.021   -15463874.762 7 -11894091.824 9
  23576935.739    12635405.806 5   9821932.692 5
  23151161.341   -10393205.293 6  -7961371.301 6
 94  2  2  1 47 30.0010000  0  7 27  2 15 13  7 19 26
  21438293.450     3972936.460 7   3109411.723 8
  21445731.028    -2346518.966 7  -1799688.744 9
  24313263.302    -3483488.796 5  -2634720.877 5
  24517726.669    -3142217.561 5  -1304910.695 2
  21150840.911   -15495142.352 7 -11918456.154 9
  23593935.458    12724749.903 5   9891551.469 5
  23146139.474   -10419591.278 6  -7981931.784 6
 94  2  2  1 48  0.0010000  0  7 27  2 15 13  7 19 26
  21449964.622     4034271.495 6   3157205.255 8
  21447784.630    -2335744.134 7  -1791292.746 9
  24312628.927    -3486806.650 5  -2637306.170 5
  24496680.200    -3252902.416 5  -1391158.542 1
  21144983.474   -15525912.600 7 -11942432.937 9
  23610995.950    12814375.538 5   9961389.629 5
  23141216.231   -10445453.070 6  -8002083.815 6
 94  2  2  1 48 30.0010000  0  7 27  2 15 13  7 19 26
  21461716.919     4096031.957 7   3205330.296 8
  21449865.200    -2324797.325 7  -1782762.739 9
  24312091.294    -3489601.403 5  -2639483.869 5
  24475638.583    -3363454.606 5  -1477302.997 1
  21139223.583   -15556186.779 7 -11966023.178 9
  23628097.810    12904278.239 5  10031443.678 5
  23136395.317   -10470799.509 6  -8021834.260 6
 94  2  2  1 49  0.0010000  0  7 27  2 15 13  7 19 26
  21473553.122     4158232.739 7   3253798.435 8
  21451984.700    -2313669.172 7  -1774091.430 9
  24311665.794    -3491867.821 5  -2641249.869 5
  24454627.239    -3473866.887 5  -1563338.456 1
  21133558.677   -15585956.629 7 -11989220.432 9
  23645261.552    12994468.764 5  10101721.997 5
  23131675.747   -10495611.054 6  -8041167.905 6
 94  2  2  1 49 30.0010000  0  7 27  2 15 13  7 19 26
  21485472.388     4220870.414 7   3302607.004 8
  21454136.106    -2302365.771 7  -1765283.560 9
  24311328.958    -3493610.501 5  -2642607.755 5
  24433646.263    -3584141.922 5  -1649266.978 1
  21127988.778   -15615232.613 7 -12012032.858 9
  23662469.505    13084920.489 5  10172203.872 5
  23127054.583   -10519878.524 6  -8060077.593 6
 94  2  2  1 50  0.0010000  0  7 27  2 15 13  7 19 26
  21497478.364     4283959.979 7   3351767.697 8
  21456318.771    -2290888.498 7  -1756340.222 9
  24311098.872    -3494821.000 5  -2643550.954 5
  24412674.911    -3694269.436 5  -1735080.559 1
  21122510.755   -15644012.163 7 -12034458.453 9
  23679732.552    13175616.145 5  10242875.802 5
  23122536.192   -10543595.113 6  -8078558.038 6
 94  2  2  1 50 30.0010000  0  7 27  2 15 13  7 19 26
  21509567.661     4347483.254 7   3401266.359 8
  21458536.231    -2279231.654 7  -1747256.941 9
  24310973.333    -3495503.811 5  -2644082.984 5
  24391756.817    -3804251.585 5  -1820780.861 1
  21117126.513   -15672299.648 7 -12056500.623 9
  23697038.747    13266536.218 5  10313722.618 5
  23118131.778   -10566776.926 6  -8096621.760 6
 94  2  2  1 51  0.0010000  0  7 27  2 15 13  7 19 26
  21521732.763     4411421.263 7   3451088.189 8
  21460787.333    -2267403.663 7  -1738040.303 9
  24310943.427    -3495655.623 5
  24370860.192    -3914083.578 5  -1906364.127 1
  21111839.356   -15700094.439 7 -12078158.864 9
  23714378.802    13357665.308 5  10384732.269 4
  23113819.778   -10589427.801 6  -8114271.765 6
 94  2  2  1 51 30.0010000  0  7 27  2 15 13  7 19 26
  21533976.458     4475757.152 7   3501220.051 8
  21463071.771    -2255407.188 7  -1728692.383 9
  24311018.177    -3495274.896 5
  24349983.239    -4023762.110 5  -1991827.845 2
  21106645.216   -15727384.317 7 -12099423.677 9
  23731754.942    13448990.655 5  10455894.882 5
  23109606.364   -10611562.465 6  -8131519.537 6
 94  2  2  1 52  0.0010000  0  7 27  2 15 13  7 19 26
  21546293.942     4540486.009 7   3551658.129 8
  21465384.380    -2243244.953 7  -1719215.301 9
  24311187.567    -3494357.779 5  -2643189.855 5
  24329144.349    -4133280.775 5  -2077167.000 2
  21101548.099   -15754166.552 7 -12120292.925 9
  23749176.724    13540530.045 5  10527224.265 5
  23105494.966   -10633181.229 6  -8148365.289 6
 94  2  2  1 52 30.0010000  0  7 27  2 15 13  7 19 26
  21558682.606     4605596.270 7   3602393.394 8
  21467727.583    -2230921.838 7  -1709612.855 9
  24311462.919    -3492906.733 5  -2642059.133 5
  24308331.052    -4242640.121 5  -2162381.963 3
  21096550.841   -15780433.729 7 -12140760.823 9
  23766640.372    13632304.925 5  10598737.152 5
  23101477.380   -10654284.964 6  -8164809.740 6
 94  2  2  1 53  0.0010000  0  7 27  2 15 13  7 19 26
  21571144.622     4671091.385 6   3653428.552 8
  21470102.067    -2218450.874 7  -1699895.194 9
  24311843.200    -3490921.390 5  -2640512.059 5
  24287551.685    -4351838.026 5  -2247471.126 2
  21091651.630   -15806178.702 7 -12160821.803 9
  23784150.302    13724323.700 5  10670440.081 4
  23097560.731   -10674875.443 6  -8180854.248 6
 94  2  2  1 53 30.0010000  0  7 27  2 15 13  7 19 26
  21583688.614     4736994.081 7   3704781.301 8
  21472505.591    -2205820.687 7  -1690053.474 9
  24312326.013    -3488396.978 5  -2638544.960 5
  24266806.263    -4460867.453 5  -2332428.982 1
  21086847.591   -15831408.762 7 -12180481.562 9
  23801710.536    13816625.957 5  10742363.914 5
  23093742.747   -10694951.947 6  -8196498.252 6
 94  2  2  1 54  0.0010000  0  7 27  2 15 13  7 19 26
  21596312.802     4803333.890 7   3756474.666 8
  21474943.396    -2193019.333 7  -1680078.369 9
  24312907.638    -3485321.756 5  -2636148.651 5
  24246092.817    -4569714.192 5  -2417244.592 2
  21082145.052   -15856124.273 7 -12199740.368 9
  23819336.575    13909232.515 5  10814524.854 5
  23090019.591   -10714496.814 6  -8211727.994 6
 94  2  2  1 54 30.0010000  0  7 27  2 15 13  7 19 26
  21609017.388     4870099.311 6   3808499.667 8
  21477410.263    -2180056.346 7  -1669977.316 9
  24313596.521    -3481707.644 5  -2633332.425 5
  24225413.700    -4678388.556 5  -2501925.789 2
  21077541.794   -15880330.938 7 -12218602.680 9
  23837015.138    14002118.214 5  10886903.323 5
  23086397.622   -10733528.030 6  -8226557.504 6
 94  2  2  1 55  0.0010000  0  7 27  2 15 13  7 19 26
  21621805.981     4937294.072 6   3860859.226 8
  21479906.731    -2166927.905 7  -1659747.347 9
  24314389.747    -3477561.293 5  -2630101.472 4
  24204759.200    -4786894.710 5  -2586475.928 2
  21073025.044   -15904051.839 7 -12237086.464 9
  23854735.302    14095264.289 5  10959484.688 4
  23082876.669   -10752050.386 6  -8240990.492 6
 94  2  2  1 55 30.0010000  0  7 27  2 15 13  7 19 26
  21634672.497     5004923.735 7   3913557.668 8
  21482440.349    -2153615.352 7  -1649373.906 9
  24315276.700    -3472874.801 5  -2626449.626 5
  24184143.513    -4895222.612 5  -2670887.200 2
  21068605.458   -15927290.909 7 -12255194.800 9
  23872515.231    14188666.419 5  11032265.555 5
  23079445.419   -10770049.376 6  -8255015.664 6
 94  2  2  1 56  0.0010000  0  7 27  2 15 13  7 19 26
  21647625.130     5072981.480 7   3966589.674 8
  21485006.927    -2140120.007 7  -1638858.035 9
  24316276.903    -3467641.539 5  -2622371.740 5
  24163570.060    -5003363.684 5  -2755152.901 1
  21064277.896   -15950032.362 7 -12272915.372 9
  23890330.216    14282288.451 5  11105217.781 4
  23076129.552   -10787507.143 6  -8268619.101 6
 94  2  2  1 56 30.0010000  0  7 27  2 15 13  7 19 26
  21660656.036     5141460.148 7   4019949.683 8
  21487612.364    -2126436.583 7  -1628195.601 9
  24317377.747    -3461853.841 5  -2617861.802 5
  24143024.888    -5111307.864 5  -2839265.138 1
  21060048.372   -15972266.642 7 -12290240.763 9
  23908181.122    14376122.011 5  11178334.834 4
  23072907.544   -10804423.872 6  -8281800.948 6
 94  2  2  1 57  0.0010000  0  7 27  2 15 13  7 19 26
  21673762.716     5210339.731 7   4073622.087 8
  21490246.192    -2112584.912 7  -1617402.073 9
  24318578.442    -3455531.031 5  -2612934.924 5
  24122514.153    -5219072.522 5  -2923237.530 1
  21055905.411   -15994014.947 7 -12307187.457 9
  23926072.497    14470145.438 5  11251599.844 4
  23069788.942   -10820808.966 6  -8294568.533 6
 94  2  2  1 57 30.0010000  0  7 27  2 15 13  7 19 26
  21686943.302     5279595.424 6   4127587.572 8
  21492911.489    -2098592.138 7  -1606498.597 9
  24319880.466    -3448681.227 5  -2607597.381 5
  24102046.341    -5326663.204 5  -3007074.362 1
  21051862.130   -16015279.575 7 -12323757.261 9
  23944002.388    14564346.689 5  11325003.412 3
  23066769.146   -10836670.045 6  -8306927.800 6
 94  2  2  1 58  0.0010000  0  7 27  2 15 13  7 19 26
  21700197.489     5349251.062 6   4181864.697 8
  21495602.919    -2084447.346 7  -1595476.655 9
  24321288.052    -3441282.105 5  -2601831.802 5
  24081620.075    -5434055.216 5  -3090756.368 2
  21047910.810   -16036036.199 7 -12339931.229 9
  23961963.825    14658740.719 5  11398557.187 4
  23063859.903   -10851991.455 6  -8318866.545 6
 94  2  2  1 58 30.0010000  0  7 27  2 15 13  7 19 26
  21713525.841     5419299.316 6   4236447.761 8
  21498323.528    -2070149.195 7  -1584335.216 9
  24322802.271    -3433338.859 5  -2595642.228 4
  24061208.583    -5541251.732 5  -3174286.035 2
  21044055.513   -16056292.552 7 -12355715.375 9
  23979967.130    14753338.160 5  11472269.469 4
  23061040.849   -10866785.743 6  -8330394.544 6
 94  2  2  1 59  0.0010000  0  7 27  2 15 13  7 19 26
  21726932.497     5489751.511 6   4291345.590 8
  21501073.114    -2055695.789 7  -1573072.805 9
  24324416.224    -3424851.193 5  -2589028.441 5
  24040851.349    -5648250.256 5  -3257661.407 1
  21040294.966   -16076044.151 7 -12371106.200 9
  23998009.091    14848162.125 5  11546158.286 4
  23058327.528   -10881046.682 6  -8341506.943 6
 94  2  2  1 59 30.0010000  0  7 27  2 15 13  7 19 26
  21740421.294     5560620.625 7   4346568.279 8
  21503856.036    -2041072.539 7  -1561678.033 9
  24326132.255    -3415807.386 5  -2581981.285 5
  24020533.521    -5755036.721 5  -3340871.546 2
  21036635.083   -16095279.007 7 -12386094.369 9
  24016102.333    14943221.979 5  11620230.872 4
  23055714.700   -10894767.376 6  -8352198.369 6
 94  2  2  2  0  0.0010000  0  7 27  2 15 13  7 19 26
  21753985.224     5631916.049 6   4402123.171 7
  21506671.060    -2026274.531 7  -1550147.098 9
  24327962.435    -3406215.444 5  -2574507.015 5
  24000245.341    -5861616.581 5  -3423920.706 2
  21033075.872   -16114001.870 7 -12400683.585 9
  24034231.450    15038509.980 5  11694481.283 4
  23053207.192   -10907958.248 6  -8362476.956 6
 94  2  2  2  0 30.0010000  0  7 27  2 15 13  7 19 26
  21767635.481     5703641.432 6   4458013.084 8
  21509521.388    -2011297.650 7  -1538476.782 9
  24329887.966    -3396074.282 5  -2566604.777 5
  23980010.021    -5967986.557 5  -3506806.305 3
  21029608.450   -16132219.291 7 -12414878.950 9
  24052413.411    15134047.945 5  11768926.436 4
  23050797.606   -10920610.415 6  -8372335.771 6
 94  2  2  2  1  0.0010000  0  7 27  2 15 13  7 19 26
  21781365.966     5775800.133 6   4514240.644 8
  21512404.255    -1996141.141 7  -1526666.498 9
  24331930.255    -3385385.990 5  -2558276.203 5
  23959809.489    -6074146.138 5  -3589527.925 3
  21026235.442   -16149937.086 7 -12428684.997 9
  24070635.458    15229830.536 5  11843562.222 3
  23048490.771   -10932726.182 6  -8381776.608 6
 94  2  2  2  1 30.0010000  0  7 27  2 15 13  7 19 26
  21795179.122     5848385.349 7   4570800.561 8
  21515323.958    -1980802.129 7  -1514714.006 9
  24334069.239    -3374139.605 5  -2549512.753 5
  23939647.075    -6180081.781 5  -3672075.122 2
  21022956.325   -16167159.214 7 -12442104.801 9
  24088908.903    15325843.182 5  11918377.248 4
  23046294.364   -10944293.282 6  -8390789.909 6
 94  2  2  2  2  0.0010000  0  7 27  2 15 13  7 19 26
  21809065.599     5921381.004 6   4627680.303 7
  21518271.786    -1965313.968 7  -1502645.288 9
  24336312.286    -3362346.778 5  -2540323.510 5
  23919529.114    -6285802.725 5  -3754454.986 3
  21019771.255   -16183904.061 7 -12455152.711 9
  24107220.247    15422089.789 5  11993374.592 4
  23044190.192   -10955322.262 6  -8399383.899 6
 94  2  2  2  2 30.0010000  0  7 27  2 15 13  7 19 26
  21823036.388     5994770.773 6   4684867.143 7
  21521247.169    -1949679.096 7  -1490462.253 9
  24338654.466    -3350007.038 5  -2530708.095 5
  23899456.153    -6391306.031 5  -3836665.267 2
  21016679.020   -16200169.343 7 -12467826.923 9
  24125584.427    15518573.648 5  12068556.813 2
  23042190.091   -10965816.981 6  -8407561.579 6
 94  2  2  2  3  0.0010000  0  7 27  2 15 13  7 19 26
  21837072.231     6068536.983 6   4742347.309 7
  21524248.349    -1933914.309 7  -1478177.975 9
  24341109.802    -3337126.737 5  -2520671.454 5
  23879418.825    -6496595.837 5  -3918709.169 4
  21013674.771   -16215943.835 7 -12480118.701 9
  24143989.716    15615278.416 5  12143911.166 4
  23040301.755   -10975785.107 6  -8415328.926 6
 94  2  2  2  3 30.0010000  0  7 27  2 15 13  7 19 26
  21851181.864     6142684.373 6   4800124.505 8
  21527273.489    -1918024.966 7  -1465796.648 9
  24343666.505    -3323693.035 5  -2510203.613 5
  23859428.364    -6601656.816 5  -4000574.789 4
  21010768.396   -16231200.978 7 -12492007.355 9
  24162430.817    15712218.105 5  12219448.579 4
  23038504.950   -10985207.786 6  -8422671.248 6
 94  2  2  2  4  0.0010000  0  7 27  2 15 13  7 19 26
  21865364.505     6217215.844 6   4858200.981 7
  21530321.380    -1902003.778 7  -1453312.591 9
  24346330.294    -3309708.516 5  -2499306.567 5
  23839468.294    -6706488.546 5  -4082261.790 2
  21007969.989   -16245921.286 7 -12503477.698 9
  24180922.614    15809391.957 5  12295168.453 2
  23036815.685   -10994091.239 6  -8429593.403 6
 94  2  2  2  4 30.0010000  0  7 27  2 15 13  7 19 26
  21879622.724     6292135.001 6   4916579.551 7
  21533401.989    -1885808.421 7  -1440692.816 9
  24349097.567    -3295162.768 5  -2487972.173 5
  23819575.997    -6811078.414 5  -4163760.317 3
  21005272.356   -16260092.256 7 -12514519.984 9
  24199458.474    15906783.090 5  12371057.636 4
  23035225.364   -11002424.186 6  -8436086.572 6
 94  2  2  2  5  0.0010000  0  7 27  2 15 13  7 19 26
  21893951.638     6367445.191 6   4975262.825 7
  21536516.747    -1869431.934 7  -1427931.903 9
  24351974.013    -3280052.818 5  -2476198.150 5
  23799719.106    -6915421.075 5  -4245066.221 2
  21002683.653   -16273721.403 7 -12525140.072 9
  24218028.833    16004389.349 5  12447114.467 3
  23033747.958   -11010190.409 6  -8442138.149 6
 94  2  2  2  5 30.0010000  0  7 27  2 15 13  7 19 26
  21908352.950     6443123.565 6   5034232.989 7
  21539668.013    -1852879.366 7  -1415033.791 9
  24354945.114    -3264402.961 5  -2464003.423 5
  23779901.880    -7019537.692 5  -4326195.992 3
  21000184.200   -16286851.664 7 -12535371.415 9
  24236639.927    16102169.099 5  12523306.475 4
  23032372.763   -11017418.723 6  -8447770.571 6
 94  2  2  2  6  0.0010000  0  7 27  2 15 13  7 19 26
  21922829.286     6519190.576 6   5093505.995 7
  21542859.028    -1836112.119 7  -1401968.390 9
  24358035.677    -3248201.162 5  -2451378.596 5
  23760132.450    -7123413.917 5  -4407138.443 3
  20997773.997   -16299497.211 7 -12545225.060 9
  24255282.271    16200126.458 5  12599636.885 4
  23031105.513   -11024108.835 6  -8452983.616 6
 94  2  2  2  6 30.0020000  0  7 27  2 15 13  7 19 26
  21937379.361     6595656.228 6   5153089.626 7
  21546090.900    -1819139.859 7
  24361218.729    -3231450.637 5
  23740409.658    -7227054.330 5  -4487897.137 4
  20995457.041   -16311678.851 7 -12554717.215 9
  24273961.682    16298277.632 5  12676118.313 4
  23029930.189   -11030268.071 6  -8457782.992 6
 94  2  2  2  7  0.0020000  0  7 27  2 15 13  7 19 26
  21952007.760     6672528.659 6   5212990.235 7
  21549350.939    -1801992.140 7  -1375381.342 9
  24364512.408    -3214151.691 5  -2424846.490 5
  23720741.549    -7330448.645 5  -4568464.092 4
  20993231.455   -16323385.737 7 -12563839.445 9
  24292669.955    16396623.325 5  12752751.311 4
  23028860.830   -11035905.174 6  -8462175.513 6
 94  2  2  2  7 30.0020000  0  7 27  2 15 13  7 19 26
  21966716.002     6749816.390 6   5273214.451 7
  21552645.424    -1784683.452 7  -1361894.043 9
  24367901.713    -3196305.049 5  -2410939.992 5
  23701106.549    -7433598.673 5  -4648840.684 3
  20991091.658   -16334603.535 7 -12572580.553 9
  24311425.307    16495165.837 5  12829537.647 3
  23027884.166   -11041033.085 6  -8466171.262 6
 94  2  2  2  8  0.0020000  0  7 27  2 15 13  7 19 26
  21981506.033     6827538.867 6   5333777.427 7
  21555967.275    -1767221.475 7  -1348287.286 9
  24371407.611    -3177897.062 5  -2396596.081 5
  23681532.127    -7536488.344 5  -4729014.391 4
  20989055.564   -16345307.667 7 -12580921.410 9
  24330214.088    16593932.498 5  12906498.677 4
  23027005.783   -11045632.080 6  -8469754.875 6
 94  2  2  2  8 30.0020000  0  7 27  2 15 13  7 19 26
  21996371.596     6905660.215 6   5394651.202 7
  21559310.869    -1749652.277 7  -1334596.989 9
  24375012.494    -3158951.614 5  -2381833.379 4
  23661998.557    -7639138.477 5  -4809001.456 4
  20987118.189   -16355503.729 7 -12588866.374 9
  24349052.963    16692895.046 4  12983612.326 4
  23026228.377   -11049717.126 6  -8472938.004 6
 94  2  2  2  9  0.0020000  0  7 27  2 15 13  7 19 26
  22011316.385     6984193.080 6   5455845.649 7
  21562682.252    -1731944.385 7  -1320798.626 9
  24378728.010    -3139443.471 5  -2366632.202 5
  23642514.314    -7741521.244 6  -4888780.168 2
  20985278.463   -16365161.862 7 -12596392.162 8
  24367916.682    16792062.076 4  13060885.330 3
  23025557.846   -11053247.184 6  -8475688.671 6
 94  2  2  2  9 30.0020000  0  7 27  2 15 13  7 19 26
  22026333.869     7063121.067 6   5517347.983 7
  21566078.002    -1714093.928 7  -1306889.164 9
  24382538.119    -3119382.651 5  -2351000.369 5
  23623078.908    -7843643.979 5  -4968356.284 3
  20983537.064   -16374315.146 7 -12603524.567 9
  24386830.877    16891430.358 4  13138315.173 4
  23024991.354   -11056228.878 6  -8478012.058 6
 94  2  2  2 10  0.0020000  0  7 27  2 15 13  7 19 26
  22041427.861     7142442.250 6   5579156.699 7
  21569506.932    -1696082.436 7  -1292854.206 9
  24386466.307    -3098761.496 5  -2334931.917 5
  23603703.963    -7945496.101 6  -5047721.533 4
  20981886.807   -16382978.739 7 -12610275.392 9
  24405772.979    16991002.875 4  13215904.114 2
  23024531.033   -11058663.182 6  -8479908.892 6
 94  2  2  2 10 30.0020000  0  7 27  2 15 13  7 19 26
  22056596.971     7222139.910 6   5641258.782 7
  21572964.361    -1677909.832 7  -1278693.719 9
  24390499.291    -3077589.692 5  -2318434.390 5
  23584363.041    -8047084.884 5  -5126881.559 5
  20980328.799   -16391162.935 7 -12616652.662 9
  24424769.564    17090780.570 5  13293652.970 2
  23024167.393   -11060571.780 6  -8481396.107 6
 94  2  2  2 11  0.0020000  0  7 27  2 15 13  7 19 26
  22071831.088     7302213.096 6   5703653.481 7
  21576451.854    -1659564.875 7  -1264398.930 9
  24394626.986    -3055868.188 5  -2301508.518 5
  23565085.893    -8148407.880 6  -5205834.513 4
  20978861.432   -16398881.750 7 -12622667.292 9
  24443793.932    17190773.695 5  13371569.694 2
  23023907.877   -11061953.276 6  -8482472.576 6
 94  2  2  2 11 30.0020000  0  7 27  2 15 13  7 19 26
  22087146.814     7382682.095 6   5766356.602 7
  21579978.971    -1641036.157 7  -1249960.949 9
  24398874.158    -3033579.573 5  -2284140.760 5
  23545864.268    -8249445.284 6  -5284564.905 4
  20977488.932   -16406110.842 7 -12628300.325 8
  24462867.916    17291008.599 5  13449674.805 3
  23023736.221   -11062799.846 6  -8483132.222 6
 94  2  2  2 12  0.0020000  0  7 27  2 15 13  7 19 26
  22102530.400     7463527.417 6   5829352.950 7
  21583540.369    -1622332.908 7  -1235386.974 9
  24403220.869    -3010732.733 5  -2266337.984 5
  23526681.947    -8350202.818 6  -5363077.236 4
  20976206.064   -16412839.156 7 -12633543.140 8
  24481980.689    17391468.990 5  13527955.625 3
  23023679.846   -11063113.047 6
 94  2  2  2 12 30.0020000  0  7 27  2 15 13  7 19 26
  22117983.275     7544745.274 6   5892639.592 7
  21587129.166    -1603464.381 7  -1220684.208 9
  24407671.361    -2987334.806 5  -2248105.817 5
  23507567.010    -8450684.923 6  -5441374.933 4
  20975025.025   -16419060.134 7 -12638390.638 8
  24501144.627    17492144.110 5  13606403.741 2
  23023727.838   -11062879.451 6
 94  2  2  2 13  0.0020000  0  7 27  2 15 13  7 19 26
  22133513.275     7626340.870 6   5956220.572 7
  21590751.932    -1584425.532 7  -1205848.716 9
  24412225.924    -2963378.474 5  -2229438.519 5
  23488502.775    -8550881.271 6  -5519449.972 5
  20973936.963   -16424772.863 7 -12642842.083 8
  24520341.455    17593014.084 5  13685003.730 2
  23023878.682   -11062082.877 6  -8482573.490 6
 94  2  2  2 13 30.0020000  0  7 27  2 15 13  7 19 26
  22149109.252     7708316.503 6   6020097.687 7
  21594408.018    -1565220.813 7  -1190883.981 9
  24416895.088    -2938861.471 5  -2210334.340 5
  23469485.158    -8650786.550 6  -5597298.215 4
  20972947.650   -16429968.456 7 -12646890.579 8
  24539567.314    17694068.285 4  13763747.268 2
  23024132.650   -11060734.462 6  -8481522.769 6
 94  2  2  2 14  0.0020000  0  7 27  2 15 13  7 19 26
  22164782.572     7790658.458 6   6084260.247 7
  21598091.814    -1545858.977 7  -1175796.824 9
  24421667.611    -2913793.134 5  -2190800.529 5
  23450533.424    -8750407.718 6  -5674925.053 3
  20972051.275   -16434675.965 7 -12650558.745 9
  24558831.822    17795282.402 5  13842615.396 1
  23024494.502   -11058850.479 6  -8480054.707 6
 94  2  2  2 14 30.0020000  0  7 27  2 15 13  7 19 26
  22180522.213     7873373.424 6   6148713.466 7
  21601804.721    -1526342.622 7  -1160589.253 9
  24426540.650    -2888172.913 5  -2170836.705 5
  23431631.603    -8849740.725 6  -5752327.355 4
  20971248.666   -16438902.713 7 -12653852.288 8
  24578119.197    17896660.589 4  13921611.403 2
  23024949.994   -11056435.837 6  -8478173.161 6
 94  2  2  2 15  0.0020000  0  7 27  2 15 13  7 19 26
  22196331.322     7956458.878 6   6213455.375 7
  21605544.338    -1506680.343 7  -1145267.985 9
  24431518.619    -2862008.610 5  -2150448.908 5
  23412780.229    -8948790.229 6  -5829508.738 5
  20970533.182   -16442658.190 7 -12656778.616 8
  24597446.018    17998203.173 4  14000735.457 3
  23025509.611   -11053518.048 6  -8475899.536 6
 94  2  2  2 15 30.0020000  0  7 27  2 15 13  7 19 26
  22212215.080     8039943.169 6   6278508.061 7
  21609320.768    -1486856.689 7  -1129820.962 9
  24436602.143    -2835283.107 5  -2129623.815 5
  23393984.752    -9047536.390 6  -5906453.756 5
  20969915.057   -16445918.564 7 -12659319.146 9
  24616803.018    18099942.030 4  14080012.489 3
  23026154.729   -11050087.082 6  -8473226.043 6
 94  2  2  2 16  0.0020000  0  7 27  2 15 13  7 19 26
  22228182.518     8123839.154 6   6343881.559 7
  21613122.260    -1466860.518 7  -1114239.509 9
  24441801.322    -2807989.622 5  -2108356.127 5
  23375261.072    -9145969.660 6  -5983154.939 5
  20969387.377   -16448674.214 7 -12661466.388 8
  24636204.244    18201891.400 4  14159453.559 1
  23026916.080   -11046127.347 6  -8470140.509 6
 94  2  2  2 16 30.0020000  0  7 27  2 15 13  7 19 26
  22244224.486     8208139.236 6   6409569.934 7
  21616960.361    -1446703.237 7  -1098532.524 9
  24447098.205    -2780140.389 5  -2086655.402 5
  23356581.557    -9244099.051 6  -6059619.341 5
  20968954.197   -16450925.158 7 -12663220.349 8
  24655643.174    18304047.443 3  14239055.647 1
  23027768.385   -11041643.334 6  -8466646.461 6
 94  2  2  2 17  0.0020000  0  7 27  2 15 13  7 19 26
  22260339.471     8292824.900 6   6475558.769 7
  21620824.549    -1426394.994 7  -1082707.906 9
  24452500.525    -2751745.986 5  -2064529.867 5
  23337967.666    -9341932.382 6  -6135853.047 5
  20968623.088   -16452681.280 7 -12664588.734 8
  24675115.330    18406388.986 3  14318802.307 2
  23028720.346   -11036638.643 6  -8462746.688 6
 94  2  2  2 17 30.0020000  0  7 27  2 15 13  7 19 26
  22276529.939     8377898.564 6   6541849.932 7
  21624720.041    -1405920.695 7  -1066753.889 9
  24458012.994    -2722795.089 5  -2041970.682 5
  23319409.541    -9439454.879 6  -6211844.549 5
  20968386.627   -16453944.175 7 -12665572.798 9
  24694632.166    18508919.775 3  14398696.421 1
  23029776.088   -11031079.336 6  -8458414.743 6
 94  2  2  2 18  0.0020000  0  7 27  2 15 13  7 19 26
  22292786.854     8463342.514 6   6608429.627 7
  21628649.268    -1385272.712 7  -1050664.536 9
  24463628.908    -2693284.218 5  -2018975.183 5
  23300909.572    -9536660.045 6  -6287588.768 5
  20968242.127   -16454717.104 7 -12666175.060 8
  24714166.510    18611632.572 3  14478732.361 3
  23030940.314   -11024954.548 6  -8453642.157 6
 94  2  2  2 18 30.0020000  0  7 27  2 15 13  7 19 26
  22309113.330     8549140.989 6   6675285.605 6
  21632612.603    -1364460.892 7  -1034447.520 9
  24469353.135    -2663215.503 5  -1995544.996 5
  23282473.197    -9633547.305 6  -6363085.283 5
  20968176.908   -16455008.653 7
  24733744.330    18714504.533 3  14558892.319 3
  23032212.854   -11018267.169 6  -8448431.193 6
 94  2  2  2 19  0.0020000  0  7 27  2 15 13  7 19 26
  22325510.064     8635293.612 6   6742417.521 7
  21636598.939    -1343494.316 7  -1018109.917 9
  24475183.189    -2632593.680 5  -1971683.828 5
  23264097.502    -9730117.914 6  -6438335.060 5
  20968218.432   -16454823.715 7
  24753353.564    18817524.797 3  14639167.840 2
  23033593.143   -11011016.396 6  -8442781.217 6
 94  2  2  2 19 30.0020000  0  7 27  2 15 13  7 19 26
  22341970.033     8721799.855 6   6809824.979 6
  21640619.330    -1322372.307 7  -1001651.190 9
  24481105.463    -2601423.902 5  -1947395.669 5
  23245775.955    -9826373.914 6  -6513339.658 5
  20968343.502   -16454160.173 7 -12665741.026 8
  24772982.650    18920690.147 3  14719556.395 4
  23035080.307   -11003218.562 6  -8436704.971 6
 94  2  2  2 20  0.0020000  0  7 27  2 15 13  7 19 26
  22358499.783     8808658.432 6   6877506.983 7
  21644670.174    -1301102.175 7   -985077.063 9
  24487139.416    -2569707.895 5  -1922681.882 5
  23227525.369    -9922313.674 6  -6588097.850 5
  20968565.393   -16452992.562 7 -12664831.180 8
  24792644.479    19024002.258 3  14800059.314 3
  23036663.432   -10994884.740 6  -8430211.063 6
 94  2  2  2 20 30.0020000  0  8 27  2 15 13  7 19  4 26
  22375095.408     8895876.693 6   6945469.270 6
  21648741.189    -1279690.055 7   -968392.274 9
  24493280.768    -2537452.051 5  -1897547.443 5
  23209326.502   -10017940.932 6  -6662612.536 5
  20968884.416   -16451317.731 7 -12663526.100 8
  24812334.244    19127474.839 3  14880687.316 4
  25239914.830          -0.86314
  23038344.705   -10986026.075 6  -8423308.199 6
 94  2  2  2 21  0.0020000  0  8 27  2 15 13  7 19  4 26
  22391768.033     8983478.892 6   7013730.727 6
  21652849.885    -1258109.723 7   -951576.419 9
  24499527.760    -2504641.335 5  -1871980.635 5
  23191193.463   -10113237.296 6  -6736869.401 5
  20969304.510   -16449118.546 7 -12661812.431 8
  24832065.635    19231150.378 3  14961473.435 3
  25222310.463      -92533.622 3
  23040135.002   -10976633.284 6  -8415989.121 6
 94  2  2  2 21 30.0020000  0  8 27  2 15 13  7 19  4 26
  22408509.564     9071450.352 6   7082279.925 6
  21656987.236    -1236352.065 7   -934622.383 9
  24505875.229    -2471273.220 5  -1845979.488 5
  23173119.838   -10208196.866 6  -6810863.804 5
  20969821.393   -16446400.381 7 -12659694.365 8
  24851840.830    19335043.306 4  15042428.910 2
  25204695.213     -185129.942 3
  23042025.135   -10966725.102 6  -8408268.447 6
 94  2  2  2 22  0.0020000  0  8 27  2 15 13  7 19  4 26
  22425314.924     9159782.912 6   7151110.495 6
  21661159.705    -1214432.954 7   -917542.548 9
  24512332.361    -2437360.384 5  -1819553.872 5
  23155114.002   -10302829.482 6  -6884603.463 5
  20970431.158   -16443190.216 7 -12657192.919 8
  24871644.447    19439145.386 3  15123547.415 3
  25187047.127     -277792.443 3        -0.14512
  23044000.260   -10956317.805 6  -8400158.846 6
 94  2  2  2 22 30.0020000  0  8 27  2 15 13  7 19  4 26
  22442194.955     9248483.255 6   7220227.647 7
  21665366.588    -1192327.481 7   -900317.493 9
  24518891.869    -2402892.705 5  -1792695.923 5
  23137169.064   -10397121.478 6  -6958077.686 5
  20971132.572   -16439505.050 7 -12654321.340 8
  24891497.119    19543454.884 4  15204827.551 2
  25169422.885     -370526.294 3    -72260.168 2
  23046081.033   -10945412.070 6  -8391660.859 6
 94  2  2  2 23  0.0020000  0  8 27  2 15 13  7 19  4 26
  22459141.971     9337541.404 6   7289623.596 7
  21669606.080    -1170039.016 7   -882949.848 9
  24525554.791    -2367872.838 5  -1765407.697 5
  23119290.674   -10491072.109 6  -7031285.920 5
  20971922.158   -16435357.598 7 -12651089.539 8
  24911375.666    19647943.530 4  15286247.278 2
  25151755.611     -463344.528 3   -144585.959 1
  23048249.580   -10934005.035 6  -8382772.252 6
 94  2  2  2 23 30.0020000  0  8 27  2 15 13  7 19  4 26
  22476159.408     9426957.256 6   7359298.292 6
  21673885.064    -1147569.415 7   -865441.054 9
  24532321.721    -2332299.782 5  -1737688.413 4
  23101477.971   -10584677.379 6  -7104225.045 5
  20972798.088   -16430736.477 7 -12647488.650 8
  24931289.752    19752592.504 4  15367791.923 2
  25134050.432     -556240.858 2   -216972.594 2
  23050514.807   -10922084.545 6  -8373483.543 6
 94  2  2  2 24  0.0020000  0  8 27  2 15 13  7 19  4 26
  22493239.611     9516725.116 6   7429247.268 6
  21678191.299    -1124926.979 7   -847797.582 9
  24539190.299    -2296186.513 5  -1709548.198 5
  23083731.299   -10677946.858 6
  20973774.080   -16425646.440 7 -12643522.377 8
  24951229.885    19857369.987 4  15449436.697 2
  25116365.963     -649229.887 3
  23052882.932   -10909636.537 6  -8363783.782 6
 94  2  2  2 24 30.0020000  0  8 27  2 15 13  7 19  4 26
  22510385.533     9606829.725 6   7499458.654 6
  21682533.143    -1102121.708 7   -830027.226 9
  24546163.205    -2259538.324 5  -1680991.137 5
  23066046.283   -10770882.805 6  -7249320.080 5
  20974830.260   -16420081.229 7 -12639185.832 8
  24971189.314    19962268.111 3  15531175.482 1
  25098667.299          -0.19713   -362096.029 4
  23055358.760   -10896651.633 6  -8353665.662 6
 94  2  2  2 25  0.0020000  0  8 27  2 15 13  7 19  4 26
  22527603.369     9697304.797 6   7569958.705 6
  21686901.713    -1079153.223 7   -812129.696 9
  24553247.439    -2222337.357 5  -1652003.352 5
  23048429.314   -10863463.742 6  -7321461.031 5
  20975982.229   -16414010.383 7 -12634455.281 8
  24991183.252    20067317.723 3  15613032.304 2
  25080939.314      -93164.500 3   -434691.472 2
  23057937.705   -10883105.269 6  -8343110.049 6
 94  2  2  2 25 30.0020000  0  8 27  2 15 13  7 19  4 26
  22544890.104     9788141.276 6   7640740.377 6
  21691301.744    -1056033.586 7   -794114.381 9
  24560430.275    -2184592.506 5  -1622591.762 4
  23030878.721   -10955695.585 6  -7393329.952 5
  20977233.455   -16407448.774 7 -12629342.322 8
  25011199.275    20172525.413 3  15695012.315 1
  25063196.955     -186405.023 3   -507346.329 3
  23060615.213   -10869025.034 6  -8332138.433 6
 94  2  2  2 26  0.0020000  0  8 27  2 15 13  7 19  4 26
  22562243.557     9879335.548 6   7711800.842 6
  21695731.025    -1032768.575 7   -775985.791 9
  24567715.338    -2146302.575 5  -1592755.440 5
  23013393.783   -11047574.025 6  -7464923.501 5
  20978567.252   -16400414.399 7 -12623860.974 8
  25031253.963    20277899.027 3  15777121.595 1
  25045438.189     -279713.126 3   -580053.850 3
  23063393.096   -10854423.255 6  -8320760.413 6
 94  2  2  2 26 30.0020000  0  8 27  2 15 13  7 19  4 26
  22579665.752     9970902.219 6   7783151.491 6
  21700183.947    -1009366.514 7   -757750.408 9
  24575104.541    -2107458.077 5  -1562486.988 5
  22995980.463   -11139085.788 6  -7536231.315 5
  20979999.377   -16392902.274 7 -12618007.350 8
  25051349.650    20383456.451 4  15859374.122 2
  25027662.533     -373056.360 4   -652788.736 3
  23066267.158   -10839305.900 6  -8308980.655 6
 94  2  2  2 27  0.0020000  0  8 27  2 15 13  7 19  4 26
  22597162.760    10062836.315 6   7854788.448 6
  21704660.697     -985825.705 7   -739406.908 9
  24582603.658    -2068066.828 5  -1531792.503 4
  22978630.752   -11230235.799 6  -7607257.268 5
  20981517.939   -16384933.567 7 -12611797.960 8
  25071457.361    20489185.386 4  15941760.319 1
  25009897.189     -466425.448 4   -725543.785 3
  23069239.814   -10823689.003 6  -8296811.629 6
 94  2  2  2 27 30.0020000  0  8 27  2 15 13  7 19  4 26
  22614720.502    10155115.495 6   7926694.310 6
  21709169.346     -962143.933 7   -720953.571 9
  24590200.619    -2028134.965 5  -1500676.752 4
  22961358.033   -11321026.298 6  -7678003.044 5
  20983119.541   -16376510.228 7 -12605234.305 8
  25091614.924    20595073.556 3  16024270.561 2
  24992130.588     -559818.331 4   -798317.404 3
  23072308.166   -10807567.453 6  -8284249.385 6
 94  2  2  2 28  0.0020000  0  8 27  2 15 13  7 19  4 26
  22632350.018    10247757.493 6   7998882.877 6
  21713708.611     -938295.495 7   -702370.361 9
  24597901.650    -1987648.157 5  -1469128.575 4
  22944156.135   -11411439.976 6  -7748455.243 5
  20984813.205   -16367598.860 7 -12598290.362 8
  25111785.549    20701120.366 3  16106904.435 2
  24974354.041     -653223.706 4   -871100.709 2
  23075480.104   -10790903.449 6  -8271264.436 6
 94  2  2  2 28 30.0020000  0  8 27  2 15 13  7 19  4 26
  22650049.572    10340761.490 6   8071353.520 6
  21718278.424     -914264.867 7   -683645.184 9
  24605709.853    -1946611.173 5  -1437151.703 4
  22927016.979   -11501477.845 6  -7818614.589 5
  20986607.064   -16358194.273 7 -12590962.095 8
  25132003.314    20807314.498 3  16189653.105 1
  24956572.736     -746663.524 4   -943910.889 2
  23078756.064   -10773699.161 6  -8257858.488 6
 94  2  2  2 29  0.0020000  0  8 27  2 15 13  7 19  4 26
  22667812.650    10434114.279 6   8144095.957 6
  21722887.611     -890045.126 7   -664772.653 9
  24613630.783    -1905032.516 5  -1404752.735 3
  22909949.986   -11591145.308 6  -7888485.293 5
  20988485.033   -16348302.490 7 -12583254.200 8
  25152235.307    20913646.713 3  16272509.344 1
  24938788.228     -840165.032 4  -1016769.135 2
  23082135.643   -10755958.529 6  -8244034.619 6
 94  2  2  2 29 30.0020000  0  8 27  2 15 13  7 19  4 26
  22685639.728    10527810.103 6   8217105.692 6
  21727532.814     -865641.552 7   -645756.876 9
  24621640.846    -1862910.017 5  -1371929.987 5
  22892962.135   -11680436.532 6  -7958062.820 5
  20990461.971   -16337910.494 7 -12575156.527 8
  25172499.197    21020124.811 3  16355479.261 1
  24920985.518     -933733.390 4  -1089679.456 3
  23085612.822   -10737673.705 6  -8229786.708 6
 94  2  2  2 30  0.0020000  0  8 27  2 15 13  7 19  4 26
  22703537.393    10621839.441 6   8290375.298 6
  21732210.721     -841055.051 7   -626598.551 9
  24629762.697    -1820250.632 5  -1338688.914 5
  22876040.322   -11769355.188 6  -8027350.037 5
  20992531.650   -16327042.463 7 -12566687.917 8
  25192782.604    21126742.003 3  16438557.585 1
  24903160.908    -1027366.586 4  -1162640.300 1
  23089190.314   -10718859.692 6  -8215126.436 6
 94  2  2  2 30 30.0020000  0  8 27  2 15 13  7 19  4 26
  22721494.189    10716202.727 6   8363905.137 6
  21736920.291     -816292.798 7   -607303.279 9
  24637983.728    -1777046.679 5  -1305023.487 4
  22859194.361   -11857890.200 6  -8096338.331 6
  20994693.619   -16315710.287 7 -12557857.638 8
  25213104.736    21233513.216 3  16521755.946 1
  24885335.197    -1121030.542 3  -1235625.162 1
  23092867.713   -10699520.838 6  -8200057.188 6
 94  2  2  2 31  0.0020000  0  8 27  2 15 13  7 19  4 26
  22739511.354    10810880.667 6   8437680.151 6
  21741666.197     -791384.482 7   -587894.191 9
  24646302.479    -1733306.763 5  -1270940.410 4
  22842417.018   -11946046.841 6  -8165031.771 5
  20996929.330   -16303922.340 7 -12548672.210 8
  25233450.994    21340438.723 2  16605074.462 1
  24867503.877    -1214709.039 4  -1308621.347 1
  23096647.229   -10679656.560 6  -8184578.533 6
 94  2  2  2 31 30.0020000  0  8 27  2 15 13  7 19  4 26
  22757578.299    10905861.188 6   8511690.947 6
  21746429.416     -766329.204 7   -568370.589 9
  24654729.736    -1689040.936 5  -1236447.543 3
  22825714.541   -12033831.571 6  -8233435.420 5
  20999261.721   -16291687.538 7 -12539138.589 8
  25253824.088    21447506.717 3  16688504.133 1
  24849683.908    -1308393.521 4  -1381622.206 1
  23100527.994   -10659275.590 6  -8168697.246 6
 94  2  2  2 32  0.0020000  0  8 27  2 15 13  7 19  4 26
  22775721.322    11001167.277 6   8585955.428 6
  21751227.385     -741114.765 7   -548722.963 9
  24663249.439    -1644243.868 5  -1201540.721 4
  22809083.244   -12121235.413 6  -8301542.268 6
  21001677.658   -16279002.820 7 -12529254.385 8
  25274218.549    21554718.388 2  16772045.642 1
  24831850.127    -1402075.409 3  -1454621.047 1
  23104499.268   -10638385.502 6  -8152419.245 6
 94  2  2  2 32 30.0020000  0  8 27  2 15 13  7  9  4 26
  22793919.619    11096804.768 6   8660478.141 6
  21756051.955     -715756.994 7   -528963.652 9
  24671875.143    -1598920.227 5  -1166223.594 4
  22792524.502   -12208259.845 6  -8369353.470 5
  21004178.893   -16265857.405 7 -12519011.185 8
  25220703.721          -0.72413
  24814029.971    -1495772.433 3  -1527631.671 1
  23108576.205   -10616993.115 6  -8135749.842 6
 94  2  2  2 33  0.0020000  0  8 27  2 15 13  7  9  4 26
  22812188.010    11192788.549 6   8735270.706 6
  21760915.486     -690222.041 7   -509066.276 9
  24680606.033    -1553051.661 5  -1130481.844 5
  22776038.955   -12294882.687 6  -8436851.745 6
  21006769.846   -16252219.005 7 -12508383.835 8
  25203101.643      -92490.006 3
  24796198.104    -1589481.797 3  -1600651.930 2
  23112743.088   -10595075.598 6  -8118671.258 6
 94  2  2  2 33 30.0020000  0  8 27  2 15 13  7  9  4 26
  22830510.322    11289099.861 6   8810318.473 6
  21765803.111     -664518.581 7   -489037.603 9
  24689435.549    -1506655.082 5  -1094328.659 5
  22759623.166   -12381117.685 6  -8504047.818 5
  21009457.025   -16238111.331 7 -12497390.843 8
  25185512.643     -184934.559 4        -0.22411
  24778345.369    -1683222.057 3  -1673696.241 2
  23117005.330   -10572660.222 6  -8101204.723 6
 94  2  2  2 34  0.0020000  0  8 27  2 15 13  7  9  4 26
  22848895.455    11385719.324 6   8885606.357 6
  21770726.369     -638665.253 7   -468892.142 9
  24698364.689    -1459736.641 5  -1057768.835 4
  22743291.939   -12466967.488 6  -8570943.734 5
  21012224.557   -16223547.850 7 -12486042.666 8
  25167927.353     -277327.729 3    -71994.871 2
  24760502.275    -1777008.733 4  -1746776.713 3
  23121368.463   -10549754.913 6  -8083356.426 6
 94  2  2  2 34 30.0020000  0  8 27  2 15 13  7  9  4 26
  22867338.908    11482639.109 6   8961128.271 6
  21775675.463     -612653.300 7   -448623.082 9
  24707395.064    -1412286.017 5  -1020794.309 5
  22727031.807   -12552418.336 6  -8637528.765 6
  21015087.619   -16208513.546 7 -12474327.610 8
  25150357.674     -369667.980 3   -143948.213 2
  24742650.158    -1870832.034 4  -1819885.725 4
  23125826.822   -10526338.376 6  -8065109.756 6
 94  2  2  2 35  0.0020000  0  8 27  2 15 13  7  9  4 26
  22885842.088    11579857.375 6   9036882.751 6
  21780661.924     -586462.669 7   -428214.800 9
  24716525.924    -1364295.590 5   -983399.152 5
  22710844.088   -12637458.796 6  -8703794.032 6
  21018035.682   -16193010.886 7 -12462247.602 8
  25132795.908     -461965.831 4   -215868.515 2
  24724794.213    -1964672.228 4  -1893007.950 3
  23130377.908   -10502406.137 6  -8046461.257 6
 94  2  2  2 35 30.0020000  0  8 27  2 15 13  7  9  4 26
  22904403.330    11677402.615 6   9112892.032 6
  21785678.447     -560086.514 7   -407661.937 9
  24725757.291    -1315758.475 5   -945578.037 4
  22694744.314   -12722078.685 6  -8769731.571 6
  21021074.057   -16177048.549 7 -12449809.406 8
  25115239.994     -554224.659 4   -287758.423 1
  24706934.275    -2058516.686 5  -1966133.462 4
  23135029.674   -10477963.925 6  -8027415.371 6
 94  2  2  2 36  0.0020000  0  8 27  2 15 13  7  9  4 26
  22923024.064    11775265.538 6   9189148.839 6
  21790723.486     -533556.201 7   -386988.960 9
  24735096.377    -1266704.215 5   -907353.929 3
  22678718.994   -12806304.044 6  -8835361.682 5
  21024197.728   -16160648.220 7 -12437029.918 8
  25097689.135     -646475.978 5   -359642.509 2
  24689073.166    -2152384.213 5  -2039276.979 4
  23139773.252   -10453046.012 6  -8007998.801 6
 94  2  2  2 36 30.0020000  0  8 27  2 15 13  7  9  4 26
  22941711.689    11873473.565 6   9265674.570 6
  21795808.908     -506853.898 7   -366181.962 9
  24744530.580    -1217129.256 5   -868724.080 4
  22662763.510   -12890127.555 6  -8900678.675 5
  21027401.361   -16143798.053 7 -12423899.904 8
  25080140.768     -738722.005 4   -431522.433 2
  24671214.111    -2246247.701 5  -2112417.285 4
  23144601.979   -10427649.915 6  -7988209.633 6
 94  2  2  2 37  0.0020000  0  8 27  2 15 13  7  9  4 26
  22960470.900    11972030.790 6   9342472.405 6
  21800923.604     -479978.291 7   -345239.921 9
  24754063.361    -1167035.568 5   -829690.037 4
  22646893.564   -12973547.834 6  -8965681.464 5
  21030691.197   -16126501.905 7 -12410422.373 8
  25062590.799     -830942.611 4   -503382.586 1
  24653348.979    -2340092.791 4  -2185543.291 5
  23149527.564   -10401773.684 6  -7968046.333 6
 94  2  2  2 37 30.0020000  0  8 27  2 15 13  7  9  4 26
  22979291.439    12070942.296 6   9419546.306 6
  21806071.447     -452923.722 7   -324158.434 9
  24763693.877    -1116412.394 5   -790243.391 5
  22631100.408   -13056550.402 6  -9030358.766 6
  21034073.666   -16108738.007 7 -12396580.362 8
  25045045.338     -923115.878 3   -575205.821 3
  24635506.213    -2433906.931 5  -2258645.163 5
  23154549.049   -10375396.895 6  -7947492.983 6
 94  2  2  2 38  0.0020000  0  8 27  2 15 13  7  9  4 26
  22998180.143    12170189.556 6   9496881.829 6
  21811247.674     -425712.693 7
  24773429.111    -1065268.829 5   -750391.264 3
  22615380.213   -13139140.633 6  -9094714.766 6
  21037544.791   -16090490.211 7 -12382361.294 8
  25027514.760    -1015244.886 4   -646994.536 4
  24617653.518    -2527699.581 4  -2331730.278 4
  23159665.893   -10348512.950 6
 94  2  2  2 38 30.0020000  0  8 27  2 15 13  7  9  4 26
  23017124.455    12269765.076 6   9574473.144 6
  21816456.502     -398333.853 7   -281620.861 9
  24783260.689    -1013593.562 5   -710124.803 5
  22599744.807   -13221303.474 6  -9158737.731 6
  21041115.721   -16071748.120 7 -12367757.058 8
  25009994.041    -1107317.563 4   -718739.438 2
  24599805.807    -2621468.021 3  -2404796.523 3
  23164878.854   -10321100.055 6  -7905183.752 6
 94  2  2  2 39  0.0020000  0  8 27  2 15 13  7  9  4 26
  23036132.338    12369643.918 6   9652300.789 6
  21821697.275     -370818.719 7   -260180.492 9
  24793188.455     -961405.331 5   -669458.643 4
  22584188.377   -13303054.800 6  -9222440.040 6
  21044767.775   -16052542.608 7 -12352791.712 8
  24992477.588    -1199341.191 4   -790446.053 2
  24581967.150    -2715243.775 4  -2477868.462 2
  23170191.088   -10293186.125 6  -7883432.641 6
 94  2  2  2 39 30.0020000  0  8 27  2 15 13  7  9  4 26
  23055197.244    12469820.681 6   9730360.607 6
  21826955.150     -343177.767 7   -238642.079 9
  24803220.814     -908716.934 5   -628402.742 4
  22568709.127   -13384403.719 6  -9285828.781 6
  21048505.291   -16032891.292 7 -12337478.980 8
  24974971.666    -1291337.869 3   -862131.719 1
  24564121.643    -2809038.267 5  -2550955.015 3
  23175597.525   -10264793.955 6  -7861308.871 6
 94  2  2  2 40  0.0020000  0  8 27  2 15 13  7  9  4 26
  23074318.221    12570323.206 6   9808674.252 6
  21832245.478     -315382.409 7   -216983.345 9
  24813344.229     -855506.409 5   -586940.007 3
  22553309.611   -13465324.307 6  -9348883.753 6
  21052332.111   -16012779.357 7 -12321807.340 8
  24957475.588    -1383275.559 4   -933771.368 2
  24546274.432    -2902820.931 5  -2624032.345 2
  23181091.057   -10235905.177 6  -7838798.139 6
 94  2  2  2 40 30.0020000  0  8 27  2 15 13  7  9  4 26
  23093504.432    12671137.961 6   9887231.201 5
  21837572.752     -287392.879 7   -195173.315 9
  24823572.822     -801768.255 5   -545066.102 3
  22537994.791   -13545807.299 6  -9411597.741 6
  21056240.705   -15992232.461 7 -12305796.763 8
  24939995.299    -1475142.165 4  -1005355.693 2
  24528432.353    -2996577.623 5  -2697089.433 2
  23186681.572   -10206516.643 6  -7815897.975 6
 94  2  2  2 41  0.0020000  0  8 27  2 15 13  7  9  4 26
  23112741.135    12772238.271 6   9966010.649 5
  21842928.479     -259222.587 7   -173222.435 9
  24833891.674     -747527.672 5   -502800.714 4
  22522760.416   -13625874.291 6  -9473987.578 6
  21060234.705   -15971278.321 7 -12289468.851 8
  24922526.939    -1566965.529 5  -1076906.303 3
  24510585.557    -3090326.621 5  -2770140.541 4
  23192367.635   -10176655.505 6  -7792629.559 6
 94  2  2  2 41 30.0020000  0  8 27  2 15 13  7  9  4 26
  23132038.432    12873632.354 6  10045019.029 5
  21848331.283     -230844.187 7   -151109.385 9
  24844317.830     -692760.371 5   -460124.878 5
  22507604.447   -13705497.076 6  -9536031.273 6
  21064302.564   -15949881.939 7 -12272796.332 8
  24905066.033    -1658731.920 4  -1148412.486 2
  24492755.158    -3184042.199 5  -2843165.595 2
  23198145.283   -10146287.083 6  -7768965.855 6
 94  2  2  2 42  0.0020000  0  8 27  2 15 13  7  9  4 26
  23151385.721    12975296.692 6  10124237.989 5
  21853766.510     -202263.870 7   -128839.004 9
  24854832.119     -637479.620 5   -417048.967 4
  22492535.713   -13784685.832 6  -9597736.763 6
  21068459.393   -15928060.313 7 -12255792.457 8
  24887610.346    -1750441.514 5  -1219874.417 2
  24474928.049    -3277736.991 5  -2916174.490 2
  23204019.791   -10115427.317 6  -7744919.280 6
 94  2  2  2 42 30.0020000  0  8 27  2 15 13  7  9  4 26
  23170776.400    13077217.961 6  10203657.155 5
  21859239.072     -173501.413 7   -106426.689 9
  24865448.525     -581696.158 5   -373581.337 4
  22477547.916   -13863447.751 6  -9659109.663 6
  21072686.189   -15905824.181 7 -12238465.590 8
  24870162.666    -1842105.701 5  -1291301.028 2
  24457097.471    -3371420.615 4  -2989174.676 2
  23209986.697   -10084096.821 6  -7720505.904 6
 94  2  2  2 43  0.0020000  0  8 27  2 15 13  7  9  4 26
  23190228.682    13179427.963 6  10283301.286 5
  21864747.768     -144572.000 7    -83884.295 9
  24876163.916     -525398.399 5   -329712.920 4
  22462647.221   -13941767.813 6  -9720138.258 6
  21077001.643   -15883145.512 7 -12220793.887 8
  24852736.057    -1933710.711 5  -1362681.527 3
  24439282.361    -3465072.546 4  -3062150.113 4
  23216035.283   -10052286.882 6  -7695718.946 6
 94  2  2  2 43 30.0020000  0  8 27  2 15 13  7  9  4 26
  23209733.947    13281945.308 5  10363184.920 5
  21870281.119     -115479.145 7    -61214.532 9
  24886968.455     -468589.327 5   -285446.125 4
  22447825.877   -14019645.031 6  -9780821.777 6
  21081402.314   -15860023.481 7 -12202776.706 8
  24835320.018    -2025242.797 4  -1434005.180 1
  24421464.494    -3558689.045 5  -3135098.007 3
  23222180.979   -10019995.997 6  -7670557.221 6
 94  2  2  2 44  0.0020000  0  8 27  2 15 13  7  9  4 26
  23229307.377    13384785.188 5  10443319.880 5
  21875848.307      -86227.024 7    -38420.653 9
  24897876.244     -411271.105 5   -240782.568 5
  22433088.080   -14097078.064 6  -9841159.172 6
  21085888.619   -15836459.676 7 -12184415.287 8
  24817912.799    -2116687.205 5  -1505260.507 2
  24403661.830    -3652249.875 5  -3208002.511 4
  23228416.432    -9987230.704 6  -7645025.811 6
 94  2  2  2 44 30.0020000  0  8 27  2 15 13  7  9  4 26
  23248938.854    13487949.410 6  10523707.576 5
  21881444.854      -56832.207 7    -15515.601 9
  24908875.479     -353451.298 4   -195728.161 4
  22418442.713   -14174070.629 6  -9901153.349 6
  21090453.291   -15812454.019 7 -12165709.569 8
  24800525.666    -2208061.287 5  -1576461.037 3
  24385867.588    -3745755.259 5  -3280863.831 2
  23234740.096    -9953982.289 6  -7619117.961 6
 94  2  2  2 45  0.0020000  0  8 27  2 15 13  7  9  4 26
  23268629.377    13591450.332 6  10604357.642 5
  21887068.205      -27285.918 7      7507.482 9
  24919980.486     -295124.060 5   -150278.369 4
  22403876.346   -14250613.246 6  -9960796.923 6
  21095107.572   -15787994.705 7 -12146650.356 8
  24783156.338    -2299354.617 5  -1647598.633 2
  24368087.400    -3839185.417 5  -3353666.510 4
  23241160.939    -9920236.044 6  -7592822.186 6
 94  2  2  2 45 30.0020000  0  8 27  2 15 13  7  9  4 26
  23288390.236    13695271.875 5  10685257.542 5
  21892715.838        2414.588 7     30650.737 9
  24931175.361     -236288.774 5   -104432.665 3
  22389393.353   -14326701.836 6 -10020086.706 6
  21099850.689   -15763086.181 7 -12127241.107 8
  24765792.549    -2390561.141 5  -1718668.603 2
  24350323.377    -3932545.640 5  -3426414.717 5
  23247676.814    -9886004.894 6  -7566148.560 6
 94  2  2  2 46  0.0020000  0  8 27  2 15 13  7  9  4 26
  23308201.088    13799377.806 5  10766379.026 5
  21898399.525       32258.055 7     53905.400 9
  24942467.525     -176955.079 5    -58198.625 3
  22374997.885   -14402342.443 6 -10079027.423 6
  21104670.861   -15737745.103 7 -12107494.806 8
  24748454.025    -2481693.375 5  -1789680.705 3
  24332571.025    -4025836.259 5  -3499108.671 4
  23254280.064    -9851303.307 6  -7539108.359 6
 94  2  2  2 46 30.0020000  0  8 27  2 15 13  7  9  4 26
  23328071.338    13903759.781 6  10847715.617 5
  21904110.244       62273.267 7     77293.875 9
  24953853.627     -117115.026 5    -11569.981 4
  22360695.260   -14477523.240 6 -10137609.835 6
  21109572.666   -15711972.862 7 -12087412.516 8
  24731128.463    -2572752.840 5  -1860636.069 4
  24314828.955    -4119058.394 5  -3571749.251 4
  23260973.729    -9816124.137 6  -7511696.021 6
 94  2  2  2 47  0.0020000  0  8 27  2 15 13  7  9  4 26
  23347975.682    14008399.405 5  10929252.973 5
  21909851.447       92466.096 7    100820.765 9
  24965338.213      -56774.886 5     35448.305 4
  22346476.549   -14552246.766 6 -10195835.942 6
  21114562.189   -15685775.536 7 -12066999.022 8
  24713819.135    -2663733.211 5  -1931529.805 4
  24297100.721    -4212216.514 5  -3644339.957 4
  23267754.486    -9780484.053 6  -7483924.524 6
 94  2  2  2 47 30.0020000  0  8 27  2 15 13  7  9  4 26
  23367937.689    14113282.039 5  11010979.683 5
  21915635.471      122839.956 7    124488.709 9
  24976917.283        4055.700 5     82848.772 3
  22332344.416   -14626519.071 7 -10253710.439 6
  21119621.721   -15659168.820 7 -12046266.508 8
  24696523.283    -2754635.187 5  -2002362.476 4
  24279382.525    -4305320.564 5  -3716888.533 4
  23274627.604    -9744388.195 6  -7455797.880 6
 94  2  2  2 48  0.0020000  0  8 27  2 15 13  7  9  4 26
  23387946.260    14218427.926 6  11092911.536 5
  21921451.830      153420.948 7    148318.061 9
  24988585.049       65389.337 5    130641.192 3
  22318297.869   -14700323.777 6 -10311220.579 6
  21124771.830   -15632130.965 7 -12025198.043 8
  24679242.697    -2845440.972 5  -2073120.221 2
  24261684.518    -4398335.061 5  -3789367.344 4
  23281587.010    -9707805.417 6  -7427291.823 6
 94  2  2  2 48 30.0020000  0  8 27  2 15 13  7  9  4 26
  23408000.955    14323837.389 5  11175048.761 5
  21927305.830      184201.546 7    172302.952 9
  25000340.986      127210.870 4    178813.841 3
  22304339.400   -14773672.862 6 -10368375.694 6
  21129999.549   -15604663.506 7 -12003794.820 9
  24661972.361    -2936156.899 5  -2143807.879 3
  24243997.510    -4491276.275 5  -3861789.019 5
  23288640.400    -9670751.312 6  -7398418.489 6
 94  2  2  2 49  0.0020000  0  8 27  2 15 13  7  9  4 26
  23428112.322    14429516.711 5  11257396.285 5
  21933204.283      215174.698 7    196437.884 9
  25012202.588      189523.057 4    227368.780 4
  22290466.979   -14846559.476 6 -10425170.441 6
  21135307.525   -15576760.437 7 -11982052.160 9
  24644731.932    -3026767.933 5  -2214413.847 4
  24226319.541    -4584134.229 5  -3934145.836 5
  23295780.908    -9633221.942 6  -7369174.820 6
 94  2  2  2 49 30.0020000  0  8 27  2 15 13  7  9  4 26
  23448271.627    14535467.641 5  11339955.433 5
  21939132.658      246334.309 7    220718.103 9
  25024163.291      252323.201 5    276303.969 3
  22276685.361   -14918982.483 6 -10481603.942 6
  21140700.080   -15548431.130 7 -11959977.366 9
  24627510.830    -3117272.610 5  -2284936.894 4
  24208671.955    -4676913.878 5  -4006441.633 5
  23303009.955    -9595229.034 6  -7339569.957 6
 94  2  2  2 50  0.0020000  0  8 27  2 15 13  7  9  4 26
  23468492.182    14641705.451 5  11422738.112 5
  21945104.994      277690.175 7    245151.248 9
  25036205.299      315615.895 5    325622.969 3
  22262994.268   -14990933.949 6 -10537669.999 6
  21146169.010   -15519662.519 7 -11937560.259 9
  24610303.854    -3207671.899 5  -2355377.868 4
  24191033.268    -4769624.169 5  -4078683.367 5
  23310320.682    -9556783.927 6  -7309612.738 6
 94  2  2  2 50 30.0020000  0  8 27  2 15 13  7  9  4 26
  23488762.978    14748222.479 5  11505738.388 5
  21951101.471      309231.069 7    269728.576 9
  25048335.213      379389.649 5    375316.799 3
  22249391.619   -15062421.432 6 -10593374.506 6
  21151728.697   -15490473.338 7 -11914815.442 9
  24593125.713    -3297973.770 5  -2425742.902 4
  24173394.416    -4862298.671 5  -4150897.204 5
  23317726.260    -9517905.600 6  -7279317.929 6
 94  2  2  2 51  0.0020000  0  8 27  2 15 13  7  9  4 26
  23509090.916    14855031.829 5  11588966.436 5
  21957141.002      340948.604 7    294443.537 9
  25060563.838      443650.251 4    425390.003 3
  22235877.971   -15133435.647 6 -10648710.241 6
  21157358.291   -15460862.557 7 -11891742.087 9
  24575965.541    -3388178.197 5  -2496031.990 3
  24155768.213    -4954935.655 5  -4223081.843 5
  23325208.822    -9478586.211 6  -7248679.446 6
 94  2  2  2 51 30.0020000  0  8 27  2 15 13  7  9  4 26
  23529471.603    14962162.708 5  11672445.037 5
  21963212.314      372857.318 7    319307.491 9
  25072889.432      508411.082 4    475852.993 3
  22222460.104   -15203959.529 6 -10703663.898 6
  21163078.057   -15430810.788 7 -11868325.114 9
  24558814.822    -3478264.366 5  -2566228.956 4
  24138156.119    -5047505.009 5  -4295213.753 5
  23332772.900    -9438805.818 6  -7217681.743 6
 94  2  2  2 52  0.0020000  0  8 27  2 15 13  7  9  4 26
  23549915.408    15069591.654 5  11756155.880 5
  21969317.314      404934.192 7    344302.452 9
  25085305.354      573654.739 4    526692.193 3
  22209127.900   -15274007.215 6 -10758246.494 6
  21168876.650   -15400332.955 7 -11844576.145 9
  24541691.096    -3568256.057 5  -2636352.309 2
  24120545.713    -5140002.971 5  -4367290.046 5
  23340432.447    -9398559.559 6  -7186321.010 6
 94  2  2  2 52 30.0020000  0  8 27  2 15 13  7  9  4 26
  23570412.275    15177295.720 5  11840081.117 5
  21975449.182      437161.244 7    369414.449 9
  25097811.666      639377.126 5    577904.460 2
  22195889.900   -15343578.629 6 -10812457.972 6
  21174753.463   -15369447.435 7 -11820509.500 9
  24524586.127    -3658153.509 5  -2706402.209 4
  24102968.986    -5232397.770 5  -4439285.957 4
  23348188.104    -9357825.626 6  -7154580.282 6
 94  2  2  2 53  0.0020000  0  8 27  2 15 13  7  9  4 26
  23590956.549    15285267.561 5  11924215.003 5
  21981607.143      469529.855 7    394636.741 9
  25110409.096      705578.125 4    629489.649 2
  22182742.932   -15412670.340 6 -10866295.648 6
  21180712.807   -15338162.174 7 -11796131.362 9
  24507490.189    -3747952.596 5  -2776375.458 3
  24085407.861    -5324656.602 5  -4511175.938 4
  23356029.846    -9316605.721 6  -7122460.889 6
 94  2  2  2 53 30.0020000  0  8 27  2 15 13  7  9  4 26
  23611553.525    15393473.273 5  12008531.146 5
  21987795.439      502049.060 7    419976.383 9
  25123096.611      772250.735 5    681442.332 3
  22169683.908   -15481285.804 6 -10919762.220 6
  21186736.768   -15306490.392 7 -11771452.045 9
  24490425.744    -3837646.747 5  -2846266.953 4
  24067879.158    -5416772.543 5  -4582954.566 5
  23363958.619    -9274914.660 6  -7089974.344 6
 94  2  2  2 54  0.0020000  0  8 27  2 15 13  7  9  4 26
  23632186.799    15501916.172 5  12093032.079 5
  21994010.564      534731.169 7    445442.968 9
  25135874.572      839402.691 4    733768.529 3
  22156718.080   -15549413.387 6 -10972848.632 6
  21192840.072   -15274416.041 7 -11746459.037 9
  24473381.525    -3927236.847 5  -2916077.359 4
  24050381.486    -5508748.842 5  -4654624.386 5
  23371983.978    -9232760.552 6  -7057127.001 6
 94  2  2  2 54 30.0020000  0  8 27  2 15 13  7  9  4 26
  23652866.432    15610615.022 5  12177732.463 5
  22000267.713      567587.260 7    471045.116 9
  25148744.064      907036.535 5    786470.261 3
  22143845.846   -15617046.978 6 -11025550.114 6
  21199023.385   -15241926.378 7 -11721142.406 9
  24456351.330    -4016700.207 5  -2985789.011 5
  24032903.682    -5600584.883 5  -4726184.894 5
  23380090.275    -9190169.339 6  -7023939.030 6
 94  2  2  2 55  0.0020000  0  8 27  2 15 13  7  9  4 26
  23673601.299    15719565.427 5  12262628.862 5
  22006552.736      600612.299 7
  25161706.135      975135.727 5    839534.544 2
  22131070.455   -15684199.405 7 -11077876.668 6
  21205278.838   -15209032.878 7
  24439349.393    -4106040.002 5  -3055404.373 4
  24015449.682    -5692310.325 5  -4797659.237 5
  23388272.479    -9147179.536 6  -6990440.490 6
 94  2  2  2 55 30.0020000  0  8 27  2 15 13  7  9  4 26
  23694384.252    15828775.191 5  12347727.362 5
  22012869.361      633813.732 7    522650.165 9
  25174753.596     1043701.717 5    892962.613 3
  22118383.916   -15750865.517 7 -11129824.265 7
  21211621.439   -15175714.169 7 -11669548.457 9
  24422372.135    -4195255.993 5  -3124923.281 4
  23998010.369    -5783936.429 5  -4869056.156 5
  23396525.674    -9103783.881 6  -6956625.712 6
 94  2  2  2 56  0.0020000  0  8 27  2 15 13  7  9  4 26
  23715213.893    15938255.509 5  12433036.697 5
  22019216.463      667183.630 7    548652.693 9
  25187886.986     1112733.231 4    946753.402 2
  22105792.096   -15817042.932 7 -11181391.069 6
  21218043.400   -15141973.676 7 -11643257.153 9
  24405422.385    -4284349.132 5  -3194346.478 4
  23980587.814    -5875461.344 5  -4940374.236 5
  23404867.088    -9059972.868 6  -6922487.255 6
 94  2  2  2 56 30.0020000  0  8 27  2 15 13  7  9  4 26
  23736100.150    16047986.082 5  12518541.023 4
  22025599.354      700714.515 7    574780.648 9
  25201111.400     1182227.759 4   1000905.001 2
  22093293.588   -15882730.432 7 -11232576.113 6
  21224541.854   -15107837.237 7 -11616657.331 9
  24388494.189    -4373312.475 5  -3263668.510 5
  23963200.494    -5966879.919 5  -5011609.465 4
  23413284.127    -9015732.547 6  -6888014.282 6
 94  2  2  2 57  0.0020000  0  8 27  2 15 13  7  9  4 26
  23757019.955    16157941.296 5  12604220.406 5
  22032010.166      734403.430 7    601031.752 9
  25214420.611     1252182.769 4   1055415.395 2
  22080885.853   -15947927.263 7 -11283378.810 6
  21231109.252   -15073313.360 7 -11589755.590 9
  24371581.689    -4462156.474 5  -3332897.565 5
  23945823.963    -6058198.792 5  -5082767.002 5
  23421790.104    -8971045.460 6  -6853193.182 6
 94  2  2  2 57 30.0020000  0  8 27  2 15 13  7  9  4 26
  23777990.947    16268118.532 5  12690072.788 5
  22038455.135      768260.750 7    627414.084 9
  25227823.518     1322601.645 4   1110287.255 3
  22068573.229   -16012626.419 7 -11333793.719 6
  21237751.025   -15038394.899 7 -11562546.398 9
  24354702.838    -4550881.343 5  -3402033.779 4
  23928463.354    -6149405.345 5  -5153837.020 5
  23430375.752    -8925895.246 6  -6818011.202 6
 94  2  2  2 58  0.0020000  0  8 27  2 15 13  7  9  4 26
  23798992.752    16378501.894 5  12776085.785 5
  22044929.354      802294.758 7    653934.093 9
  25241307.721     1393473.154 3   1165511.835 5
  22056354.627   -16076835.134 7 -11383826.465 6
  21244469.088   -15003107.442 7 -11535049.676 9
  24337843.932    -4639490.525 5  -3471079.847 4
  23911134.041    -6240495.005 5  -5224815.944 5
  23439057.986    -8880294.667 6  -6782478.292 6
 94  2  2  2 58 30.0020000  0  7 27  2 13  7  9  4 26
  23820040.057    16489105.501 5  12862270.407 5
  22051445.963      836535.628 7    680615.286 9
  22044230.963   -16140548.019 7 -11433472.848 6
  21251256.861   -14967443.446 7 -11507259.540 9
  24320998.471    -4727977.647 5  -3540030.843 3
  23893824.510    -6331459.357 5  -5295697.203 5
  23447818.932    -8834247.205 6  -6746597.169 6
 94  2  2  2 59  0.0020000  0  7 27  2 13  7  9  4 26
  23841136.611    16599958.686 5  12948649.485 5
  22058008.080      871016.847 7    707483.773 9
  22032202.627   -16203750.205 6 -11482721.298 6
  21258118.588   -14931370.322 7 -11479150.610 9
  24304189.439    -4816324.538 5  -3608872.538 5
  23876536.244    -6422275.105 5  -5366462.699 5
  23456669.299    -8787744.438 6  -6710361.248 6
 94  2  2  2 59 30.0020000  0  7 27  2 13  7  9  4 26
  23862281.049    16711063.917 5  13035224.977 5
  22064616.041      905736.475 7    734538.037 9
  22020269.900   -16266454.350 6 -11531581.649 7
  21265056.322   -14894907.114 7 -11450737.717 9
  24287402.244    -4904542.766 5  -3677613.970 5
  23859288.822    -6512950.772 5  -5437119.062 5
  23465597.619    -8740806.491 6  -6673786.234 6
 94  2  2  3  0  0.0020000  0  7 27  2 13  7  9  4 26
  23883470.666    16822430.514 5  13122004.125 5
  22071265.111      940691.095 7    761775.412 9
  22008436.822   -16328655.833 7 -11580050.317 6
  21272068.924   -14858054.721 7 -11422021.562 9
  24270638.564    -4992629.023 5  -3746252.588 5
  23842051.549    -6603489.937 5  -5507669.023 5
  23474610.150    -8693443.060 6  -6636879.674 6
 94  2  2  3  0 30.0020000  0  7 27  2 13  7  9  4 26
  23904715.275    16934063.165 5  13208990.604 4
  22077954.799      975859.098 7    789179.049 9
  21996695.939   -16390349.459 7 -11628123.251 7
  21279162.213   -14820803.711 7 -11392994.790 9
  24253902.354    -5080573.387 5  -3814780.646 4
  23824856.666    -6693892.189 5  -5578112.324 5
  23483702.283    -8645665.309 6  -6599650.260 6
 94  2  2  3  1  0.0020000  0  8 27  2 12 13  7  9  4 26
  23926007.799    17045947.153 5  13296172.931 5
  22084684.705     1011200.064 7    816717.469 9
  25303791.666          -0.69714
  21985051.463   -16451533.936 6 -11675799.454 6
  21286323.174   -14783159.406 7 -11363661.565 9
  24237195.416    -5168382.233 5  -3883203.106 5
  23807675.416    -6784157.953 5  -5648449.256 5
  23492876.049    -8597481.088 6  -6562104.117 6
 94  2  2  3  1 30.0020000  0  8 27  2 12 13  7  9  4 26
  23947340.510    17158061.249 5  13383534.549 5
  22091435.119     1046687.128 7    844369.724 9
  25287786.244      -84108.074 4
  21973504.353   -16512219.223 7 -11723086.677 6
  21293559.291   -14745145.099 7 -11334040.019 9
  24220511.205    -5256065.699 5  -3951527.848 4
  23790519.799    -6874300.761 5  -5718690.390 5
  23502115.002    -8548913.137 6  -6524258.969 6
 94  2  2  3  2  0.0020000  0  8 27  2 12 13  7  9  4 26
  23968721.361    17270414.526 5  13471082.533 4
  22098214.322     1082325.352 7    872139.776 9
  25271772.244     -168240.700 3        -0.00111
  21962053.369   -16572390.068 7 -11769973.037 6
  21300866.908   -14706741.134 7 -11304114.843 9
  24203851.260    -5343592.556 5  -4019730.573 5
  23773395.963    -6964289.308 5  -5788811.305 5
  23511434.400    -8499961.816 6  -6486115.094 6
 94  2  2  3  2 30.0020000  0  8 27  2 12 13  7  9  4 26
  23990142.822    17382992.804 5  13558805.854 5
  22105028.424     1118118.451 7    900030.505 9
  25255760.236     -252397.362 4    -65576.551 1
  21950700.916   -16632045.195 7 -11816457.535 6
  21308248.314   -14667940.309 7 -11273880.431 9
  24187227.143    -5430952.463 5  -4087803.225 4
  23756304.002    -7054108.158 5  -5858800.004 5
  23520825.432    -8450621.043 6  -6447667.741 6
 94  2  2  3  3  0.0020000  0  8 27  2 12 13  7  9  4 26
  24011604.916    17495777.159 5  13646689.749 5
  22111867.557     1154076.598 7    928049.847 9
  25239731.463     -336591.666 3   -131182.456 1
  21939446.439   -16691198.342 7 -11862550.876 7
  21315705.869   -14628760.030 7 -11243350.338 9
  24170634.947    -5518160.844 5  -4155757.788 5
  23739246.025    -7143767.670 5  -5928664.552 5
  23530285.619    -8400881.263 6  -6408909.476 6
 94  2  2  3  3 30.0020000  0  8 27  2 12 13  7  9  4 26
  24033103.002    17608773.552 5  13734738.890 3
  22118752.455     1190240.180 7    956229.267 9
  25223709.166     -420813.834 4   -196810.049 2
  21928288.166   -16749839.632 7 -11908245.373 6
  21323236.408   -14589193.360 7 -11212519.153 9
  24154073.643    -5605195.458 5  -4223576.948 5
  23722217.861    -7233253.626 5  -5998393.851 5
  23539830.908    -8350726.626 6  -6369827.949 6
 94  2  2  3  4  0.0020000  0  8 27  2 12 13  7  9  4 26
  24054650.385    17721985.447 5  13822955.931 5
  22125675.072     1226612.590 7    984571.406 9
  25207676.213     -505054.337 4   -262451.977 1
  21917228.518   -16807959.595 7 -11953533.643 7
  21330833.025   -14549238.870 7 -11181385.783 9
  24137545.549    -5692047.288 5  -4291253.686 5
  23705222.604    -7322556.506 5  -6067980.508 5
  23549457.580    -8300136.521 6  -6330407.081 6
 94  2  2  3  4 30.0020000  0  8 27  2 12 13  7  9  4 26
  24076230.330    17835399.461 5  13911330.485 4
  22132632.088     1263172.107 7   1013059.347 9
  25191641.682     -589319.128 4   -328112.824 2
  21906263.760   -16865564.044 7 -11998420.202 6
  21338511.924   -14508917.346 7 -11149966.414 9
  24121049.299    -5778743.538 5  -4358809.184 5
  23688258.291    -7411696.080 5  -6137439.900 5
  23559165.471    -8249101.087 6  -6290639.219 6
 94  2  2  3  5  0.0020000  0  8 27  2 12 13  7  9  4 26
  24097856.713    17949038.665 5  13999880.502 4
  22139628.791     1299926.435 7   1041699.089 9
  25175603.268     -673591.030 4   -393779.162 1
  21895403.111   -16922636.089 7 -12042891.915 6
  21346250.314   -14468230.693 7 -11118262.514 9
  24104579.322    -5865273.569 5  -4426235.170 5
  23671328.377    -7500665.870 5  -6206766.998 5
  23568965.236    -8197616.547 5  -6250521.413 6
 94  2  2  3  5 30.0020000  0  8 27  2 12 13  7  9  4 26
  24119518.697    18062893.304 5  14088598.365 4
  22146651.932     1336844.866 7   1070466.701 8
  25159567.705     -757879.036 4   -459458.071 1
  21884640.557   -16979184.815 7 -12086955.832 6
  21354063.955   -14427194.007 7 -11086285.869 9
  24088147.119    -5951641.762 5  -4493535.031 5
  23654430.346    -7589472.566 5  -6275967.000 5
  23578839.916    -8145715.896 5  -6210079.342 6
 94  2  2  3  6  0.0020000  0  8 27  2 12 13  7  9  4 26
  24141228.525    18176960.456 5  14177481.856 3
  22153700.564     1373905.319 7   1099344.978 8
  25143526.768     -842187.039 4   -525152.576 1
  21873981.947   -17035214.241 7 -12130615.110 7
  21361938.471   -14385807.163 7 -11054036.376 9
  24071742.244    -6037858.620 5  -4560716.994 5
  23637563.596    -7678119.282 5  -6345042.336 5
  23588796.822    -8093406.238 6  -6169318.583 6
 94  2  2  3  6 30.0020000  0  8 27  2 12 13  7  9  4 26
  24162978.268    18291253.948 5  14266541.708 4
  22160787.299     1411139.663 7   1128358.756 8
  25127484.939     -926498.436 4   -590849.709 1
  21863419.611   -17090708.027 7 -12173857.012 6
  21369883.775   -14344052.152 7 -11021499.994 9
  24055358.408    -6123908.599 5  -4627768.906 5
  23620726.432    -7766584.076 5  -6413975.930 5
  23598827.033    -8040692.203 5  -6128242.718 5
 94  2  2  3  7  0.0020000  0  8 27  2 12 13  7  9  4 26
  24184758.432    18405743.793 5  14355754.551 3
  22167907.229     1448551.394 7   1157510.755 8
  25111431.572    -1010837.354 4   -656568.308 1
  21852957.088   -17145690.473 7 -12216700.461 7
  21377894.361   -14301953.323 7 -10988695.707 9
  24039019.299    -6209805.708 5  -4694701.668 5
  23603930.432    -7854880.493 6  -6482778.322 6
  23608929.455    -7987617.769 6  -6086886.009 5
 94  2  2  3  7 30.0020000  0  8 27  2 12 13  7  9  4 26
  24206593.307    18520435.200 5  14445124.484 4
  22175065.307     1486162.644 7   1186818.219 8
  25095376.478    -1095192.820 4   -722299.754 1
  21842594.557   -17200150.701 7 -12259136.979 6
  21385976.479   -14259490.727 7 -10955607.964 9
  24022706.596    -6295528.206 5  -4761498.423 5
  23587161.549    -7942981.828 5  -6551428.690 6
  23619097.893    -7934172.332 5  -6045240.238 6
 94  2  2  3  8  0.0020000  0  8 27  2 12 13  7  9  4 26
  24228452.236    18635319.198 5  14534644.457 4
  22182264.877     1523984.647 7   1216289.916 8
  25079321.643    -1179571.767 4   -788049.569 2
  21832330.166   -17254096.201 7 -12301172.415 7
  21394118.916   -14216673.300 7 -10922243.722 9
  24006420.150    -6381089.223 5  -4828169.312 5
  23570428.221    -8030892.330 5  -6619930.361 6
  23629335.408    -7880372.237 5  -6003318.085 6
 94  2  2  3  8 30.0020000  0  8 27  2 12 13  7  9  4 26
  24250350.471    18750407.548 5  14624323.675 4
  22189506.588     1562040.801 7   1245944.062 8
  25063264.268    -1263963.320 5   -853809.162 2
  21822164.533   -17307516.219 7 -12342798.382 7
  21402335.846   -14173499.594 7 -10888601.872 9
  23990177.619    -6466468.584 5  -4894698.657 5
  23553742.549    -8118599.728 5  -6688273.774 5
  23639641.518    -7826223.505 5  -5961124.281 6
 94  2  2  3  9  0.0020000  0  8 27  2 12 13  7  9  4 26
  24272295.424    18865723.962 5  14714180.586 5
  22196789.689     1600333.082 7   1275782.218 8
  25047206.729    -1348350.913 5   -919565.680 1
  21812099.283   -17360394.682 7 -12384002.373 7
  21410629.057   -14129950.899 7 -10854667.819 9
  23973970.049    -6551643.681 5  -4961068.836 5
  23537093.049    -8206087.807 5  -6756446.272 5
  23650012.525    -7771700.543 5  -5918638.877 6
 94  2  2  3  9 30.0020000  0  8 27  2 12 13  7  9  4 26
  24294282.135    18981262.274 5  14804210.411 4
  22204122.166     1638837.836 7   1305785.915 8
  25031149.150    -1432741.115 5   -985324.256 1
  21802140.244   -17412738.518 7 -12424789.763 6
  21418982.361   -14086025.790 7 -10820440.446 9
  23957800.283    -6636616.567 5  -5027281.449 5
  23520483.916    -8293367.162 5  -6824456.159 6
  23660456.455    -7716807.904 5  -5875865.392 6
 94  2  2  3 10  0.0020000  0  8 27  2 12 13  7  9  4 26
  24316311.510    19097010.503 5  14894403.815 4
  22211481.846     1677535.277 7   1335939.761 8
  25015090.447    -1517137.125 5  -1051087.346 2
  21792281.596   -17464551.308 7 -12465163.337 6
  21427413.713   -14041739.245 7 -10785931.447 9
  23941662.783    -6721401.156 5  -5093347.341 5
  23503908.705    -8380452.095 5  -6892314.525 5
  23670978.604    -7661539.739 5  -5832799.298 6
 94  2  2  3 10 30.0020000  0  8 27  2 12 13  7  9  4 26
  24338372.674    19212964.061 5  14984757.225 5
  22218877.869     1716415.957 7   1366236.390 8
  24999030.486    -1601531.981 5
  21782520.580   -17515826.622 7 -12505118.116 6
  21435912.307   -13997086.812 7 -10751137.336 9
  23925571.635    -6805981.025 5
  23487376.213    -8467341.491 6  -6960020.531 6
  23681573.127    -7605869.889 6  -5789420.196 5
 94  2  2  3 11  0.0020000  0  8 27  2 12 13  7  9  4 26
  24360478.463    19329112.850 5  15075262.739 4
  22226313.557     1755471.824 7   1396669.541 8
  24982965.541    -1685922.240 5
  21772868.018   -17566561.488 7 -12544651.757 7
  21444474.838   -13952062.729 7 -10716053.629 9
  23909515.377    -6890352.661 5  -5224997.804 5
  23470883.510    -8554025.794 5  -7027566.726 6
  23692247.330    -7549784.835 6  -5745717.559 5
 94  2  2  3 11 30.0020000  0  8 27  2 12 13  7  9  4 26
  24382613.439    19445446.395 5  15165912.242 4
  22233778.635     1794710.937 7   1427245.472 8
  24966905.830    -1770305.411 4
  21763318.518   -17616753.962 7 -12583762.759 7
  21453115.893   -13906665.792 7 -10680679.388 9
  23893498.697    -6974519.900 5  -5290582.645 5
  23454426.385    -8640497.360 6  -7094947.149 6
  23702995.994    -7493289.147 6  -5701694.952 5
 94  2  2  3 12  0.0020000  0  8 27  2 12 13  7  9  4 26
  24404784.377    19561948.131 5  15256692.813 4
  22241278.072     1834123.320 7   1457956.418 8
  24950853.260    -1854695.242 5        -0.48112
  21753868.229   -17666418.116 7 -12622462.087 7
  21461819.416   -13860928.270 7 -10645039.748 9
  23877516.533    -7058513.161 5  -5356031.926 5
  23438011.314    -8726764.431 6  -7162168.214 6
  23713819.158    -7436400.975 5  -5657366.503 5
 94  2  2  3 12 30.0020000  0  8 27  2 12 13  7  9  4 26
  24426986.596    19678622.685 5  15347608.044 4
  22248815.979     1873728.876 7   1488817.892 8
  24934792.658    -1939084.930 5    -65758.605 2
  21744518.072   -17715548.062 7 -12660745.149 7
  21470586.689   -13814844.537 7 -10609130.347 9
  23861562.025    -7142329.910 5  -5421343.652 5
  23421632.119    -8812815.588 6  -7229221.056 6
  23724718.689    -7379144.363 6  -5612750.965 5
 94  2  2  3 13  0.0020000  0  8 27  2 12 13  7  9  4 26
  24449224.369    19795467.618 5  15438656.022 2
  22256393.486     1913531.737 7   1519833.103 8
  24918735.760    -2023475.589 5   -131517.546 1
  21735271.072   -17764145.387 7 -12698613.176 7
  21479419.768   -13768421.313 7 -10572956.401 9
  23845648.088    -7225987.254 5  -5486531.167 5
  23405302.455    -8898645.558 6  -7296101.539 6
  23735678.869    -7321552.636 5  -5567874.290 5
 94  2  2  3 13 30.0020000  0  8 27  2 12 13  7  9  4 26
  24471483.275    19912486.687 4  15529839.691 2
  22264002.611     1953541.080 7   1551009.214 8
  24902676.049    -2107859.999 5   -197271.604 1
  21726126.299   -17812203.617 7 -12736061.129 7
  21488317.971   -13721667.472 7 -10536524.824 9
  23829755.307    -7309483.901 5  -5551593.478 5
  23389006.260    -8984260.825 5  -7362814.712 6
  23746698.908    -7263634.521 5  -5522743.303 5
 94  2  2  3 14  0.0020000  0  8 27  2 12 13  7  9  4 26
  24493790.018    20029682.121 4  15621160.796 2
  22271656.307     1993756.568 7   1582345.962 8
  24886618.814    -2192233.828 5   -263017.405 2
  21717083.510   -17859719.111 7 -12773086.184 7
  21497277.455   -13674588.539 7 -10499839.945 9
  23813908.064    -7392795.437 6  -5616511.531 5
  23372758.580    -9069664.450 6  -7429362.965 6
  23757780.596    -7205391.197 5  -5477358.892 5
 94  2  2  3 14 30.0020000  0  8 27  2 12 13  7  9  4 26
  24516129.229    20147050.922 4  15712616.971 4
  22279347.713     2034171.085 7   1613837.787 8
  24870563.002    -2276593.282 5   -328752.028 1
  21708146.408   -17906688.646 7 -12809685.802 7
  21506300.033   -13627170.463 7 -10462890.785 9
  23798087.650    -7475889.946 6  -5681260.471 5
  23356546.541    -9154857.082 6  -7495746.811 6
  23768922.236    -7146822.050 5  -5431720.627 5
 94  2  2  3 15  0.0020000  0  8 27  2 12 13  7  9  4 26
  24538487.893    20264590.805 4  15804206.455 3
  22287077.525     2074766.565 7   1645470.629 8
  24854513.377    -2360941.336 5   -394477.765 2
  21699307.682   -17953116.326 7 -12845863.200 7
  21515383.838   -13579411.057 7 -10425675.659 9
  23782325.018    -7558756.672 6  -5745831.943 5
  23340370.986    -9239833.616 5  -7561962.275 6
  23780138.260    -7087908.674 5  -5385814.103 5
 94  2  2  3 15 30.0020000  0  8 27  2 12 13  7  9  4 26
  24560889.596    20382317.041 3  15895941.176 2
  22294832.838     2115547.649 7   1677248.092 8
  24838474.408    -2445268.136 5   -460186.899 2
  21690578.572   -17998992.722 7 -12881611.034 7
  21524546.283   -13531300.962 7 -10388187.267 9
  23766602.838    -7641372.877 6  -5810208.177 5
  23324249.697    -9324576.018 6  -7627995.295 6
  23791418.650    -7028623.199 5  -5339617.634 6
 94  2  2  3 16  0.0020000  0  8 27  2 12 13  7  9  4 26
  24583327.557    20500217.364 4  15987811.537 3
  22302625.658     2156499.580 7   1709158.694 8
  24822430.455    -2529582.217 5
  21681950.674   -18044327.299 7 -12916936.644 7
  21533764.658   -13482846.357 7 -10350430.433 9
  23750924.518    -7723747.176 5  -5874395.924 5
  23308169.799    -9409073.178 6
  23802769.564    -6968969.415 6  -5293134.172 6
 94  2  2  3 16 30.0020000  0  8 27  2 12 13  7  9  4 26
  24605793.494    20618280.495 4  16079808.769 3
  22310451.283     2197620.338 7   1741200.835 8
  24806384.236    -2613885.761 5
  21673428.229   -18089123.222 7 -12951842.547 7
  21543049.963   -13434069.866 7 -10312422.778 9
  23735289.041    -7805904.869 5  -5938414.885 5
  23292140.518    -9493319.860 6
  23814195.682    -6908947.510 5  -5246363.878 5
 94  2  2  3 17  0.0020000  0  8 27  2 12 13  7  9  4 26
  24628301.885    20736515.345 4  16171939.788 3
  22318311.228     2238931.564 7   1773391.389 8
  24790341.721    -2698165.972 5   -657250.078 3
  21665006.963   -18133368.450 7 -12986319.339 7
  21552389.619   -13384988.210 7 -10274177.317 9
  23719699.002    -7887848.346 6  -6002266.916 5
  23276155.447    -9577302.559 6  -7824925.009 6
  23825686.486    -6848539.709 5  -5199292.858 6
 94  2  2  3 17 30.0020000  0  8 27  2 12 13  7  9  4 26
  24650824.713    20854902.965 4  16264189.832 3
  22326208.291     2280425.285 7   1805724.172 8
  24774305.111    -2782435.240 5   -722914.426 2
  21656691.799   -18177076.383 7 -13020377.452 7
  21561779.346   -13335630.950 7 -10235717.119 9
  23704143.400    -7969587.898 6  -6065960.061 5
  23260219.900    -9661050.743 6  -7890183.325 6
  23837251.377    -6787773.982 5  -5151942.966 6
 94  2  2  3 18  0.0020000  0  8 27  2 12 13  7  9  4 26
  24673384.689    20973454.905 4  16356567.960 2
  22334145.525     2322123.103 7   1838215.974 8
  24758280.088    -2866672.776 5   -788554.034 2
  21648479.150   -18220227.255 7 -13054001.490 7
  21571223.002   -13285982.804 7 -10197030.243 9
  23688631.479    -8051101.199 5  -6129476.905 5
  23244329.791    -9744552.702 6  -7955249.770 6
  23848883.971    -6726639.933 5  -5104306.038 6
 94  2  2  3 18 30.0020000  0  8 27  2 12 13  7  9  4 26
  24695967.791    21092156.744 4  16449062.860 3
  22342117.697     2364016.742 7   1870860.376 8
  24742250.338    -2950891.862 5   -854179.280 3
  21640373.307   -18262835.287 7 -13087202.541 7
  21580724.299   -13236048.808 7 -10158120.634 9
  23673161.244    -8132396.266 6  -6192823.684 5
  23228482.322    -9827828.270 6  -8020139.800 6
  23860580.502    -6665166.591 5  -5056404.747 5
 94  2  2  3 19  0.0020000  0  8 27  2 12 13  7  9  4 26
  24718594.861    21211023.777 5  16541686.532 3
  22350124.674     2406116.086 7   1903665.043 8
  24726225.174    -3035085.790 5   -919784.901 2
  21632369.260   -18304894.765 7 -13119976.141 7
  21590294.330   -13185789.826 7 -10118957.777 9
  23657737.424    -8213449.736 6  -6255982.204 6
  23212683.283    -9910860.405 6  -8084840.143 6
  23872340.947    -6603372.290 5  -5008253.362 5
 94  2  2  3 19 30.0020000  0  8 27  2 12 13  7  9  4 26
  24741242.330    21330042.328 5  16634428.211 4
  22358178.822     2448423.593 7   1936631.927 8
  24710209.002    -3119257.861 5   -985373.491 3
  21624468.408   -18346410.335 7 -13152325.917 7
  21599922.713   -13135177.507 7 -10079519.611 9
  23642356.705    -8294265.652 6  -6318955.628 5
  23196932.229    -9993636.943 6  -8149341.319 6
  23884156.447    -6541283.330 5  -4959872.354 5
 94  2  2  3 20  0.0020000  0  8 27  2 12 13  7  9  4 26
  24763917.393    21449207.882 4  16727284.481 2
  22366267.846     2490945.362 7   1969765.772 8
  24694202.416    -3203400.738 5  -1050939.313 3
  21616673.314   -18387375.462 7 -13184246.778 7
  21609625.307   -13084200.167 7 -10039797.003 9
  23627030.518    -8374843.325 6  -6381743.421 5
  23181235.674   -10076137.767 6  -8213627.669 6
  23896031.361    -6478895.892 5  -4911258.781 5
 94  2  2  3 20 30.0020000  0  8 27  2 12 13  7  9  4 26
  24786621.611    21568520.677 5  16820255.446 3
  22374406.393     2533691.634 7   2003074.555 8
  24678197.033    -3287508.615 5  -1116477.895 3
  21608981.260   -18427785.767 7 -13215735.306 7
  21619391.119   -13032861.327 7  -9999792.704 9
  23611738.080    -8455181.325 6  -6444344.434 5
  23165588.635   -10158347.438 6  -8277687.144 6
  23907958.979    -6416209.716 5  -4862412.417 5
 94  2  2  3 21  0.0020000  0  8 27  2 12 13  7  9  4 26
  24809354.143    21687976.658 4  16913338.007 2
  22382578.596     2576658.537 7   2036555.252 8
  24662196.846    -3371589.914 5  -1181995.788 3
  21601393.377   -18467650.652 7 -13246798.843 7
  21629230.424   -12981182.612 7  -9959523.576 9
  23596492.549    -8535295.177 6  -6506770.803 5
  23149996.971   -10240272.968 6  -8341525.198 6
  23919939.072    -6353225.717 5  -4813333.980 5
 94  2  2  3 21 30.0020000  0  8 27  2 12 13  7  9  4 26
  24832115.393    21807576.636 3  17006532.783 3
  22390796.150     2619840.448 7   2070203.489 8
  24646200.135    -3455637.103 5  -1247487.055 4
  21593915.760   -18506963.796 7 -13277432.443 7
  21639124.400   -12929175.320 7  -9918998.411 9
  23581289.314    -8615184.026 6  -6569021.824 5
  23134457.471   -10321914.619 6  -8405142.059 6
  23931989.268    -6289922.461 5  -4764006.774 5
 94  2  2  3 22  0.0020000  0  8 27  2 12 13  7  9  4 26
  24854903.939    21927342.590 3  17099856.899 2
  22399056.119     2663231.304 7   2104014.540 8
  24630213.072    -3539644.206 5  -1312947.092 3
  21586541.010   -18545720.620 7 -13307632.556 7
  21649076.549   -12876858.748 7  -9878232.247 9
  23566133.229    -8694837.054 6  -6631089.105 6
  23118983.822   -10403274.238 6  -8468539.147 6
  23944095.127    -6226297.480 5  -4714428.882 5
 94  2  2  3 22 30.0020000  0  8 27  2 12 13  7  9  4 26
  24877732.158    22047294.261 3  17193325.691 2
  22407354.775     2706841.159 7   2137996.235 8
  24614240.580    -3623606.912 5  -1378372.541 4
  21579272.744   -18583917.952 7 -13337396.696 7
  21659093.791   -12824233.651 7  -9837225.682 9
  23551019.744    -8774247.079 6  -6692967.036 6
  23103553.502   -10484351.938 6  -8531716.573 6
  23956258.994    -6162360.418 5  -4664607.804 5
 94  2  2  3 23  0.0020000  0  8 27  2 12 13  7  9  4 26
  24900589.088    22167416.189 3  17286927.177 2
  22415690.955     2750654.610 7   2172136.587 8
  24598270.525    -3707530.990 5  -1443767.910 4
  21572107.908   -18621562.904 7 -13366730.411 7
  21669163.838   -12771302.960 7  -9795980.980 9
  23535955.197    -8853415.561 6  -6754656.735 6
  23088176.783   -10565163.126 6  -8594686.308 6
  23968487.869    -6098122.893 5  -4614552.603 5
 94  2  2  3 23 30.0020000  0  8 27  2 12 13  7  9  4 26
  24923471.643    22287687.018 3  17380644.658 3
  22424064.979     2794661.130 7   2206427.373 8
  24582305.830    -3791414.284 5  -1509131.462 2
  21565050.150   -18658654.806 7 -13395633.176 7
  21679294.229   -12718074.504 7  -9754504.268 9
  23520941.822    -8932324.366 6  -6816144.108 6
  23072841.666   -10645713.227 6  -8657452.600 6
  23980767.916    -6033588.828 5  -4564266.337 5
 94  2  2  3 24  0.0020000  0  8 27  2 12 13  7  9  4 26
  24946392.541    22408104.093 3  17474476.145 2
  22432481.072     2838881.863 7   2240885.085 8
  24566348.111    -3875247.607 5  -1574456.112 3
  21558099.229   -18695185.760 7 -13424098.844 7
  21689478.057   -12664561.769 7  -9712806.021 9
  23505974.744    -9010961.910 6  -6877420.095 6
  23057566.588   -10725994.716 6  -8720009.587 6
  23993102.393    -5968752.654 5  -4513744.665 5
 94  2  2  3 24 30.0020000  0  8 27  2 12 13  7  9  4 26
  24969319.611    22528619.268 3  17568384.040 2
  22440933.041     2883296.915 7   2275494.214 8
  24550405.752    -3959048.818 5  -1639755.734 3
  21551249.627   -18731175.081 7 -13452142.456 6
  21699710.635   -12610777.508 7  -9670896.212 9
  23491062.986    -9089339.270 6  -6938493.341 6
  23042339.252   -10806022.834 6  -8782369.143 6
  24005501.002    -5903620.934 5  -4462992.680 5
 94  2  2  3 25  0.0020000  0  8 27  2 12 13  7  9  4 26
  24992278.260    22649232.928 3  17662368.693 2
  22449424.807     2927917.894 7   2310263.805 8
  24534473.400    -4042793.964 5  -1705011.655 3
  21544508.705   -18766600.166 7 -13479746.403 7
  21710004.697   -12556696.237 7  -9628754.958 9
  23476199.158    -9167430.987 6  -6999344.014 6
  23027165.650   -10885760.336 6  -8844502.240 6
  24017957.900    -5838152.382 5  -4411978.235 5
 94  2  2  3 25 30.0020000  0  8 27  2 12 13  7  9  4 26
  25015240.986    22769931.505 3  17756419.528 1
  22457947.064     2972719.346 7   2345174.025 8
  24518538.291    -4126505.801 5  -1770241.627 5
  21537869.291   -18801485.256 7 -13506929.578 7
  21720344.018   -12502347.796 7  -9586405.520 9
  23461389.564    -9245271.993 6  -7059999.331 6
  23012054.197   -10965211.414 6  -8906412.153 6
  24030475.072    -5772372.797 5  -4360721.428 5
 94  2  2  3 26  0.0020000  0  8 27  2 12 13  7  9  4 26
  25038226.478    22890750.369 3  17850564.077 1
  22466511.768     3017730.260 7   2380247.460 7
  24502621.385    -4210155.463 5  -1835423.132 4
  21531340.291   -18835803.070 7 -13533670.714 7
  21730749.666   -12447692.524 7  -9543816.998 9
  23446625.228    -9322846.120 6  -7120446.692 6
  22996991.088   -11044325.932 6  -8968059.814 6
  24043054.900    -5706264.037 5  -4309208.116 5
 94  2  2  3 26 30.0020000  0  8 27  2 12 13  7  9  4 26
  25061244.783    23011689.544 3  17944802.369 2
  22475116.697     3062929.286 7   2415467.476 7
  24486712.775    -4293747.589 5  -1900559.841 3
  21524915.861   -18869559.974 7 -13559974.779 7
  21741204.619   -12392724.513 7  -9500984.777 9
  23431916.064    -9400159.110 6  -7180690.578 6
  22982000.627   -11123107.206 6  -9029447.805 6
  24055695.361    -5639837.702 5  -4257447.354 5
 94  2  2  3 27  0.0020000  0  8 27  2 12 13  7  9  4 26
  25084289.619    23132761.832 3  18039144.424 2
  22483752.760     3108330.319 7   2450844.896 7
  24470819.439    -4377281.386 5  -1965651.084 4
  21518598.697   -18902756.636 7 -13585842.291 7
  21751723.822   -12337458.546 7  -9457920.385 9
  23417250.096    -9477230.955 6  -7240746.534 6
  22967070.666   -11201553.216 6  -9090574.547 6
  24068396.314    -5573112.786 5  -4205453.929 5
 94  2  2  3 27 30.0020000  0  8 27  2 12 13  7  9  4 26
  25107355.486    23253970.957 3  18133593.072 2
  22492434.416     3153946.059 7   2486389.624 8
  24454933.494    -4460753.312 5  -2030694.116 3
  21512387.424   -18935391.184 7 -13611271.796 7
  21762295.596   -12281908.856 7  -9414634.913 9
  23402628.486    -9554055.148 6  -7300609.525 6
  22952207.885   -11279673.779 6  -9151447.694 6
  24081143.564    -5506109.879 5  -4153243.896 5
 94  2  2  3 28  0.0020000  0  8 27  2 12 13  7  9  4 26
  25130434.228    23375293.738 3  18228130.277 1
  22501154.838     3199773.056 7   2522098.970 7
  24439058.291    -4544173.570 5  -2095696.898 4
  21506281.908   -18967475.532 7 -13636272.573 7
  21772915.885   -12226089.731 7  -9371139.484 9
  23388061.533    -9630616.211 6  -7360267.491 6
  22937394.729   -11357507.830 6  -9212097.589 6
  24093946.447    -5438843.787 5  -4100828.778 5
 94  2  2  3 28 30.0020000  0  8 27  2 12 13  7  9  4 26
  25153545.697    23496740.622 3  18322764.228 1
  22509921.135     3245837.267 7   2557993.148 7
  24423195.228    -4627528.533 5  -2160648.817 4
  21500283.564   -18998997.655 7 -13660835.256 7
  21783592.455   -12170004.936 7  -9327437.044 9
  23373543.096    -9706899.703 6  -7419709.162 6
  22922637.158   -11435061.371 6  -9272528.901 6
  24106795.088    -5371304.364 5  -4048200.653 5
 94  2  2  3 29  0.0020000  0  7  2 12 13  7  9  4 26
  22518731.557     3292152.340 7   2594082.813 7
  24407344.885    -4710816.500 5  -2225548.507 4
  21494394.549   -19029957.505 7 -13684959.807 7
  21794311.299   -12113647.945 7  -9283522.504 9
  23359080.041    -9782902.439 6  -7478932.046 6
  22907936.197   -11512331.315 6  -9332739.225 6
  24119696.135    -5303494.642 5  -3995361.926 5
 94  2  2  3 29 30.0020000  0  8 24  2 12 13  7  9  4 26
  25002438.205          -0.31413
  22527590.799     3338685.532 7   2630342.441 7
  24391512.166    -4794036.480 5  -2290395.230 5
  21488609.088   -19060356.139 7 -13708647.031 7
  21805093.604   -12057008.034 7  -9239387.503 9
  23344676.143    -9858601.291 6  -7537918.160 6
  22893285.783   -11589321.612 6  -9392731.641 6
  24132658.322    -5235409.057 5  -3942308.240 5
 94  2  2  3 30  0.0020000  0  8 24  2 12 13  7  9  4 26
  24983326.338     -100443.537 3        -0.15811
  22536481.799     3385423.587 7   2666761.701 7
  24375690.728    -4877186.756 5  -2355187.628 5
  21482932.502   -19090193.560 7 -13731896.962 7
  21815927.736   -12000073.916 7  -9195023.256 9
  23330324.580    -9934005.181 6  -7596674.430 6
  22878686.213   -11666012.088 6  -9452490.436 6
  24145661.377    -5167042.893 5  -3889035.904 5
 94  2  2  3 30 30.0020000  0  8 24  2 12 13  7  9  4 26
  24964218.932     -200883.120 4    -78264.741 4
  22545412.752     3432350.249 7   2703327.920 7
  24359877.924    -4960272.560 5  -2419929.798 2
  21477356.291   -19119476.678 7 -13754714.961 6
  21826811.932   -11942855.002 7  -9150437.082 9
  23316028.541   -10009141.480 6  -7655222.165 6
  22864158.471   -11742384.876 6  -9512001.689 7
  24158728.064    -5098403.559 5  -3835550.716 5
 94  2  2  3 31  0.0020000  0  8 24  2 12 13  7  9  4 26
  24945108.119     -301314.602 4   -156523.015 4
  22554376.057     3479442.332 7   2740023.040 7
  24344080.971    -5043291.566 5  -2484619.915 5
  21471889.768   -19148205.164 7 -13777100.779 7
  21837757.908   -11885344.304 7  -9105623.551 9
  23301780.150   -10083999.230 6  -7713552.877 6
  22849692.033   -11818418.856 6  -9571248.922 6
  24171837.830    -5029491.572 5  -3781853.073 5
 94  2  2  3 31 30.0020000  0  8 24  2 12 13  7  9  4 26
  24925991.557     -401724.585 5   -234764.556 5
  22563366.963     3526696.801 7   2776844.698 7
  24328298.447    -5126241.787 5  -2549256.425 5
  21466531.705   -19176379.064 7 -13799054.456 7
  21848755.080   -11827556.283 7  -9060593.930 9
  23287592.838   -10158572.342 6  -7771661.764 6
  22835281.432   -11894108.564 6  -9630227.891 6
  24185003.830    -4960315.194 5  -3727949.416 5
 94  2  2  3 32  0.0020000  0  8 24  2 12 13  7  9  4 26
  24906896.221     -502095.353 5   -312975.553 3
  22572399.502     3574158.246 7   2813827.633 7
  24312522.236    -5209111.740 5  -2613830.395 4
  21461278.111   -19203988.562 7 -13820568.331 7
  21859806.010   -11769494.556 7  -9015351.025 9
  23273458.057   -10232857.004 6  -7829545.907 6
  22820947.158   -11969446.324 6  -9688932.603 7
  24198222.627    -4890857.216 5  -3673826.326 5
 94  2  2  3 32 30.0020000  0  8 24  2 12 13  7  9  4 26
  24887805.275     -602420.964 5   -391151.349 4
  22581466.393     3621830.942 7   2850975.182 7
  24296768.064    -5291906.160 5  -2678345.522 4
  21456129.385   -19231040.495 7 -13841647.748 7
  21870903.471   -11711165.064 7  -8969899.461 9
  23259378.119   -10306840.459 6  -7887195.343 6
  22806679.588   -12044448.958 6  -9747376.206 6
  24211487.768    -4821128.000 5  -3619491.885 5
 94  2  2  3 33  0.0020000  0  8 24  2 12 13  7  9  4 26
  24868722.127     -702682.587 5   -469277.301 5
  22590582.486     3669734.500 7   2888302.637 7
  24281034.744    -5374612.828 5  -2742792.264 5
  21451089.158   -19257524.697 7 -13862284.775 7
  21882056.478   -11652558.918 7  -8924232.342 9
  23245361.869   -10380498.202 6  -7944590.968 6
  22792469.455   -12119103.102 6  -9805548.243 7
  24224810.369    -4751123.542 5  -3564942.979 5
 94  2  2  3 33 30.0020000  0  8 24  2 12 13  7  9  4 26
  24849659.650     -802875.200 4   -547349.448 5
  22599748.018     3717889.615 7   2925826.087 7
  24265311.494    -5457234.379 5  -2807172.660 4
  21446156.432   -19283445.773 7 -13882483.004 7
  21893262.994   -11593680.657 7  -8878353.169 9
  23231403.752   -10453846.716 6  -8001745.643 6
  22778325.744   -12193427.249 6  -9863463.137 7
  24238183.557    -4680844.198 5  -3510179.869 5
 94  2  2  3 34  0.0020000  0  8 24  2 12 13  7  9  4 26
  24830607.025     -903007.727 4   -625374.787 4
  22608957.338     3766292.086 7   2963542.295 7
  24249604.010    -5539769.201 5  -2871485.502 4
  21441332.424   -19308804.390 7 -13902242.955 7
  21904520.135   -11534519.126 7  -8832253.275 9
  23217505.854   -10526884.866 6  -8058658.478 6
  22764247.002   -12267419.026 6  -9921119.054 7
  24251612.744    -4610300.312 5  -3455210.638 5
 94  2  2  3 34 30.0020000  0  8 24  2 12 13  7  9  4 26
  24811555.752    -1003097.655 5   -703366.936 4
  22618211.775     3814912.623 7   3001428.417 7
  24233912.018    -5622220.936 5  -2935733.599 5
  21436611.018   -19333606.127 7 -13921568.967 6
  21915831.924   -11475074.320 7  -8785932.648 9
  23203666.682   -10599618.649 6  -8115334.151 6
  22750233.814   -12341059.168 6  -9978500.962 7
  24265078.236    -4539529.957 5  -3400064.903 5
 94  2  2  3 35  0.0020000  0  8 24  2 12 13  7  9  4 26
  24792513.330    -1103168.479 5   -781344.193 4
  22627501.658     3863741.333 7   3039476.756 7
  24218235.291    -5704595.932 5  -2999921.880 5
  21431996.033   -19357859.556 7 -13940467.732 7
  21927197.057   -11415360.908 7  -8739402.715 9
  23189875.502   -10672073.061 6  -8171792.116 6
  22736287.830   -12414352.145 6 -10035612.353 7
  24278589.416    -4468544.227 5  -3344751.366 5
 94  2  2  3 35 30.0020000  0  8 24  2 12 13  7  9  4 26
  24773488.518    -1203201.479 5   -859291.977 4
  22636837.861     3912791.499 7   3077697.653 7
  24202578.736    -5786867.606 5  -3064029.660 4
  21427490.721   -19381540.145 7 -13958920.133 6
  21938614.236   -11355358.031 7  -8692647.224 9
  23176149.127   -10744215.266 6  -8228006.811 6
  22722408.619   -12487278.820 6 -10092438.301 7
  24292138.369    -4397329.907 5  -3289259.701 5
 94  2  2  3 36  0.0020000  0  8 24  2 12 13  7  9  4 26
  24754450.549    -1303227.006 4   -937233.893 2
  22646208.018     3962021.358 6   3116058.570 7
  24186942.877    -5869053.128 5  -3128070.324 5
  21423089.322   -19404667.451 7 -13976941.400 7
  21950078.377   -11295101.062 7  -8645693.735 9
  23162480.127   -10816055.347 6  -8283986.087 6
  22708599.010   -12559836.093 6 -10148976.407 7
  24305729.057    -4325921.383 5  -3233616.697 5
 94  2  2  3 36 30.0020000  0  8 24  2 12 13  7  9  4 26
  24735414.596    -1403232.314 5  -1015160.089 4
  22655613.463     4011454.950 6   3154578.247 7
  24171323.932    -5951139.729 5  -3192033.886 5
  21418796.643   -19427230.715 7 -13994523.156 6
  21961591.432   -11234593.957 7  -8598545.343 9
  23148865.635   -10887585.512 6  -8339723.857 6
  22694862.525   -12632012.048 6 -10205217.400 6
  24319356.994    -4254297.709 5  -3177806.049 5
 94  2  2  3 37  0.0020000  0  8 24  2 12 13  7  9  4 26
  24716393.189    -1503192.476 5  -1093051.109 3
  22665061.189     4061109.388 6   3193270.002 7
  24155722.439    -6033123.994 5  -3255917.686 4
  21414609.963   -19449229.069 7 -14011664.715 6
  21973152.166   -11173845.808 7  -8551209.125 9
  23135315.150   -10958793.694 6  -8395210.738 6
  22681201.799   -12703829.472 6 -10261179.013 7
  24333026.346    -4182434.744 5  -3121808.946 5
 94  2  2  3 37 30.0020000  0  8 24  2 12 13  7  9  4 26
  24697381.064    -1603088.072 4  -1170891.806 3
  22674550.619     4110988.102 6   3232136.528 7
  24140138.643    -6114999.998 5  -3319717.169 5
  21410530.729   -19470658.865 7 -14028363.247 7
  21984759.611   -11112860.331 7  -8503687.972 9
  23121829.580   -11029665.147 6  -8450435.237 6
  22667601.900   -12775284.326 6 -10316858.092 7
  24346753.455    -4110333.129 5  -3065625.881 5
 94  2  2  3 38  0.0020000  0  8 24  2 12 13  7  9  4 26
  24678395.299    -1702910.066 5  -1248675.136 3
  22684087.838     4161102.678 6   3271186.831 7
  24124584.346    -6196769.141 5  -3383433.361 5
  21406560.916   -19491523.801 7 -14044621.628 7
  21996407.807   -11051641.982 7  -8455985.355 9
  23108408.213   -11100214.357 6  -8505408.632 6
  22654072.814   -12846376.898 6 -10372254.876 7
  24360518.697    -4037983.682 5  -3009249.705 5
 94  2  2  3 38 30.0020000  0  8 24  2 12 13  7  9  4 26
  24659409.744    -1802661.714 4  -1326403.695 4
  22693671.314     4211453.145 6   3310420.946 7
  24109039.244    -6278443.528 5  -3447075.717 5
  21402694.979   -19511838.287 7 -14060451.083 7
  22008098.439   -10990202.348 7  -8408110.312 9
  23095036.635   -11170442.595 6  -8560131.932 6
  22640610.658   -12917138.137 6 -10427393.483 7
  24374332.588    -3965395.025 5  -2952687.122 5
 94  2  2  3 39  0.0020000  0  8 24  2 12 13  7  9  4 26
  24640424.104    -1902346.358 3  -1404080.016 2
  22703296.018     4262023.650 6   3349826.532 7
  24093510.533    -6360022.470 5  -3510643.713 5
  21398934.252   -19531604.180 7 -14075853.067 6
  22019832.307   -10928532.656 7  -8360056.006 9
  23081739.377   -11240347.194 6  -8614603.046 6
  22627205.158   -12987563.216 6 -10482270.144 7
  24388188.518    -3892577.124 5  -2895945.912 5
 94  2  2  3 39 30.0020000  0  8 24  2 12 13  7  9  4 26
  24621475.885    -2001970.534 4  -1481709.218 4
  22712959.580     4312825.151 6   3389412.104 7
  24078015.299    -6441487.857 5  -3574123.216 5
  21395281.361   -19550805.687 7 -14090815.264 7
  22031618.611   -10866603.694 7  -8311799.680 9
  23068497.400   -11309918.831 6  -8668814.699 6
  22613877.963   -13057617.245 6 -10536857.692 7
  24402086.643    -3819527.826 5  -2839024.399 5
 94  2  2  3 40  0.0020000  0  8 24  2 12 13  7  9  4 26
  24602524.650    -2101557.961 4  -1559309.783 3
  22722667.244     4363841.488 6   3429165.089 7
  24062527.658    -6522852.097 5  -3637523.910 5
  21391730.158   -19569457.829 7 -14105349.387 6
  22043455.135   -10804419.565 7  -8263344.505 9
  23055319.580   -11379168.980 6  -8722775.852 6
  22600621.963   -13127292.946 6 -10591150.424 7
  24416032.986    -3746262.249 5  -2781934.338 5
 94  2  2  3 40 30.0020000  0  8 24  2 12 13  7  9  4 26
  24583589.174    -2201088.596 5  -1636866.082 4
  22732419.697     4415078.817 6   3469090.267 7
  24047071.666    -6604095.802 6  -3700830.677 5
  21388289.353   -19587543.577 7 -14119442.168 7
  22055334.916   -10741964.021 7  -8214677.848 9
  23042208.033   -11448070.976 6  -8776465.712 6
  22587437.314   -13196564.690 6 -10645128.388 7
  24430013.361    -3672774.242 5  -2724670.974 5
 94  2  2  3 41  0.0020000  0  8 24  2 12 13  7  9  4 26
  24564658.010    -2300564.770 5  -1714379.982 3
  22742211.189     4466516.632 6   3509171.670 7
  24031628.057    -6685228.214 5  -3764050.718 5
  21384953.385   -19605075.011 7 -14133103.011 6
  22067268.768   -10679243.702 7  -8165804.874 9
  23029160.619   -11516641.890 6  -8829897.584 6
  22574331.619   -13265432.654 6 -10698791.722 7
  24444042.986    -3599082.558 5  -2667248.913 5
 94  2  2  3 41 30.0020000  0  8 24  2 12 13  7  9  4 26
  24545751.619    -2399933.116 5  -1791809.853 4
  22752038.900     4518183.843 6   3549431.818 7
  24016214.455    -6766221.780 5  -3827162.568 5
  21381727.291   -19622026.890 7 -14146312.262 7
  22079260.158   -10616252.326 7  -8116720.686 9
  23016181.080   -11584847.604 6  -8883044.883 6
  22561304.268   -13333872.193 6 -10752121.213 7
  24458099.432    -3525162.990 5  -2609649.236 5
 94  2  2  3 42  0.0020000  0  8 24  2 12 13  7  9  4 26
  24526853.385    -2499201.263 5  -1869161.653 5
  22761908.729     4570047.702 6   3589845.196 7
  24000831.291    -6847103.623 6  -3890187.382 5
  21378605.072   -19638429.068 7 -14159093.166 6
  22091285.760   -10553048.667 7  -8067471.079 9
  23003268.627   -11652706.749 6
  22548357.947   -13401918.111 6
  24472210.275    -3451047.559 5  -2551896.965 5
 94  2  2  3 42 30.0020000  0  8 24  2 12 13  7  9  4 26
  24507993.939    -2598354.254 5  -1946423.683 5
  22771818.986     4622118.207 6   3630419.601 7
  23985457.502    -6927868.141 5  -3953120.749 5
  21375591.041   -19654278.588 7 -14171443.433 6
  22103349.018   -10489646.572 7  -8018066.845 9
  22990423.877   -11720214.114 6
  22535482.033   -13469585.137 6
  24486350.111    -3376731.798 5  -2493988.594 5
 94  2  2  3 43  0.0020000  0  8 24  2 12 13  7  9  4 26
  24489141.604    -2697387.777 5  -2023592.618 5
  22781767.846     4674414.745 6   3671170.144 7
  23970111.955    -7008502.450 5  -4015952.657 5
  21372680.869   -19669565.270 7 -14183355.126 7
  22115458.119   -10426036.434 7  -7968500.510 9
  22977644.893   -11787359.812 6
  22522680.939   -13536864.436 6
  24500530.494    -3302200.783 5  -2435912.496 4
 94  2  2  3 43 30.0020000  0  8 24  2 12 13  7  9  4 26
  24470318.924    -2796311.580 5  -2100676.084 5
  22791768.182     4726949.035 6   3712105.945 7
  23954793.088    -7089007.260 5  -4078683.679 5
  21369876.971   -19684292.289 7 -14194830.711 7
  22127597.229   -10362234.276 7  -7918784.544 9
  22964936.111   -11854152.204 6
  22509949.885   -13603760.191 6
  24514755.971    -3227451.788 5  -2377666.546 4
 94  2  2  3 44  0.0020000  0  8 24  2 12 13  7  9  4 26
  24451504.424    -2895158.876 5  -2177699.937 5
  22801808.572     4779715.638 6   3753222.771 7
  23939496.221    -7169394.671 5  -4141323.215 5
  21367178.221   -19698474.745 7 -14205881.969 6
  22139773.900   -10298239.341 7  -7868918.357 9
  22952286.643   -11920614.791 6
  22497290.697   -13670275.531 6
  24529022.439    -3152499.197 5  -2319261.923 5
 94  2  2  3 44 30.0020000  0  8 24  2 12 13  7  9  4 26
  24432715.861    -2993928.907 5  -2254663.588 5
  22811890.463     4832716.515 6   3794522.145 7
  23924225.096    -7249659.503 6  -4203867.218 5
  21364583.713   -19712110.242 7 -14216507.027 6
  22151997.080   -10234015.438 7  -7818873.761 9
  22939700.127   -11986747.530 6
  22484705.166   -13736402.668 6
  24543318.979    -3077349.502 5  -2260703.727 5
 94  2  2  3 45  0.0020000  0  8 24  2 12 13  7  9  4 26
  24413933.775    -3092613.525 5  -2331560.654 5
  22822025.971     4885958.021 6   3836009.023 7
  23908975.768    -7329792.193 6  -4266308.264 5
  21362094.275   -19725192.010 7 -14226700.601 6
  22164264.627   -10169542.716 7  -7768635.274 9
  22927182.502   -12052536.840 6
  22472202.869   -13802126.905 6
  24557659.924    -3002015.154 5  -2202001.659 5
 94  2  2  3 45 30.0020000  0  8 24  2 12 13  7  9  4 26
  24395176.971    -3191207.628 5  -2408387.210 5
  22832204.611     4939440.011 6   3877683.294 7
  23893753.189    -7409785.403 6  -4328640.623 5
  21359710.479   -19737715.559 7 -14236459.209 6
  22176580.846   -10104812.183 7  -7718195.902 9
  22914735.650   -12117966.286 6
  22459773.283   -13867439.391 6
  24572023.236    -2926512.395 5  -2143168.357 5
 94  2  2  3 46  0.0020000  0  8 24  2 12 13  7  9  4 26
  24376428.307    -3289717.096 5  -2485147.804 5
  22842418.486     4993136.753 6   3919524.893 7
  23878557.314    -7489642.577 6  -4390866.977 5
  21357431.979   -19749686.997 7 -14245787.590 6
  22188950.127   -10039812.535 7  -7667546.823 9
  22902353.283   -12183027.406 6
  22447421.846   -13932336.809 6
  24586419.197    -2850862.454 5  -2084220.356 5
 94  2  2  3 46 30.0020000  0  8 24  2 12 13  7  9  4 26
  24357697.689    -3388150.220 5  -2561848.913 5
  22852678.939     5047038.616 6   3961526.342 7
  23863386.533    -7569367.061 6  -4452989.925 5
  21355257.447   -19761112.702 7 -14254690.727 6
  22201368.221    -9974567.778 7  -7616706.758 9
  22890043.236   -12247712.556 6  -9399562.474 7
  22435144.775   -13996834.505 6 -11268715.067 7
  24600839.096    -2775083.173 5  -2025171.617 5
 94  2  2  3 47  0.0020000  0  8 24  2 12 13  7  9  4 26
  24338982.799    -3486486.045 5  -2638474.205 5
  22862980.182     5101172.121 6   4003708.291 7
  23848242.158    -7648941.036 6  -4514995.623 5
  21353190.439   -19771977.889 7 -14263157.092 6
  22213825.689    -9909096.697 7  -7565690.330 9
  22877809.205   -12312004.351 6  -9449659.970 7
  22422951.604   -14060919.896 6 -11318651.710 7
  24615291.814    -2699143.246 5  -1965997.651 5
 94  2  2  3 47 30.0020000  0  8 24  2 12 13  7  9  4 26
  24320291.721    -3584728.346 5  -2715026.640 5
  22873321.736     5155522.422 6   4046059.162 7
  23833130.205    -7728375.488 6  -4576892.576 5
  21351229.322   -19782296.340 7 -14271197.432 6
  22226322.689    -9843426.499 7  -7514518.743 9
  22865646.580   -12375920.196 6  -9499464.526 6
  22410836.838   -14124592.805 6 -11368266.951 7
  24629773.729    -2623036.777 5  -1906693.881 5
 94  2  2  3 48  0.0020000  0  8 24  2 12 13  7  9  4 26
  24301617.533    -3682847.405 5  -2791483.032 5
  22883710.697     5210114.803 6   4088598.676 7
  23818042.221    -7807652.554 6  -4638666.898 5
  21349369.846   -19792053.237 7 -14278800.196 6
  22238858.229    -9777557.231 7  -7463192.045 9
  22853553.354   -12439449.422 6  -9548967.818 7
  22398800.729   -14187836.756 6 -11417547.937 7
  24644295.846    -2546722.455 5  -1847228.190 4
 94  2  2  3 48 30.0020000  0  8 24  2 12 13  7  9  4 26
  24282973.299    -3780827.634 5  -2867831.235 4
  22894148.064     5264960.505 6   4131335.581 7
  23802985.150    -7886778.022 6  -4700323.112 5
  21347619.033   -19801257.543 7 -14285972.371 6
  22251424.127    -9711507.017 7  -7411724.350 9
  22841537.322   -12502609.558 6  -9598183.500 7
  22386845.088   -14250673.212 6 -11466511.392 7
  24658857.041    -2470197.322 5  -1787598.231 5
 94  2  2  3 49  0.0020000  0  8 24  2 12 13  7  9  4 26
  24264351.416    -3878666.642 5  -2944069.409 5
  22904630.252     5320048.863 6   4174261.551 7
  23787957.572    -7965757.272 6  -4761865.375 5
  21345971.752   -19809917.425 7 -14292720.330 6
  22264029.127    -9645277.593 7  -7360117.001 9
  22829587.564   -12565411.782 6  -9647120.295 7
  22374966.986   -14313098.698 6 -11515154.620 7
  24673461.627    -2393458.840 5  -1727802.014 3
 94  2  2  3 49 30.0020000  0  8 24  2 12 13  7  9  4 26
  24245768.213    -3976350.979 5  -3020187.056 5
  22915159.400     5375391.510 6   4217385.677 7
  23772956.932    -8044568.794 6  -4823276.919 5
  21344429.822   -19818014.730 7 -14299029.908 6
  22276672.908    -9578836.848 7  -7308345.002 9
  22817708.018   -12627833.923 6  -9695760.917 7
  22363175.111   -14375076.278 6 -11563448.811 7
  24688102.736    -2316513.250 5  -1667844.434 2
 94  2  2  3 50  0.0020000  0  8 24  2 12 13  7  9  4 26
  24227196.580    -4073901.151 5  -3096200.167 5
  22925735.244     5430964.350 6   4260689.173 7
  23757989.174    -8123223.657 6  -4884566.438 5
  21342994.650   -19825563.430 7 -14304911.994 6
  22289354.604    -9512191.627 7  -7256413.656 9
  22805897.283   -12689887.225 6  -9744114.132 7
  22351463.479   -14436629.584 6 -11611412.411 7
  24702774.627    -2239396.866 4  -1607753.762 3
 94  2  2  3 50 30.0020000  0  8 24  2 12 13  7  9  4 26
  24208659.268    -4171326.754 5  -3172116.189 5
  22936353.799     5486758.251 6   4304164.933 7
  23743052.385    -8201717.887 6  -4945730.747 5
  21341663.635   -19832562.831 7 -14310366.065 6
  22302074.416    -9445341.138 7  -7204322.362 9
  22794161.963   -12751569.427 6  -9792178.189 7
  22339829.947   -14497749.996 6 -11659038.691 7
  24717477.408    -2162146.082 5  -1547558.349 4
 94  2  2  3 51  0.0020000  0  8 24  2 12 13  7  9  4 26
  24190142.791    -4268643.222 5  -3247947.160 5
  22947012.393     5542767.430 6   4347808.428 7
  23728147.072    -8280050.630 6  -5006769.240 5
  21340433.635   -19839015.250 7 -14315393.915 6
  22314835.064    -9378291.820 7  -7152076.138 9
  22782496.174   -12812874.852 6  -9839948.635 7
  22328283.361   -14558413.689 6 -11706309.069 7
  24732199.549    -2084780.102 5  -1487273.183 4
 94  2  2  3 51 30.0020000  0  8 24  2 12 13  7  9  4 26
  24171645.197    -4365850.767 5  -3323693.260 5
  22957707.627     5598981.752 6   4391611.794 7
  23713269.205    -8358227.036 6  -5067685.908 5
  21339309.721   -19844928.921 7 -14320001.960 6
  22327629.791    -9311045.224 7  -7099676.200 9
  22770902.689   -12873808.015 6  -9887429.022 7
  22316820.947   -14618630.275 6 -11753231.065 7
  24746944.127    -2007314.582 5  -1426910.461 3
 94  2  2  3 52  0.0020000  0  8 24  2 12 13  7  9  4 26
  24153175.916    -4462924.540 5  -3399335.124 5
  22968447.119     5655415.519 6   4435586.144 6
  23698428.674    -8436233.062 6  -5128469.811 5
  21338286.689   -19850293.208 7 -14324181.907 6
  22340470.033    -9243584.295 7  -7047109.239 9
  22759378.346   -12934353.778 6  -9934607.532 7
  22305448.572   -14678405.972 6 -11799809.523 7
  24761708.213    -1929726.216 5  -1366451.991 4
 94  2  2  3 52 30.0020000  0  8 24  2 12 13  7  9  4 26
  24134730.580    -4559854.877 5  -3474865.238 5
  22979231.846     5712083.537 6   4479743.021 6
  23683611.010    -8514073.754 6  -5189124.883 5
  21337371.236   -19855116.182 7 -14327940.063 6
  22353346.799    -9175922.830 7  -6994386.017 9
  22747930.971   -12994514.645 6  -9981486.130 7
  22294162.025   -14737739.838 6 -11846043.701 7
  24776498.182    -1852009.011 5  -1305893.146 5
 94  2  2  3 53  0.0020000  0  8 24  2 12 13  7  9  4 26
  24116314.916    -4656620.806 5  -3550267.250 5
  22990062.572     5768999.816 6   4524093.356 6
  23668835.869    -8591740.360 6  -5249644.310 5
  21336556.244   -19859392.427 7 -14331272.184 6
  22366263.033    -9108047.787 7  -6941496.378 9
  22736559.400   -13054267.128 6 -10028046.503 7
  22282955.643   -14796625.575 6 -11891928.667 7
  24791314.557    -1774129.968 4  -1245208.194 4
 94  2  2  3 53 30.0020000  0  8 24  2 12 13  7  9  4 26
  24097938.424    -4753217.367 5  -3625537.271 5
  23000939.682     5826159.610 6   4568633.454 6
  23654089.205    -8669233.044 6  -5310028.206 5
  21335845.674   -19863125.612 7 -14334181.161 6
  22379217.174    -9039959.724 7  -6888440.746 9
  22725269.057   -13113598.713 6 -10074278.901 7
  22271831.322   -14855083.143 6 -11937480.009 7
  24806166.150    -1696087.174 4  -1184395.627 4
 94  2  2  3 54  0.0020000  0  8 24  2 12 13  7  9  4 26
  24079583.150    -4849654.159 5  -3700682.776 5
  23011864.916     5883563.974 6   4613364.115 6
  23639374.463    -8746555.659 6  -5370279.582 5
  21335236.541   -19866322.774 7 -14336672.448 6
  22392211.330    -8971680.690 7  -6835236.306 9
  22714057.955   -13172509.961 6 -10120183.769 7
  22260794.033   -14913108.386 6 -11982694.472 8
  24821047.627    -1617893.119 4  -1123465.223 4
 94  2  2  3 54 30.0020000  0  8 24  2 12 13  7  9  4 26
  24061248.486    -4945941.945 5  -3775712.200 5
  23022832.158     5941209.090 6   4658282.374 6
  23624695.205    -8823702.405 6  -5430393.931 6
  21334733.713   -19868981.629 7 -14338744.278 6
  22405236.838    -8903224.094 7  -6781893.507 9
  22702929.619   -13230994.564 6 -10165756.176 7
  22249833.119   -14970680.230 6 -12027555.623 8
  24835952.221    -1539544.098 4  -1062414.049 4
 94  2  2  3 55  0.0020000  0  8 24  2 12 13  7  9  4 26
  24042962.221    -5042086.637 5  -3850630.109 5
  23033845.518     5999083.984 6   4703379.684 6
  23610045.221    -8900664.545 6  -5490364.407 5
  21334329.096   -19871096.707 7 -14340392.379 6
  22418298.518    -8834580.544 7  -6728405.028 9
  22691883.291   -13289038.403 6 -10210985.140 7
  22238966.158   -15027791.741 6 -12072058.092 8
  24850893.924    -1461046.893 4  -1001247.393 4
 94  2  2  3 55 30.0020000  0  8 24  2 12 13  7  9  4 26
  24024691.807    -5138096.781 5  -3925443.195 5
  23044900.978     6057171.068 6   4748642.342 6
  23595435.752    -8977447.873 6  -5550195.571 6
  21334025.182   -19872677.074 7 -14341623.823 6
  22431398.432    -8765757.392 7  -6674776.595 9
  22680920.072   -13346669.460 6 -10255892.450 7
  22228184.033   -15084446.247 6 -12116204.444 8
  24865856.283    -1382426.551 4   -939984.812 4
 94  2  2  3 56  0.0020000  0  8 24  2 12 13  7  9  4 26
  24006451.463    -5233970.663 5  -4000150.109 5
  23055992.979     6115472.571 6   4794072.067 6
  23580864.408    -9054039.343 6  -5609877.213 6
  21333831.158   -19873713.573 7 -14342431.478 6
  22444530.197    -8696740.661 7  -6620997.326 9
  22670032.713   -13403895.160 6 -10300483.900 7
  22217492.252   -15140625.550 6 -12159980.518 8
  24880840.814    -1303675.420 4   -878620.314 4
 94  2  2  3 56 30.0020000  0  8 24  2 12 13  7  9  4 26
  23988229.205    -5329721.819 5  -4074761.368 5
  23067122.705     6173965.836 6   4839651.205 6
  23566319.424    -9130455.243 6  -5669422.073 5
  21333731.939   -19874225.859 7
  22457698.416    -8627537.349 7  -6567072.678 8
  22659211.760   -13460734.313 6 -10344774.146 7
  22206888.166   -15196358.658 6 -12203408.891 8
  24895843.619    -1224813.013 3   -817169.124 4
 94  2  2  3 57  0.0020000  0  8 24  2 12 13  7  9  4 26
  23970038.260    -5425314.184 5  -4149248.900 6
  23078293.291     6232671.014 6   4885395.493 6
  23551818.158    -9206674.828 6  -5728813.937 5
  21333742.041   -19874196.623 7
  22470909.182    -8558124.163 7  -6512984.474 8
  22648474.041   -13517170.048 6 -10388750.036 7
  22196369.439   -15251637.118 6 -12246483.000 8
  24910881.932    -1145834.927 4   -755627.772 4
 94  2  2  3 57 30.0020000  0  8 24  2 12 13  7  9  4 26
  23951880.236    -5520747.422 5  -4223612.436 5
  23089509.807     6291596.565 6   4931311.499 6
  23537348.861    -9282694.887 6  -5788050.346 6
  21333848.439   -19873626.079 7
  22484155.807    -8488506.764 7  -6458737.152 8
  22637807.783   -13573213.205 6 -10432420.028 7
  22185934.947   -15306456.276 6 -12289199.208 8
  24925926.080    -1066745.870 4   -693999.950 3
 94  2  2  3 58  0.0020000  0  8 24  2 12 13  7  9  4 26
  23933753.900    -5616018.443 5  -4297849.593 5
  23100766.760     6350753.006 6   4977407.433 6
  23522921.963    -9358517.216 6  -5847132.669 6
  21334056.400   -19872519.740 7 -14341501.181 6
  22497436.572    -8418707.997 6  -6404348.511 8
  22627220.658   -13628854.202 6 -10475776.640 7
  22175591.127   -15360821.120 6 -12331561.401 8
  24940998.010     -987548.100 4   -632287.418 4
 94  2  2  3 58 30.0020000  0  8 24  2 12 13  7  9  4 26
  23915650.182    -5711114.346 5  -4371950.283 5
  23112069.174     6410149.519 6   5023690.413 6
  23508528.369    -9434146.999 6  -5906064.944 6
  21334372.822   -19870886.392 7 -14340228.437 6
  22510749.010    -8348750.953 7  -6349836.530 8
  22616709.658   -13684086.904 6 -10518815.104 7
  22165327.807   -15414734.301 6 -12373571.649 8
  24956094.174     -908254.913 5   -570500.522 4
 94  2  2  3 59  0.0020000  0  8 24  2 12 13  7  9  4 26
  23897586.611    -5806034.629 5  -4445914.139 5
  23123420.174     6469795.277 6   5070167.615 6
  23494175.830    -9509580.067 6  -5964843.954 6
  21334780.705   -19868725.260 7 -14338544.427 6
  22524091.713    -8278637.372 7  -6295202.568 8
  22606280.424   -13738906.948 6 -10561532.024 7
  22155156.596   -15468181.894 6 -12415219.110 8
  24971191.736     -828875.384 4   -508646.383 3
 94  2  2  3 59 30.0020000  0  8 24  2 12 13  7  9  4 26
  23879567.244    -5900770.239 5  -4519734.057 6
  23134821.713     6529708.406 6   5116853.153 6
  23479859.119    -9584801.749 6  -6023458.235 6
  21335294.205   -19866025.635 7 -14336440.815 6
  22537465.791    -8208349.903 7  -6240433.115 8
  22595926.033   -13793296.123 6 -10603913.199 7
  22145080.463   -15521144.609 6 -12456488.741 8
  24986309.854     -749399.923 4   -446717.423 4
 94  2  2  4  0  0.0030000  0  8 24  2 12 13  7  9  4 26
  23861573.397    -5995316.153 5  -4593406.183 6
  23146267.749     6589875.981 6   5163736.960 6
  23465583.452    -9659819.383 6  -6081913.527 6
  21335909.694   -19862795.693 7 -14333923.961 6
  22550879.522    -8137887.350 7  -6185527.229 8
  22585661.460   -13847246.947 6 -10645952.795 7
  22135091.155   -15573636.194 6 -12497391.258 8
  25001458.108     -669825.793 5   -384711.629 5
 94  2  2  4  0 30.0030000  0  8 24  2 12 13  7  9  4 26
  23843614.007    -6089672.022 5  -4666930.210 6
  23157764.366     6650279.740 6   5210804.814 6
  23451351.647    -9734622.502 6  -6140201.661 6
  21336626.226   -19859034.037 7 -14330992.802 6
  22564319.132    -8067239.336 6  -6130476.831 8
  22575480.944   -13900751.961 6 -10687645.014 7
  22125191.093   -15625654.718 6 -12537925.162 8
  25016611.233     -590169.141 4   -322641.551 2
 94  2  2  4  1  0.0030000  0  8 24  2 12 13  7  9  4 26
  23825694.405    -6183852.060 5  -4740317.232 5
  23169301.976     6710901.895 6   5258042.843 6
  23437155.147    -9809219.249 6  -6198328.981 6
  21337440.530   -19854749.816 7 -14327654.439 6
  22577797.569    -7996412.099 7  -6075286.778 8
  22565380.991   -13953821.400 6 -10728997.822 7
  22115383.546   -15677209.835 6 -12578097.960 8
  25031782.108     -510440.379 4   -260515.223 4
 94  2  2  4  1 30.0030000  0  8 24  2 12 13  7  9  4 26
  23807806.929    -6277836.747 5  -4813552.061 5
  23180878.671     6771747.708 6   5305455.157 6
  23423001.585    -9883602.842 6  -6256290.214 6
  21338354.397   -19849940.079 7 -14323906.580 6
  22591310.101    -7925412.613 7  -6019962.510 8
  22555366.663   -14006449.447 6 -10770006.696 7
  22105659.569   -15728297.428 6 -12617906.455 8
  25046982.499     -430617.652 5   -198315.709 3
 94  2  2  4  2  0.0030000  0  8 24  2 12 13  7  9  4 26
  23789962.077    -6371627.972 5  -4886636.118 5
  23192502.421     6832822.199 6   5353045.651 6
  23408884.843    -9957771.533 6  -6314083.994 6
  21339369.054   -19844606.901 7 -14319750.847 6
  22604849.710    -7854250.435 6  -5964511.461 8
  22545433.538   -14058639.266 6 -10810674.075 7
  22096026.608   -15778911.503 6 -12657345.985 8
  25062187.757     -350690.321 4   -136034.685 3
 94  2  2  4  2 30.0030000  0  8 24  2 12 13  7  9  4  5
  23772146.265    -6465227.270 5  -4959570.618 5
  23204170.140     6894142.199 6   5400827.449 6
  23394811.015   -10031723.711 6  -6371709.062 6
  21340483.726   -19838752.134 7 -14315188.686 6
  22618421.897    -7782932.957 6  -5908939.404 8
  22535585.429   -14110393.926 6 -10851002.393 7
  22086486.046   -15829044.182 6 -12696410.401 8
  25052175.530          -0.27815
 94  2  2  4  3  0.0030000  0  8 24  2 12 13  7  9  4  5
  23754376.280    -6558617.924 5  -5032342.544 5
  23215892.124     6955732.953 6   5448820.228 6
  23380785.444   -10105447.298 6  -6429155.988 6
  21341701.460   -19832367.879 7 -14310213.937 6
  22632022.897    -7711448.992 6  -5853237.619 8
  22525823.569   -14161704.699 6 -10890984.801 7
  22077047.538   -15878666.367 6 -12735077.025 8
  25038283.765      -72977.819 3
 94  2  2  4  3 30.0030000  0  8 24  2 12 13  7  9  4  5
  23736637.827    -6651826.012 5  -5104972.222 5
  23227658.304     7017571.081 6   5497005.762 6
  23366792.522   -10178961.651 6  -6486439.906 6
  21343009.765   -19825477.224 7 -14304844.582 6
  22645655.522    -7639812.768 6  -5797417.184 8
  22516140.327   -14212592.951 6 -10930637.980 7
  22067693.835   -15927792.623 6 -12773357.212 8
  25024397.351     -145978.046 4        -0.25114
 94  2  2  4  4  0.0030000  0  8 24  2 12 13  7  9  4  5
  23718939.640    -6744833.049 5  -5177445.214 6
  23239472.593     7079663.291 6   5545389.281 6
  23352849.827   -10252241.556 6
  21344421.952   -19818058.820 7 -14299063.995 6
  22659323.046    -7568002.972 6  -5741461.502 8
  22506540.155   -14263029.647 6 -10969939.306 7
  22058446.468   -15976399.815 6 -12811232.934 8
  25010498.772     -219005.034 4
 94  2  2  4  4 30.0030000  0  8 24  2 12 13  7  9  4  5
  23701282.608    -6837645.361 5  -5249766.504 6
  23251330.585     7141971.059 6   5593940.778 6
  23338946.218   -10325304.192 6
  21345930.085   -19810133.679 7 -14292888.557 6
  22673012.538    -7496047.012 6  -5685391.925 8
  22497026.147   -14313025.338 6 -11008896.988 7
  22049295.046   -16024505.949 6 -12848718.225 8
  24996595.968     -292082.084 5
 94  2  2  4  5  0.0030000  0  8 24  2 12 13  7  9  4  5
  23683658.757    -6930250.998 5  -5321926.720 6
  23263228.569     7204486.377 6   5642654.000 6
  23325084.772   -10398138.207 6  -6657226.802 6
  21347536.937   -19801694.428 7 -14286312.511 6
  22686734.522    -7423944.446 6  -5629208.117 8
  22487598.405   -14362572.110 6 -11047504.863 7
  22040239.585   -16072089.422 6 -12885796.246 8
  24982675.757     -365211.005 4   -170831.012 3
 94  2  2  4  5 30.0030000  0  8 24  2 12 13  7  9  4  5
  23666079.265    -7022632.100 5  -5393911.968 5
  23275163.476     7267218.139 6   5691535.874 6
  23311270.960   -10470733.749 6  -6713794.753 6
  21349241.140   -19792735.317 7 -14279331.387 6
  22700483.210    -7351696.464 6  -5572910.980 8
  22478259.765   -14411655.533 6 -11085751.688 7
  22031282.046   -16119151.313 6 -12922467.835 8
  24968748.866     -438383.771 4   -227848.736 2
 94  2  2  4  6  0.0030000  0  8 24  2 12 13  7  9  4  5
  23648537.069    -7114796.718 5  -5465728.554 6
  23287143.640     7330176.211 6   5740594.102 6
  23297502.030   -10543101.118 6  -6770184.895 6
  21351041.186   -19783270.315 7 -14271956.053 6
  22714255.093    -7279328.607 6  -5516520.445 8
  22468999.843   -14460288.917 6 -11123647.830 8
  22022426.374   -16165699.880 6 -12958739.436 8
  24954820.796     -511586.355 4   -284889.710 3
 94  2  2  4  6 30.0030000  0  8 24  2 12 13  7  9  4  5
  23631048.077    -7206734.323 5  -5537368.235 6
  23299176.116     7393400.810 6   5789859.998 6
  23283775.015   -10615224.216 6  -6826384.725 6
  21352941.358   -19773287.328 7 -14264177.101 6
  22728052.968    -7206820.586 6  -5460020.691 8
  22459836.272   -14508468.341 6 -11161190.232 7
  22013672.249   -16211712.929 6 -12994593.758 8
  24940888.827     -584776.529 4   -341921.002 4
 94  2  2  4  7  0.0030000  0  8 24  2 12 13  7  9  4  5
  23613592.116    -7298449.068 5  -5608834.250 6
  23311262.468     7456909.209 6   5839347.041 6
  23270095.608   -10687100.250 6  -6882392.009 6
  21354940.765   -19762787.686 7 -14255995.554 6
  22741878.585    -7134163.112 6  -5403404.481 8
  22450750.936   -14556199.415 6 -11198383.279 7
  22005013.038   -16257198.461 6 -13030037.017 8
  24926962.265     -657959.581 5   -398946.733 3
 94  2  2  4  7 30.0030000  0  8 24  2 12 13  7  9  4  5
  23596180.233    -7389940.169 5  -5680125.999 6
  23323404.366     7520717.957 6   5889068.116 6
  23256471.561   -10758723.120 6  -6938202.034 6
  21357035.968   -19751769.359 7 -14247409.837 6
  22755735.069    -7061348.560 6  -5346665.870 8
  22441755.640   -14603469.910 6 -11235217.440 8
  21996454.007   -16302177.616 6 -13065085.694 8
  24913037.390     -731135.449 4   -455966.871 4
 94  2  2  4  8  0.0030000  0  8 24  2 12 13  7  9  4  5
  23578820.507    -7481207.600 5  -5751243.445 5
  23335602.647     7584804.750 6   5939005.864 6
  23242892.921   -10830085.691 6  -6993809.231 6
  21359232.319   -19740229.349 7 -14238417.620 6
  22769619.218    -6988370.114 6  -5289799.548 8
  22432850.530   -14650272.248 6 -11271686.794 8
  21987993.444   -16346647.178 6 -13099737.290 8
  24899118.897     -804300.713 4   -512978.743 4
 94  2  2  4  8 30.0030000  0  8 24  2 12 13  7  9  4  5
  23561491.179    -7572244.752 5  -5822181.477 6
  23347836.991     7649122.571 6   5989123.617 6
  23229358.694   -10901197.708 6  -7049221.184 6
  21361525.405   -19728181.307 7 -14229029.533 6
  22783540.187    -6915228.334 6  -5232805.953 8
  22424031.968   -14696612.310 6 -11307795.941 7
  21979624.679   -16390628.329 6 -13134008.294 8
  24885190.616     -877493.279 4   -570011.887 3
 94  2  2  4  9  0.0030000  0  8 24  2 12 13  7  9  4  5
  23544212.374    -7663039.487 5  -5892930.590 6
  23360117.108     7713654.535 6   6039408.248 6
  23215872.686   -10972053.911 6  -7104433.810 6
  21363914.726   -19715623.970 7 -14219244.579 6
  22797491.640    -6841919.202 6  -5175681.958 8
  22415305.210   -14742474.092 6 -11343532.393 8
  21971343.772   -16434126.032 6 -13167902.593 8
  24871257.015     -950720.156 4   -627071.792 3
 94  2  2  4  9 30.0030000  0  8 24  2 12 13  7  9  4  5
  23526980.522    -7753592.474 5  -5963491.337 6
  23372438.913     7778387.716 6   6089849.666 6
  23202438.843   -11042656.367 6  -7159448.712 6
  21366401.804   -19702563.682 7 -14209067.720 6
  22811471.507    -6768448.249 6  -5118431.865 8
  22406670.608   -14787859.022 6 -11378897.281 7
  21963161.554   -16477134.681 6 -13201415.817 8
  24857316.085    -1023980.556 5   -684157.798 5
 94  2  2  4 10  0.0030000  0  8 24  2 12 13  7  9  4  5
  23509799.249    -7843900.913 6  -6033861.527 6
  23384791.061     7843314.456 6   6140441.918 6
  23189050.226   -11113002.378 6  -7214263.777 6
  21368980.960   -19689001.602 7 -14198499.866 6
  22825484.163    -6694816.462 6  -5061056.450 8
  22398118.780   -14832779.459 6 -11413900.220 8
  21955076.811   -16519635.892 6 -13234533.632 8
  24843368.343    -1097262.594 4   -741260.661 4
 94  2  2  4 10 30.0030000  0  8 24  2 12 13  7  9  4  5
  23492652.522    -7933980.541 5  -6104053.438 6
  23397185.765     7908451.194 6   6191197.800 6
  23175714.882   -11183103.277 6  -7268887.845 6
  21371654.007   -19674953.641 7 -14187553.389 6
  22839521.179    -6621040.988 6  -5003569.072 8
  22389657.499   -14877252.108 6 -11448554.231 8
  21947084.202   -16561637.322 6 -13267262.007 8
  24829418.640    -1170579.474 4   -798390.678 3
 94  2  2  4 11  0.0030000  0  8 24  2 12 13  7  9  4  5
  23475556.882    -8023834.886 6  -6174069.777 6
  23409631.757     7973839.275 6   6242149.522 6
  23162423.499   -11252935.653 6  -7323302.695 6
  21374423.804   -19660400.428 7 -14176213.216 6
  22853589.147    -6547115.045 6  -4945964.443 8
  22381284.851   -14921252.652 6 -11482840.378 7
  21939189.687   -16603115.940 6 -13299582.991 8
  24815472.679    -1243894.912 5   -855519.559 4
 94  2  2  4 11 30.0030000  0  8 24  2 12 13  7  9  4  5
  23458495.546    -8113479.524 5  -6243922.723 6
  23422118.374     8039465.247 6   6293286.633 6
  23149183.921   -11322510.708 6  -7377517.020 6
  21377285.062   -19645357.261 7 -14164491.261 6
  22867678.390    -6473069.575 6  -4888266.678 8
  22373001.179   -14964789.207 6 -11516764.976 8
  21931394.069   -16644075.841 6 -13331499.787 8
  24801514.788    -1317223.073 5   -912658.368 3
 94  2  2  4 12  0.0030000  0  8 24  2 12 13  7  9  4  5
  23441479.726    -8202892.174 6  -6313594.915 6
  23434656.858     8105344.771 6   6344621.305 6
  23135996.319   -11391816.860 6  -7431521.801 6
  21380243.749   -19629816.652 7 -14152381.689 6
  22881791.335    -6398909.630 6  -4830479.708 8
  22364809.147   -15007839.152 6 -11550310.387 8
  21923700.655   -16684504.781 6 -13363002.844 8
  24787559.663    -1390554.627 4   -969799.830 4
 94  2  2  4 12 30.0030000  0  8 24  2 12 13  7  9  4  5
  23424515.476    -8292046.847 6  -6383066.064 6
  23447243.796     8171495.119 6   6396167.001 6
  23122861.335   -11460843.359 6  -7485308.682 6
  21383294.976   -19613772.173 7 -14139879.493 6
  22895926.991    -6324627.737 6  -4772597.723 8
  22356714.210   -15050376.343 6 -11583456.258 8
  21916109.437   -16724395.387 6 -13394086.411 8
  24773599.601    -1463889.899 4  -1026944.200 4
 94  2  2  4 13  0.0030000  0  8 24  2 12 13  7  9  4  5
  23407603.382    -8380937.658 6  -6452331.608 6
  23459878.960     8237899.008 6   6447910.264 6
  23109775.944   -11529595.123 6  -7538881.492 6
  21386443.069   -19597233.073 7 -14126991.883 6
  22910086.476    -6250232.633 6  -4714627.515 7
  22348716.538   -15092404.674 6 -11616205.611 8
  21908621.069   -16763751.315 6 -13424753.361 8
  24759645.116    -1537239.713 4  -1084099.853 5
 94  2  2  4 13 30.0030000  0  8 24  2 12 13  7  9  4  5
  23390736.335    -8469548.562 5  -6521379.046 6
  23472563.304     8304549.882 6   6499845.993 6
  23096745.343   -11598079.329 6  -7592245.798 6
  21389684.249   -19580210.747 7 -14113727.722 6
  22924261.546    -6175733.227 6  -4656576.034 7
  22340812.788   -15133932.897 6 -11648565.264 8
  21901231.257   -16802577.393 6 -13455007.439 8
  24745685.960    -1610611.613 5  -1141272.707 5
 94  2  2  4 14  0.0030000  0  8 24  2 12 13  7  9  4  5
  23373929.030    -8557878.931 5  -6590207.899 6
  23485293.913     8371458.502 5   6551982.561 6
  23083762.390   -11666294.292 6  -7645400.317 6
  21393014.624   -19562707.806 7 -14100089.061 6
  22938461.069    -6101113.655 6  -4598430.916 7
  22333003.358   -15174976.034 6 -11680546.931 8
  21893944.226   -16840883.405 6 -13484856.267 8
  24731725.140    -1683995.929 5  -1198455.287 4
 94  2  2  4 14 30.0030000  0  8 24  2 12 13  7  9  4  5
  23357176.015    -8645930.721 6  -6658819.665 6
  23498075.780     8438632.859 5   6604326.179 6
  23070840.726   -11734220.686 6  -7698329.967 6
  21396439.280   -19544709.286 7 -14086064.232 6
  22952690.546    -6026344.405 6  -4540169.166 7
  22325285.983   -15215529.049 6 -11712146.688 8
  21886757.030   -16878662.924 7 -13514294.852 8
  24717756.569    -1757363.866 5  -1255625.092 3
 94  2  2  4 15  0.0030000  0  8 24  2 12 13  7  9  4  5
  23340463.952    -8733728.428 5  -6727233.448 6
  23510906.585     8506047.857 5   6656857.313 6
  23057967.671   -11801869.039 6  -7751042.968 6
  21399956.319   -19526229.901 7 -14071664.713 6
  22966943.390    -5951439.050 6  -4481801.364 7
  22317657.311   -15255606.903 6 -11743376.182 8
  21879661.968   -16915934.856 6 -13543337.897 8
  24703801.921    -1830717.011 5  -1312783.358 4
 94  2  2  4 15 30.0030000  0  8 24  2 12 13  7  9  4  5
  23323805.811    -8821276.115 6  -6795452.394 6
  23523784.171     8573717.100 6   6709586.577 6
  23045146.249   -11869229.257 6  -7803531.447 6
  21403563.718   -19507263.974 7 -14056886.056 6
  22981225.382    -5876386.870 6  -4423319.150 7
  22310125.491   -15295193.165 6 -11774222.618 8
  21872662.593   -16952695.822 6 -13571982.789 8
  24689851.460    -1904036.929 5  -1369915.718 4
 94  2  2  4 16  0.0030000  0  8 24  2 12 13  7  9  4  5
  23307190.272    -8908587.550 6  -6863487.267 6
  23536706.186     8641632.641 5   6762507.758 6
  23032382.311   -11936299.354 6  -7855793.857 6
  21407264.569   -19487813.749 7 -14041730.040 6
  22995537.296    -5801182.374 6  -4364718.244 7
  22302684.640   -15334284.657 6 -11804683.533 8
  21865768.858   -16988935.136 6 -13600221.194 8
  24675902.397    -1977341.077 5  -1427035.809 4
 94  2  2  4 16 30.0030000  0  8 24  2 12 13  7  9  4  5
  23290625.218    -8995645.532 6  -6931324.650 6
  23549676.515     8709794.245 5   6815620.659 6
  23019675.101   -12003073.532 6  -7907825.685 7
  21411059.382   -19467877.863 7 -14026195.572 6
  23009872.796    -5725839.127 6  -4306009.227 7
  22295345.913   -15372869.702 6 -11834749.799 8
  21858981.749   -17024634.194 7 -13628038.641 8
  24661948.390    -2050646.083 5  -1484156.571 4
 94  2  2  4 17  0.0030000  0  8 24  2 12 13  7  9  4  5
  23274107.382    -9082439.098 6  -6998955.981 6
  23562694.819     8778206.252 5   6868928.685 6
  23007029.796   -12069554.069 6  -7959628.695 7
  21414943.788   -19447462.834 7 -14010287.754 6
  23024231.491    -5650384.100 6  -4247213.106 7
  22288100.608   -15410946.605 6 -11864420.110 8
  21852290.421   -17059775.975 6 -13655421.837 8
  24647992.007    -2123975.684 5  -1541296.519 5
 94  2  2  4 17 30.0030000  0  8 24  2 12 13  7  9  4  5
  23257647.601    -9168970.764 6  -7066383.242 6
  23575758.655     8846869.691 5   6922432.638 6
  22994429.647   -12135743.332 6  -8011204.733 7
  21418918.968   -19426575.726 7 -13994012.072 6
  23038606.851    -5574837.372 6  -4188345.528 7
  22280951.694   -15448525.623 6 -11893702.459 8
  21845710.272   -17094349.282 6 -13682362.073 8
  24634028.897    -2197349.679 5  -1598471.033 5
 94  2  2  4 18  0.0030000  0  8 24  2 12 13  7  9  4  5
  23241227.999    -9255218.225 6  -7133589.040 6
  23588874.210     8915768.198 5   6976119.771 6
  22981893.163   -12201637.593 6  -8062550.913 7
  21422980.804   -19405217.238 7 -13977369.083 6
  23053001.710    -5499207.765 6  -4129413.372 7
  22273889.913   -15485622.767 6 -11922609.333 8
  21839238.077   -17128348.351 6 -13708854.841 8
  24620060.647    -2270767.352 5  -1655679.578 5
 94  2  2  4 18 30.0030000  0  8 24  2 12 13  7  9  4  5
  23224874.319    -9341163.658 6  -7200559.488 6
  23602036.132     8984912.436 5   7029998.365 6
  22969416.335   -12267226.141 6  -8113658.864 6
  21427138.569   -19383380.918 7 -13960353.766 6
  23067408.538    -5423500.276 6  -4070420.524 7
  22266924.202   -15522229.803 6 -11951134.296 8
  21832878.499   -17161774.648 6 -13734901.295 8
  24606078.311    -2344211.262 4  -1712908.572 5
 94  2  2  4 19  0.0030000  0  8 24  2 12 13  7  9  4  5
  23208573.147    -9426823.120 6  -7267307.122 6
  23615236.288     9054297.932 5   7084064.952 6
  22956990.952   -12332501.456 6  -8164522.756 7
  21431387.257   -19361063.555 7 -13942963.608 6
  23081832.468    -5347699.906 6  -4011355.300 7
  22260051.507   -15558331.852 6 -11979265.763 8
  21826626.546   -17194628.129 6 -13760501.402 8
  24592103.085    -2417669.366 5  -1770148.646 5
 94  2  2  4 19 30.0030000  0  8 24  2 12 13  7  9  4  5
  23192329.108    -9512202.415 6  -7333836.425 6
  23628481.452     9123910.205 5   7138308.252 6
  22944625.507   -12397468.431 6  -8215146.366 7
  21435721.749   -19338274.683 7 -13925206.039 6
  23096279.101    -5271784.515 6  -3952200.449 7
  22253273.155   -15593940.300 6 -12007012.613 8
  21820478.843   -17226933.286 6 -13785674.244 8
  24578124.054    -2491143.474 5  -1827401.150 5
 94  2  2  4 20  0.0030000  0  8 24  2 12 13  7  9  4  5
  23176133.280    -9597300.301 6  -7400146.453 6
  23641770.897     9193753.150 5   7192731.303 5
  22932321.358   -12462126.069 6  -8265528.941 7
  21440146.772   -19315017.670 7 -13907083.682 6
  23110747.866    -5195740.378 6  -3892945.281 7
  22246592.147   -15629055.548 6 -12034375.142 8
  21814435.843   -17258702.984 6 -13810429.839 8
  24564141.507    -2564630.324 5  -1884663.610 5
 94  2  2  4 20 30.0030000  0  8 24  2 12 13  7  9  4  5
  23159988.577    -9682134.052 6  -7466250.663 6
  23655109.101     9263835.860 5   7247341.183 6
  22920079.897   -12526476.061 6  -8315671.793 7
  21444661.960   -19291298.792 7 -13888601.441 6
  23125240.374    -5119559.225 6  -3833583.358 7
  22240009.577   -15663664.778 6 -12061343.386 8
  21808491.054   -17289942.564 7 -13834772.362 8
  24550153.296    -2638145.260 5  -1941947.946 5
 94  2  2  4 21  0.0030000  0  8 24  2 12 13  7  9  4  5
  23143905.882    -9766679.001 6  -7532129.836 6
  23668493.874     9334164.849 5   7302142.971 5
  22907894.358   -12590503.636 6  -8365563.402 7
  21449264.608   -19267107.844 7 -13869751.347 6
  23139774.124    -5043211.259 6  -3774091.431 7
  22233523.343   -15697751.198 6 -12087904.226 8
  21802648.179   -17320632.495 6 -13858686.584 8
  24536156.483    -2711661.302 5  -1999233.133 5
 94  2  2  4 21 30.0030000  0  8 24  2 12 13  7  9  4  5
  23127876.499    -9850907.764 6  -7597762.625 6
  23681925.554     9404747.669 5   7357142.535 5
  22895769.897   -12654210.754 6  -8415205.305 7
  21453956.663   -19242451.088 7 -13850538.287 6
  23154331.929    -4966707.303 6  -3714477.973 7
  22227134.929   -15731325.066 6 -12114065.686 8
  21796915.311   -17350778.534 6 -13882176.995 8
  24522171.155    -2785171.310 5  -2056513.639 5
 94  2  2  4 22  0.0030000  0  8 24  2 12 13  7  9  4  5
  23111900.522    -9934835.286 6  -7663160.680 6
  23695402.499     9475573.847 5   7412331.743 5
  22883705.116   -12717610.241 6  -8464607.507 7
  21458732.843   -19217345.924 7 -13830975.819 7
  23168915.233    -4890086.779 6  -3654773.672 7
  22220840.585   -15764386.657 6 -12139827.966 8
  21791283.429   -17380383.238 6 -13905245.586 8
  24508189.296    -2858681.023 5  -2113793.908 5
 94  2  2  4 22 30.0030000  0  8 24  2 12 13  7  9  4  5
  23095992.460   -10018434.277 6  -7728302.740 7
  23708924.999     9546643.270 5   7467710.501 5
  22871703.241   -12780685.188 6  -8513756.817 7
  21463596.030   -19191780.043 7 -13811054.343 6
  23183515.116    -4813349.720 6  -3594978.564 7
  22214651.772   -15796903.063 6 -12165165.429 8
  21785753.108   -17409433.779 7 -13927882.364 8
  24494205.218    -2932157.129 5  -2171047.987 5
 94  2  2  4 23  0.0030000  0  8 24  2 12 13  7  9  4  5
  23080150.390   -10101711.148 6  -7793193.788 7
  23722492.593     9617938.993 5   7523265.588 5
  22859760.405   -12843447.534 6  -8562662.533 7
  21468548.960   -19165769.922 7 -13790786.717 7
  23198130.616    -4736532.709 6  -3535121.163 7
  22208565.554   -15828898.163 6 -12190096.684 8
  21780325.874   -17437944.588 7 -13950098.567 8
  24480224.163    -3005607.999 5  -2228282.415 5
 94  2  2  4 23 30.0030000  0  8 24  2 12 13  7  9  4  5
  23064358.304   -10184666.839 6  -7857834.569 6
  23736103.241     9689486.410 5   7579016.800 5
  22847882.858   -12905875.091 6  -8611307.376 7
  21473585.515   -19139298.071 7 -13770159.301 6
  23212762.421    -4659636.101 6  -3475201.731 7
  22202578.101   -15860351.220 6 -12214605.561 8
  21775005.812   -17465897.645 7 -13971880.163 8
  24466256.366    -3079020.571 5  -2285486.988 5
 94  2  2  4 24  0.0030000  0  8 24  2 12 13  7  9  4  5
  23048635.827   -10267326.612 6  -7922244.780 6
  23749765.210     9761266.463 5   7634949.293 5
  22836063.726   -12967974.302 6  -8659696.380 7
  21478708.944   -19112375.184 7 -13749180.420 6
  23227411.577    -4582672.455 6  -3415230.070 7
  22196695.374   -15891270.091 6 -12238698.190 8
  21769795.093   -17493298.975 7 -13993231.831 8
  24452288.780    -3152408.478 5  -2342672.354 5
 94  2  2  4 24 30.0030000  0  8 24  2 12 13  7  9  4  5
  23032958.351   -10349684.409 6  -7986419.658 7
  23763470.593     9833273.626 5   7691058.743 5
  22824308.444   -13029742.750 6  -8707827.631 7
  21483918.616   -19085003.563 7 -13727851.880 6
  23242070.140    -4505631.637 6  -3355198.270 7
  22190911.405   -15921674.391 6 -12262389.862 8
  21764683.593   -17520154.275 7 -14014158.027 8
  24438328.077    -3225789.010 5  -2399851.967 5
 94  2  2  4 25  0.0030000  0  8 24  2 12 13  7  9  4  5
  23017345.304   -10431747.839 6  -8050365.179 7
  23777216.562     9905519.457 5   7747354.160 5
  22812620.952   -13091172.761 6  -8755695.160 7
  21489213.030   -19057180.088 7 -13706171.247 6
  23256749.983    -4428504.134 6  -3295098.927 7
  22185220.757   -15951580.770 6 -12285693.537 8
  21759679.999   -17546445.557 7 -14034644.733 8
  24424360.671    -3299178.843 5  -2457038.831 5
 94  2  2  4 25 30.0030000  0  8 24  2 12 13  7  9  4  5
  23001782.819   -10513511.358 6  -8114077.006 7
  23791009.155     9978002.095 5   7803834.105 5
  22800994.476   -13152267.075 6  -8803301.130 7
  21494591.116   -19028912.213 7 -13684144.330 7
  23271442.132    -4351289.529 6  -3234931.706 7
  22179620.741   -15980992.064 6 -12308611.425 8
  21754783.054   -17572184.525 7 -14054701.065 8
  24410392.054    -3372579.554 5  -2514234.182 5
 94  2  2  4 26  0.0030000  0  8 24  2 12 13  7  9  4  5
  22986289.319   -10594937.799 6  -8177526.167 7
  23804852.788    10050741.475 5   7860514.110 5
  22789436.272   -13213010.116 6  -8850633.367 7
  21500057.983   -19000188.766 7 -13661762.423 7
  23286154.210    -4273965.360 6  -3174679.112 7
  22174123.608   -16009901.734 6 -12331138.451 8
  21749988.905   -17597361.766 7 -14074319.682 8
  24396423.319    -3445985.087 5  -2571433.289 5
 94  2  2  4 26 30.0030000  0  8 24  2 12 13  7  9  4  5
  22970861.835   -10676031.725 6  -8240716.229 7
  23818741.421    10123731.492 5   7917389.416 5
  22777940.468   -13273410.687 6  -8897698.736 7
  21505606.241   -18971023.426 7 -13639036.178 6
  23300889.280    -4196537.782 6  -3114345.945 7
  22168713.561   -16038317.237 6 -12353280.408 8
  21745306.038   -17621987.489 7 -14093508.548 8
  24382454.061    -3519397.496 5  -2628637.732 5
 94  2  2  4 27  0.0030000  0  8 24  2 12 13  7  9  4  5
  22955486.124   -10756796.833 6  -8303650.069 7
  23832679.241    10196978.822 5   7974465.236 5
  22766515.874   -13333467.886 7  -8944496.550 7
  21511238.710   -18941419.574 7 -13615968.231 6
  23315641.796    -4119013.495 6  -3053937.411 7
  22163406.374   -16066217.793 6 -12375021.104 8
  21740721.351   -17646061.700 7 -14112267.660 8
  24368486.866    -3592792.273 5  -2685828.445 5
 94  2  2  4 27 30.0030000  0  8 24  2 12 13  7  9  4  5
  22940188.249   -10837228.240 6  -8366323.871 7
  23846665.647    10270479.462 5   8031738.430 5
  22755148.671   -13393185.708 7  -8991029.914 7
  21516954.616   -18911386.278 7 -13592565.657 6
  23330416.187    -4041385.737 6  -2993448.255 7
  22158193.483   -16093589.404 6 -12396349.632 8
  21736242.257   -17669594.684 7 -14130605.041 8
  24354520.944    -3666161.408 5  -2742999.195 5
 94  2  2  4 28  0.0030000  0  8 24  2 12 13  7  9  4  5
  22924943.210   -10917325.905 6  -8428737.630 7
  23860703.257    10344238.332 5   8089212.853 5
  22743852.804   -13452550.269 6  -9037288.019 7
  21522751.718   -18880914.099 7 -13568821.103 7
  23345208.991    -3963632.381 6  -2932861.231 7
  22153095.061   -16120412.621 6 -12417250.837 8
  21731870.522   -17692568.321 7 -14148506.567 8
  24340570.483    -3739500.690 5  -2800146.668 5
 94  2  2  4 28 30.0030000  0  8 24  2 12 13  7  9  4  5
  22909759.116   -10997097.023 6  -8490896.936 6
  23874783.249    10418247.501 5   8146882.317 5
  22732624.952   -13511556.511 7  -9083266.904 7
  21528633.835   -18850002.432 7 -13544734.080 7
  23360027.788    -3885764.477 6  -2872184.949 7
  22148091.882   -16146676.445 6 -12437716.157 8
  21727610.921   -17714970.064 7 -14165962.462 8
  24326620.319    -3812809.503 5  -2857270.400 5
 94  2  2  4 29  0.0030000  0  8 24  2 12 13  7  9  4  5
  22894642.866   -11076540.178 6  -8552800.682 7
  23888917.827    10492509.827 5   8204749.035 5
  22721464.780   -13570207.131 7  -9128968.682 7
  21534598.897   -18818658.882 7 -13520310.542 6
  23374864.429    -3807800.367 6  -2811433.700 7
  22143204.007   -16172377.589 6 -12457743.028 8
  21723455.827   -17736799.014 7 -14182972.016 8
  24312671.046    -3886105.082 5  -2914383.835 5
 94  2  2  4 29 30.0030000  0  8 24  2 12 13  7  9  4  5
  22879593.069   -11155636.941 6  -8614434.519 7
  23903093.546    10567031.480 5   8262817.824 5
  22710372.819   -13628489.398 6  -9174383.444 7
  21540648.327   -18786875.463 7 -13495544.241 7
  23389719.647    -3729740.428 6  -2750607.780 7
  22138418.694   -16197515.653 6 -12477331.134 8
  21719416.702   -17758029.649 7 -14199515.360 8
  24298728.522    -3959392.612 5  -2971490.981 5
 94  2  2  4 30  0.0030000  0  8 24  2 12 13  7  9  4  5
  22864605.187   -11234383.882 6  -8675795.754 7
  23917329.241    10641805.578 5   8321083.310 5
  22699354.140   -13686400.778 7  -9219509.189 7
  21546780.944   -18754653.875 7 -13470436.503 7
  23404587.593    -3651604.890 6  -2689722.957 7
  22133743.616   -16222094.118 6 -12496483.190 8
  21715489.851   -17778644.811 7 -14215579.110 8
  24284782.265    -4032667.841 5  -3028588.558 5
 94  2  2  4 30 30.0030000  0  8 24  2 12 13  7  9  4  5
  22849690.546   -11312793.556 6  -8736894.191 7
  23931600.897    10716809.013 5   8379527.512 5
  22688398.140   -13743962.070 7  -9264362.145 7
  21552990.257   -18722019.920 7 -13445007.440 7
  23419462.960    -3573430.714 6  -2628808.025 7
  22129168.601   -16246126.333 6 -12515209.605 8
  21711684.968   -17798658.304 7 -14231174.031 8
  24270839.515    -4105945.280 5  -3085687.851 5
 94  2  2  4 31  0.0030000  0  8 24  2 12 13  7  9  4  5
  22834834.858   -11390846.102 6  -8797714.341 7
  23945919.960    10792057.970 5   8438163.030 5
  22677517.397   -13801155.550 7  -9308928.498 7
  21559280.944   -18688960.405 7 -13419246.782 7
  23434351.687    -3495190.718 6  -2567841.812 7
  22124701.811   -16269602.714 6 -12533502.893 8
  21707993.429   -17818064.159 7 -14246295.458 8
  24256899.687    -4179200.574 5  -3142769.904 5
 94  2  2  4 31 30.0030000  0  8 24  2 12 13  7  9  4  5
  22820051.108   -11468542.195 6  -8858256.748 7
  23960286.499    10867538.072 5   8496978.666 5
  22666701.952   -13857975.111 7  -9353203.473 7
  21565656.468   -18655474.218 7 -13393153.646 7
  23449257.062    -3416869.430 6  -2506812.248 7
  22120338.054   -16292528.963 6 -12551367.518 8
  21704411.241   -17836868.883 7 -14260948.479 8
  24242967.976    -4252423.397 5  -3199826.620 5
 94  2  2  4 32  0.0030000  0  8 24  2 12 13  7  9  4  5
  22805326.280   -11545891.361 6  -8918528.824 7
  23974688.952    10943244.086 5   8555970.333 5
  22655960.804   -13914422.064 7  -9397188.108 7
  21572108.577   -18621567.098 7 -13366732.496 7
  23464177.390    -3338461.801 6  -2445715.400 7
  22116078.343   -16314909.827 6 -12568807.155 8
  21700945.351   -17855095.763 7 -14275151.226 8
  24229034.866    -4325614.877 5  -3256858.940 5
 94  2  2  4 32 30.0030000  0  8 24  2 12 13  7  9  4  5
  22790673.483   -11622915.068 6  -8978547.279 7
  23989139.655    11019177.135 5   8615138.912 5
  22645288.530   -13970504.919 7  -9440889.036 7
  21578636.046   -18587252.198 7 -13339993.618 7
  23479111.226    -3259972.962 6  -2384555.269 7
  22111920.452   -16336759.599 6 -12585832.956 8
  21697583.069   -17872774.766 7 -14288927.065 8
  24215107.319    -4398796.766 5  -3313883.779 5
 94  2  2  4 33  0.0030000  0  8 24  2 12 13  7  9  4  5
  22776081.874   -11699591.651 6  -9038295.252 7
  24003638.655    11095364.200 5   8674505.400 5
  22634689.811   -14026192.820 7  -9484282.201 7
  21585248.132   -18552503.402 7 -13312916.630 7
  23494069.562    -3181370.312 6  -2323306.450 6
  22107868.132   -16358062.499 6 -12602432.611 8
  21694324.343   -17889877.943 7 -14302254.203 8
  24201190.702    -4471943.186 5  -3370880.970 5
 94  2  2  4 33 30.0030000  0  8 24  2 12 13  7  9  4  5
  22761551.936   -11775938.118 6  -9097785.990 7
  24018184.616    11171788.322 5   8734056.620 5
  22624167.444   -14081498.666 7  -9527377.662 7
  21591942.983   -18517338.373 7 -13285515.319 7
  23509043.780    -3102673.586 6  -2261984.330 7
  22103918.601   -16378823.877 6 -12618610.315 8
  21691178.827   -17906407.094 7 -14315134.057 8
  24187272.983    -4545077.912 5  -3427869.057 5
 94  2  2  4 34  0.0030000  0  8 24  2 12 13  7  9  4  5
  22747088.218   -11851948.923 6  -9157015.177 7
  24032773.476    11248465.457 5   8793804.996 5
  22613716.358   -14136419.696 7  -9570173.268 7
  21598712.476   -18481759.190 7 -13257791.272 7
  23524034.585    -3023896.068 6  -2200599.265 6
  22100070.311   -16399045.830 6 -12634367.684 8
  21688146.296   -17922359.454 7 -14327564.455 8
  24173357.366    -4618202.717 5  -3484849.411 5
 94  2  2  4 34 30.0030000  0  8 24  2 12 13  7  9  4  5
  22732692.960   -11927610.076 6  -9215971.916 7
  24047412.757    11325399.284 5   8853753.395 5
  22603338.140   -14190955.157 7  -9612668.435 8
  21605560.733   -18445769.750 7 -13229747.548 7
  23539040.108    -2945042.708 6  -2139155.092 7
  22096320.468   -16418732.196 6 -12649707.713 8
  21685220.843   -17937735.247 7 -14339545.582 8
  24159442.515    -4691320.343 5  -3541824.168 5
 94  2  2  4 35  0.0030000  0  8 24  2 12 13  7  9  4  5
  22718359.601   -12002904.639 6  -9274642.983 7
  24062099.733    11402586.137 5   8913898.947 5
  22593037.921   -14245102.276 7  -9654860.988 8
  21612487.952   -18409371.821 7 -13201385.522 7
  23554064.702    -2866118.583 6  -2077655.773 7
  22092676.085   -16437891.559 6 -12664637.083 8
  21682402.890   -17952535.060 7 -14351077.897 8
  24145530.788    -4764418.638 5  -3598783.891 5
 94  2  2  4 35 30.0030000  0  8 24  2 12 13  7  9  4  5
  22704104.632   -12077825.071 6  -9333022.523 7
  24076838.163    11480028.873 5   8974243.900 5
  22582798.093   -14298865.662 6  -9696754.531 8
  21619488.702   -18372574.918 7 -13172712.596 7
  23569090.397    -2787136.451 6  -2016111.262 6
  22089133.272   -16456525.205 6 -12679156.806 8
  21679694.233   -17966770.084 7 -14362170.115 8
  24131629.101    -4837496.813 5  -3655727.893 5
 94  2  2  4 36  0.0030000  0  8 24  2 12 13  7  9  4  5
  22689925.476   -12152359.814 6  -9391101.532 7
  24091623.077    11557736.632 5   9034795.372 5
  22572643.577   -14352239.961 7  -9738344.892 8
  21626567.616   -18335378.250 7 -13143728.178 7
  23584130.155    -2708096.706 6  -1954521.858 6
  22085692.874   -16474622.572 6 -12693258.667 8
  21677090.647   -17980445.841 7 -14372826.539 8
  24117731.640    -4910540.352 5  -3712644.902 5
 94  2  2  4 36 30.0030000  0  8 24  2 12 13  7  9  4  5
  22675811.405   -12226505.595 6  -9448877.441 7
  24106462.796    11635708.788 5   9095552.857 5
  22562567.374   -14405213.280 7  -9779622.805 8
  21633722.780   -18297774.529 7 -13114426.574 7
  23599187.358    -2628978.123 6  -1892871.011 6
  22082353.569   -16492159.255 6 -12706923.613 8
  21674599.265   -17993537.233 7 -14383027.615 8
  24103838.163    -4983538.950 5  -3769526.919 5
 94  2  2  4 37  0.0030000  0  8 24  2 12 13  7  9  4  5
  22661774.804   -12300288.546 6  -9506370.622 7
  24121348.937    11713932.312 5   9156506.198 5
  22552562.835   -14457791.984 7  -9820593.206 8
  21640954.374   -18259775.165 7 -13084816.673 7
  23614251.538    -2549798.400 6  -1831172.538 6
  22079122.944   -16509125.674 6 -12720144.214 8
  21672222.554   -18006031.139 7 -14392763.109 8
  24089955.749    -5056497.037 5  -3826377.365 5
 94  2  2  4 37 30.0030000  0  8 24  2 12 13  7  9  4  5
  22647801.936   -12373697.760 6  -9563572.591 7
  24136277.655    11792412.803 5   9217659.789 5
  22542632.983   -14509962.889 6  -9861245.861 7
  21648263.108   -18221371.386 7 -13054891.652 7
  23629335.741    -2470541.870 6  -1769414.211 6
  22076007.452   -16525492.583 6 -12732897.653 8
  21669962.944   -18017913.007 7 -14402021.698 8
  24076076.077    -5129411.847 5  -3883194.079 5
 94  2  2  4 38  0.0030000  0  8 24  2 12 13  7  9  4  5
  22633895.077   -12446760.063 6
  24151259.679    11871116.687 5   9278987.485 4
  22532780.186   -14561743.458 7  -9901594.355 8
  21655642.913   -18182585.736 7 -13024669.062 7
  23644429.280    -2391231.709 6  -1707614.089 6
  22073000.343   -16541290.566 6 -12745207.772 8
  21667814.757   -18029206.844 7 -14410822.091 8
  24062205.515    -5202313.064 5
 94  2  2  4 38 30.0030000  0  8 24  2 12 13  7  9  4  5
  22620067.858   -12519455.434 6  -9677149.974 7
  24166279.421    11950049.967 5   9340493.910 5
  22523004.835   -14613116.277 7  -9941625.113 8
  21663098.929   -18143405.370 7 -12994138.899 7
  23659532.257    -2311851.610 6  -1645759.474 6
  22070103.249   -16556512.104 6 -12757068.712 8
  21665779.507   -18039898.838 7 -14419153.501 8
  24048334.921    -5275190.994 5  -3996788.194 5
 94  2  2  4 39  0.0030000  0  8 24  2 12 13  7  9  4  5
  22606305.218   -12591769.068 6  -9733498.237 7
  24181343.413    12029202.061 5   9402170.828 5
  22513304.483   -14664084.911 7  -9981340.932 8
  21670627.233   -18103838.357 7 -12963307.452 7
  23674649.007    -2232412.042 6  -1583858.520 6
  22067314.351   -16571170.446 6 -12768490.802 8
  21663852.257   -18050020.327 7 -14427040.367 8
  24034472.062    -5348037.883 5  -4053551.997 5
 94  2  2  4 39 30.0030000  0  8 24  2 12 13  7  9  4  5
  22592623.460   -12663679.197 6  -9789532.097 7
  24196440.976    12108566.965 5
  22503688.171   -14714637.899 7 -10020732.871 8
  21678229.702   -18063878.268 7 -12932169.719 7
  23689782.702    -2152893.921 6
  22064629.960   -16585267.211 6 -12779475.294 8
  21662030.694   -18059593.233 7 -14434499.771 8
  24020620.561    -5420849.008 5  -4110287.929 5
 94  2  2  4 40  0.0030000  0  8 24  2 12 13  7  9  4  5
  22579012.147   -12735185.358 6  -9845251.173 7
  24211588.405    12188140.041 5
  22494145.671   -14764775.160 7 -10059800.859 8
  21685910.476   -18023529.620 7 -12900729.215 7
  23704928.233    -2073306.165 6
  22062054.382   -16598810.187 6 -12790028.268 8
  21660313.147   -18068617.216 7 -14441531.439 8
  24006774.030    -5493621.484 5  -4166993.717 5
 94  2  2  4 40 30.0030000  0  8 24  2 12 13  7  9  4  5
  22565482.741   -12806281.089 6  -9900650.430 7
  24226771.257    12267936.640 5   9588197.656 5
  22484683.812   -14814493.165 7 -10098542.161 8
  21693662.905   -17982793.634 7 -12868986.883 7
  23720086.163    -1993643.251 6  -1397804.946 6
  22059586.046   -16611790.403 6 -12800142.726 8
  21658702.202   -18077088.113 7 -14448132.126 8
  23992930.218    -5566341.470 5  -4223658.638 5
 94  2  2  4 41  0.0030000  0  8 24  2 12 13  7  9  4  5
  22552035.241   -12876977.332 6  -9955738.405 7
  24242000.069    12347963.984 5   9650556.607 5
  22475301.686   -14863795.552 7 -10136959.605 8
  21701483.202   -17941678.654 7 -12836949.232 7
  23735257.624    -1913922.670 6  -1335685.016 6
  22057223.171   -16624215.443 6 -12809824.569 8
  21657192.374   -18085011.563 7 -14454306.236 8
  23979105.999    -5639017.024 5  -4280288.947 5
 94  2  2  4 41 30.0030000  0  8 24  2 12 13  7  9  4  5
  22538653.874   -12947279.528 6 -10010519.326 7
  24257276.054    12428231.982 5   9713103.086 5
  22465997.288   -14912686.975 7 -10175056.819 8
  21709378.546   -17900193.886 7 -12804623.430 7
  23750435.788    -1834152.118 6  -1273526.154 6
  22054965.483   -16636077.455 6 -12819067.701 8
  21655789.491   -18092376.074 7 -14460044.811 8
  23965284.757    -5711661.584 5  -4336895.084 5
 94  2  2  4 42  0.0030000  0  8 24  2 12 13  7  9  4  5
  22525349.397   -13017179.503 6 -10064986.817 8
  24272603.210    12508775.996 5   9775864.628 5
  22456774.749   -14961154.396 7 -10212823.633 8
  21717346.257   -17858331.133 7 -12772003.102 7
  23765629.710    -1754325.878 6  -1211323.894 6
  22052816.108   -16647364.171 6 -12827862.555 8
  21654504.772   -18099140.397 7 -14465315.701 8
  23951467.671    -5784250.496 5  -4393457.869 6
 94  2  2  4 42 30.0030000  0  8 24  2 12 13  7  9  4  5
  22512127.569   -13086679.865 6 -10119142.937 7
  24287982.124    12589599.885 5   9838844.237 5
  22447631.210   -15009198.229 6 -10250260.388 8
  21725381.843   -17816095.500 7 -12739092.223 7
  23780831.108    -1674441.655 6  -1149076.453 6
  22050777.655   -16658085.996 6 -12836217.234 8
  21653329.038   -18105312.189 7 -14470124.886 8
  23937664.218    -5856783.912 5  -4449977.402 6
 94  2  2  4 43  0.0030000  0  8 24  2 12 13  7  9  4  5
  22498982.202   -13155771.744 6 -10172980.738 7
  24303413.327    12670693.087 5   9902033.696 5
  22438570.546   -15056812.029 7 -10287362.049 8
  21733490.155   -17773485.481 7 -12705889.606 7
  23796045.038    -1594495.045 6  -1086780.402 6
  22048849.444   -16668236.826 6 -12844126.970 8
  21652267.499   -18110882.074 7 -14474465.042 8
  23923872.358    -5929261.660 5  -4506453.570 5
 94  2  2  4 43 30.0030000  0  8 24  2 12 13  7  9  4  5
  22485907.944   -13224458.310 6 -10226502.733 8
  24318898.101    12752049.999 5   9965428.652 5
  22429590.046   -15103990.707 7 -10324124.649 8
  21741670.413   -17730500.399 7 -12672394.736 7
  23811269.366    -1514468.980 6  -1024422.443 6
  22047024.515   -16677822.665 6 -12851596.464 8
  21651327.538   -18115831.511 7 -14478321.740 8
  23910092.108    -6001675.284 5  -4562879.763 6
 94  2  2  4 44  0.0030000  0  8 24  2 12 13  7  9  4  5
  22472913.194   -13292744.646 6 -10279712.855 8
  24334426.866    12833666.694 5  10029026.025 5
  22420699.038   -15150726.378 7 -10360542.052 8
  21749921.710   -17687137.095 7 -12638605.148 7
  23826515.991    -1434360.123 6   -961999.961 6
  22045302.374   -16686863.868 6 -12858641.559 8
  21650503.397   -18120153.396 7 -14481689.427 8
  23896325.147    -6074030.510 5  -4619260.447 6
 94  2  2  4 44 30.0030000  0  8 24  2 12 13  7  9  4  5
  22459995.687   -13360629.476 6 -10332610.108 8
  24350001.577    12915513.125 5  10092802.430 5
  22411887.155   -15197031.352 7 -10396623.844 8
  21758242.483   -17643412.715 7 -12604534.198 7
  23841774.327    -1354191.758 6   -899531.108 6
  22043682.530   -16695362.960 6 -12865264.234 8
  21649796.233   -18123872.205 7 -14484587.188 8
  23882559.171    -6146360.854 5  -4675621.754 6
 94  2  2  4 45  0.0030000  0  8 24  2 12 13  7  9  4  5
  22447155.765   -13428106.517 6 -10385189.617 8
  24365622.608    12997591.240 5  10156759.369 5
  22403156.030   -15242900.347 7 -10432365.917 8
  21766631.249   -17599326.592 7 -12570181.376 7
  23857038.194    -1273965.787 6   -837017.380 6
  22042171.397   -16703299.930 6 -12871448.901 8
  21649208.874   -18126964.861 7 -14486997.051 8
  23868800.991    -6218667.270 5  -4731964.410 6
 94  2  2  4 45 30.0030000  0  8 24  2 12 13  7  9  4  5
  22434397.546   -13495160.539 6 -10437439.485 8
  24381285.765    13079912.368 5  10220905.668 4
  22394517.452   -15288319.320 7 -10467757.324 8
  21775090.288   -17554869.321 7 -12535539.351 7
  23872317.702    -1193676.579 6   -774454.375 6
  22040768.397   -16710661.213 6 -12877184.960 8
  21648740.913   -18129420.051 7 -14488910.178 8
  23855043.616    -6290939.635 5  -4788280.535 6
 94  2  2  4 46  0.0030000  0  8 24  2 12 13  7  9  4  5
  22421716.819   -13561785.035 6 -10489354.672 8
  24396993.913    13162456.299 5  10285225.579 5
  22385955.858   -15333297.058 7 -10502804.908 8
  21783620.077   -17510054.450 7 -12500618.665 7
  23887599.038    -1113358.973 6   -711869.234 6
  22039480.249   -16717442.737 6 -12882469.282 8
  21648393.921   -18131269.895 7 -14490351.598 8
  23841298.468    -6363191.652 5  -4844580.794 6
 94  2  2  4 46 30.0030000  0  8 24  2 12 13  7  9  4  5
  22409118.249   -13627981.121 6 -10540936.026 8
  24412740.624    13245220.873 5  10349717.430 5
  22377481.710   -15377831.464 7 -10537507.042 8
  21792215.507   -17464884.334 7 -12465421.164 7
  23902889.335    -1033014.445 6   -649263.122 6
  22038305.593   -16723627.135 6 -12887288.292 8
  21648150.530   -18132530.595 7 -14491333.956 8
  23827557.960    -6435409.490 5  -4900854.434 5
 94  2  2  4 47  0.0030000  0  8 24  2 12 13  7  9  4  5
  22396600.897   -13693765.140 6 -10592196.287 8
  24428533.561    13328202.689 5  10414378.527 5
  22369094.311   -15421921.063 7 -10571862.573 8
  21800880.343   -17419362.445 7 -12429949.563 7
  23918184.710     -952632.356 6   -586627.733 6
  22037238.882   -16729224.563 6 -12891649.931 8
  21648020.351   -18133211.194 7 -14491864.284 8
  23813820.772    -6507573.258 5  -4957085.931 6
 94  2  2  4 47 30.0030000  0  8 24  2 12 13  7  9  4  5
  22384162.647   -13759139.855 6 -10643137.615 8
  24444365.030    13411394.706 5  10479203.452 5
  22360792.413   -15465563.255 7 -10605869.474 8
  21809606.593   -17373490.777 7 -12394205.402 7
  23933488.272     -872216.939 6   -523966.376 6
  22036283.054   -16734243.955 6 -12895561.157 8
  21647996.202   -18133343.041 7
  23800100.624    -6579678.969 5  -5013272.191 6
 94  2  2  4 48  0.0030000  0  8 24  2 12 13  7  9  4  5
  22371796.921   -13824096.283 6 -10693753.000 8
  24460237.796    13494811.612 5  10544203.596 5
  22352570.312   -15508749.912 7 -10639521.420 8
  21818403.726   -17327265.878 7 -12358185.998 7
  23948798.280     -791759.128 6   -461271.988 6
  22035438.077   -16738677.824 6 -12899016.125 8
  21648073.851   -18132933.122 7
  23786394.233    -6651711.256 5  -5069401.245 6
 94  2  2  4 48 30.0030000  0  8 24  2 12 13  7  9  4  5
  22359517.405   -13888637.689 6 -10744044.993 8
  24476151.515    13578458.113 5  10609382.645 5
  22344437.140   -15551483.619 6 -10672820.408 8
  21827267.515   -17280694.924 7 -12321896.948 7
  23964120.366     -711245.019 6   -398533.734 6
  22034702.858   -16742539.428 6 -12902025.170 8
  21648258.288   -18131974.766 7 -14490900.802 8
  23772700.444    -6723664.114 6  -5125468.406 6
 94  2  2  4 49  0.0030000  0  8 24  2 12 13  7  9  4  5
  22347315.085   -13952765.070 6 -10794014.366 8
  24492118.327    13662332.174 5  10674739.018 4
  22336392.351   -15593767.011 7 -10705768.509 8
  21836193.663   -17233785.201 7 -12285343.923 7
  23979449.241     -630679.481 6   -335755.404 6
  22034074.929   -16745846.969 6 -12904602.482 8
  21648544.202   -18130462.600 7 -14489722.483 8
  23759025.335    -6795538.070 5  -5181474.068 6
 94  2  2  4 49 30.0030000  0  8 24  2 12 13  7  9  4  5
  22335191.601   -14016476.785 6 -10843659.846 8
  24508120.241    13746445.860 5  10740282.095 4
  22328430.468   -15635602.950 7 -10738367.938 8
  21845182.460   -17186544.127 7 -12248532.684 7
  23994791.366     -550076.542 6   -272947.927 6
  22033550.655   -16748608.090 6 -12906754.009 8
  21648937.015   -18128394.743 7 -14488111.161 8
  23745360.929    -6867349.838 6  -5237431.268 6
 94  2  2  4 50  0.0030000  0  8 24  2 12 13  7  9  4  5
  22323151.335   -14079767.099 6 -10892976.968 8
  24524178.999    13830818.978 5  10806027.345 4
  22320557.811   -15676982.333 7 -10770611.615 8
  21854238.030   -17138967.230 7 -12211459.790 7
  24010139.171     -469418.930 6   -210097.839 6
  22033133.069   -16750813.481 6 -12908472.497 8
  21649442.038   -18125742.894 7 -14486044.772 8
  23731705.101    -6939098.302 6  -5293339.175 6
 94  2  2  4 50 30.0030000  0  8 24  2 12 13  7  9  4  5
  22311186.460   -14142652.030 6 -10941978.189 8
  24540279.718    13915446.812 5  10871971.099 4
  22312770.835   -15717904.230 7 -10802498.810 8
  21863350.515   -17091058.066 7 -12174127.974 7
  24025496.194     -388705.877 6   -147204.556 6
  22032819.319   -16752456.419 6 -12909752.720 8
  21650058.319   -18122495.503 7 -14483514.330 8
  23718064.202    -7010793.523 6  -5349205.569 6
 94  2  2  4 51  0.0030000  0  8 24  2 12 13  7  9  4  5
  22299301.226   -14205119.233 6 -10990653.921 8
  24556441.304    14000344.255 5  10938124.927 3
  22305069.538   -15758354.461 7 -10834018.466 8
  21872534.405   -17042807.346 7 -12136530.011 7
  24040866.366     -307936.111 6    -84267.084 6
  22032618.413   -16753499.196 6 -12910565.275 8
  21650793.554   -18118635.626 7 -14480506.629 8
  23704430.890    -7082432.853 6  -5405028.413 6
 94  2  2  4 51 30.0030000  0  8 24  2 12 13  7  9  4  5
  22287490.874   -14267151.297 6 -11038990.579 8
  24572642.030    14085506.226 5  11004484.877 4
  22297463.757   -15798333.904 6 -10865171.285 8
  21881780.741   -16994220.376 7 -12098670.034 7
  24056246.483     -227119.097 5    -21292.784 6
  22032538.397   -16753923.532 6
  21651645.569   -18114165.339 7 -14477023.277 8
  23690806.093    -7154023.287 6  -5460813.162 6
 94  2  2  4 52  0.0030000  0  8 24  2 12 13  7  9  4  5
  22275768.608   -14328744.072 6 -11086984.931 8
  24588896.468    14170908.470 5  11071032.050 5
  22289945.702   -15837851.199 7 -10895963.986 8
  21891085.476   -16945310.522 7 -12060558.459 7
  24071632.022     -146263.573 5     41711.506 6
  22032574.616   -16753730.227 6
  21652610.444   -18109102.729 7 -14473078.378 8
  23677193.382    -7225556.951 6  -5516553.673 6
 94  2  2  4 52 30.0030000  0  8 24  2 12 13  7  9  4  5
  22264137.913   -14389870.844 6 -11134616.170 8
  24605190.061    14256555.451 5  11137769.919 5
  22282514.140   -15876897.184 7 -10926389.429 8
  21900457.491   -16896072.907 7 -12022191.482 7
  24087025.702      -65373.561 6    104742.667 6
  22032729.069   -16752920.681 6 -12910114.507 8
  21653684.374   -18103444.071 7 -14468669.033 8
  23663595.796    -7297012.631 6  -5572233.422 6
 94  2  2  4 53  0.0030000  0  8 24  2 12 13  7  9  4  5
  22252596.429   -14450508.784 6 -11181866.506 8
  24621538.991    14342447.136 5  11204698.457 4
  22275174.312   -15915467.964 7 -10956444.582 8
  21909889.272   -16846508.484 7 -11983569.855 7
  24102421.593       15548.563 5    167798.868 6
  22032996.991   -16751517.326 6 -12909020.992 8
  21654872.444   -18097195.560 7 -14463800.047 8
  23650018.233    -7368383.335 6  -5627846.945 6
 94  2  2  4 53 30.0030000  0  8 24  2 12 13  7  9  4  5
  22241148.397   -14510677.454 6 -11228751.172 8
  24637923.429    14428561.656 4  11271800.625 4
  22267927.179   -15953570.891 7 -10986135.179 8
  21919381.515   -16796629.107 7 -11944702.802 7
  24117827.554       96504.820 5    230881.659 6
  22033369.249   -16749565.416 6 -12907500.028 8
  21656169.593   -18090377.136 7 -14458486.982 8
  23636450.437    -7439676.729 6  -5683400.230 6
 94  2  2  4 54  0.0030000  0  8 24  2 12 13  7  9  4  5
  22229789.702   -14570386.707 6 -11275277.839 8
  24654356.827    14514903.770 4  11339080.147 4
  22260765.772   -15991190.285 7 -11015448.994 8
  21928936.483   -16746423.516 7 -11905581.555 7
  24133241.444      177508.857 5    294001.685 6
  22033840.124   -16747071.380 6 -12905556.632 8
  21657579.038   -18082975.958 7 -14452719.827 8
  23622900.749    -7510885.106 6  -5738887.264 6
 94  2  2  4 54 30.0030000  0  8 24  2 12 13  7  9  4  5
  22218503.632   -14629673.993 6 -11321475.709 8
  24670826.054    14601449.756 4  11406518.521 3
  22253697.733   -16028335.840 7 -11044393.579 8
  21938547.538   -16695906.038 7 -11866217.293 7
  24148664.140      258546.619 5    357147.989 6
  22034414.569   -16744056.322 6 -12903207.240 8
  21659099.788   -18074996.493 7 -14446502.049 8
  23609360.577    -7582035.980 6  -5794329.511 6
 94  2  2  4 55  0.0030000  0  8 24  2 12 13  7  9  4  5
  22207298.937   -14688561.710 6 -11367362.225 8
  24687328.757    14688190.555 4  11474108.714 2
  22246719.671   -16065003.654 7 -11072965.901 8
  21948220.397   -16645077.281 7 -11826610.460 7
  24164092.272      339622.579 5    420324.046 6
  22035093.272   -16740507.397 6 -12900441.852 8
  21660728.819   -18066435.231 7 -14439830.935 8
  23595829.733    -7653129.932 6  -5849727.378 6
 94  2  2  4 55 30.0030000  0  8 24  2 12 13  7  9  4  5
  22196167.874   -14747042.856 6 -11412931.936 8
  24703875.499    14775143.811 5  11541864.462 2
  22239836.022   -16101174.618 7 -11101151.068 8
  21957956.327   -16593922.390 7 -11786749.518 7
  24179530.194      420752.405 5    483542.086 6
  22035876.022   -16736385.472 6 -12897229.980 8
  21662472.374   -18057265.218 7 -14432685.463 8
  23582314.116    -7724142.550 6  -5905061.890 6
 94  2  2  4 56  0.0030000  0  8 24  2 12 13  7  9  4  5
  22185119.405   -14805117.326 6 -11458184.759 8
  24720466.101    14862312.905 5  11609788.383 3
  22233042.944   -16136853.704 7 -11128952.952 8
  21967748.460   -16542451.019 7 -11746641.950 7
  24194976.671      501919.181 5    546788.924 6
  22036773.515   -16731671.829 6 -12893557.023 8
  21664332.601   -18047485.849 7 -14425065.164 8
  23568819.124    -7795070.846 6  -5960330.687 6
 94  2  2  4 56 30.0030000  0  8 24  2 12 13  7  9  4  5
  22174144.358   -14862767.217 6 -11503106.734 8
  24737097.194    14949702.445 5  11677884.091 3
  22226352.312   -16172045.115 7 -11156374.836 8
  21977604.249   -16490671.821 7 -11706294.521 7
  24210426.233      583120.528 5    610062.696 6
  22037780.007   -16726364.485 6 -12889421.444 8
  21666309.007   -18037105.727 7 -14416976.751 8
  23555340.686    -7865913.855 6  -6015533.022 6
 94  2  2  4 57  0.0030000  0  8 24  2 12 13  7  9  4  5
  22163264.890   -14919954.520 6 -11547668.258 8
  24753768.101    15037337.685 4  11746171.253 3
  22219747.062   -16206739.459 6 -11183409.387 8
  21987512.835   -16438580.001 7 -11665703.493 7
  24225890.499      664363.986 5    673369.283 6
  22038910.710   -16720452.928 6 -12884815.048 8
  21668397.460   -18026121.671 7 -14408417.739 8
  23541876.749    -7936662.518 6  -6070661.835 6
 94  2  2  4 57 30.0030000  0  8 24  2 12 13  7  9  4  5
  22152470.944   -14976662.216 6 -11591856.060 8
  24770490.679    15125211.849 4  11814644.593 4
  22213238.804   -16240941.647 6 -11210060.444 8
  21997487.460   -16386184.872 7 -11624876.120 7
  24241350.718      745634.248 5    736696.748 6
  22040147.054   -16713953.006 6 -12879750.181 8
  21670599.647   -18014557.286 7 -14399406.519 8
  23528426.351    -8007334.193 6  -6125730.670 6
 94  2  2  4 58  0.0030000  0  8 24  2 12 13  7  9  4  5
  22141774.749   -15032878.456 6 -11635660.912 8
  24787257.007    15213318.018 4  11883298.713 4
  22206824.351   -16274650.894 6 -11236327.389 8
  22007513.397   -16333489.982 7 -11583815.167 7
  24256826.046      826926.644 5    800041.464 6
  22041488.491   -16706882.572 6 -12874240.762 8
  21672909.897   -18002432.469 7 -14389958.608 8
  23514992.093    -8077939.454 6  -6180747.753 6
 94  2  2  4 58 30.0030000  0  8 24  2 12 13  7  9  4  5
  22131174.335   -15088588.080 6 -11679071.001 8
  24804067.780    15301650.711 4  11952129.333 5
  22200500.944   -16307868.110 6 -11262210.932 8
  22017599.608   -16280500.666 7 -11542524.790 7
  24272294.265      908233.893 5    863397.754 6
  22042942.843   -16699260.365 6 -12868301.394 8
  21675317.491   -17989761.553 7 -14380085.162 8
  23501567.804    -8148485.416 6  -6235718.621 6
 94  2  2  4 59  0.0030000  0  8 24  2 12 13  7  9  4  5
  22120663.812   -15143808.835 6 -11722100.141 8
  24820918.960    15390201.579 4  12021129.947 5
  22194277.101   -16340593.783 6 -11287711.459 8
  22027735.187   -16227221.780 7 -11501008.762 7
  24287769.749      989547.412 5    926758.922 6
  22044497.030   -16691082.672 6 -12861929.176 8
  21677832.858   -17976540.583 7 -14369783.106 8
  23488152.640    -8218969.598 6  -6290641.352 6
 94  2  2  4 59 30.0030000  0  8 24  2 12 13  7  9  4  5
  22110250.819   -15198534.765 6 -11764743.702 8
  24837817.538    15478984.895 4  12090311.716 4
  22188146.640   -16372802.348 7 -11312809.045 8
  22037932.327   -16173632.212 7 -11459250.665 7
  24303251.507     1070890.082 5    990142.826 6
  22046163.780   -16682318.521 6 -12855099.972 8
  21680459.671   -17962742.128 7 -14359031.055 8
  23474758.444    -8289364.814 6  -6345494.754 6
 94  2  2  5  0  0.0030000  0  8 24  2 12 13  7  9  4  5
  22099927.616   -15252789.565 6 -11807020.166 8
  24854757.694    15568001.243 4  12159675.053 4
  22182113.397   -16404504.837 7 -11337512.283 8
  22048185.890   -16119747.285 7 -11417262.405 7
  24318733.882     1152258.689 5   1053546.906 6
  22047943.171   -16672969.596 6 -12847815.093 8
  21683198.616   -17948360.498 7 -14347824.582 8
  23461381.171    -8359670.036 6  -6400278.030 6
 94  2  2  5  0 30.0030000  0  8 24  2 12 13  7  9  4  5
  22089689.866   -15306581.125 6 -11848935.653 8
  24871739.804    15657261.087 4  12229228.118 3
  22176179.241   -16435696.676 6 -11361817.611 8
  22058496.741   -16065566.866 7 -11375043.901 7
  24334222.085     1233657.603 5   1116974.622 6
  22049839.569   -16663017.807 6 -12840060.470 8
  21686047.319   -17933378.187 7 -14336150.049 8
  23448019.030    -8429881.585 6  -6454988.318 6
 94  2  2  5  1  0.0030000  0  8 24  2 12 13  7  9  4  5
  22079538.866   -15359930.797 6 -11890506.815 8
  24888764.397    15746760.687 4  12298968.018 4
  22170337.694   -16466376.256 6 -11385723.786 8
  22068865.874   -16011093.572 7 -11332597.182 7
  24349716.671     1315096.765 5   1180433.700 6
  22051849.866   -16652450.725 6 -12831826.394 8
  21689014.101   -17917786.043 7 -14324000.326 8
  23434677.796    -8500000.009 6  -6509626.032 6
 94  2  2  5  1 30.0030000  0  8 24  2 12 13  7  9  4  5
  22069474.968   -15412821.625 6 -11931720.438 8
  24905846.272    15836509.429 5  12368902.047 3
  22164598.726   -16496537.166 6 -11409225.796 8
  22079285.038   -15956325.468 7 -11289920.741 7
  24365227.015     1396581.794 5   1243928.526 5
  22053972.616   -16641278.423 6 -12823120.720 8
  21692096.632   -17901596.176 7 -14311384.844 8
  23421353.296    -8570015.210 6  -6564183.322 6
 94  2  2  5  2  0.0030000  0  8 24  2 12 13  7  9  4  5
  22059500.046   -15465243.788 6 -11972568.861 8
  24922978.687    15926503.276 5  12439027.099 4
  22158957.710   -16526187.065 6 -11432329.611 8
  22089762.444   -15901274.225 7 -11247023.662 7
  24380736.944     1478099.404 5   1307448.727 6
  22056211.202   -16629520.571 6 -12813958.771 8
  21695286.085   -17884825.483 7 -14298316.762 8
  23408049.007    -8639922.231 6  -6618656.315 6
 94  2  2  5  2 30.0030000  0  8 24  2 12 13  7  9  4  5
  22049612.827   -15517192.803 6 -12013048.611 8
  24940144.616    16016731.929 5  12509335.087 2
  22153416.280   -16555319.731 7 -11455030.386 8
  22100289.030   -15845938.231 7 -11203904.713 7
  24396254.874     1559647.144 5   1370992.412 5
  22058561.015   -16617178.822 6 -12804341.832 8
  21698588.429   -17867480.834 7 -14284801.444 8
  23394768.983    -8709716.343 6  -6673041.328 6
 94  2  2  5  3  0.0030000  0  8 24  2 12 13  7  9  4  5
  22039817.312   -15568672.386 6 -12053162.562 8
  24957348.640    16107168.327 4  12579804.981 2
  22147965.741   -16583945.970 6 -11477336.548 8
  22110874.272   -15790332.572 7 -11160575.621 7
  24411777.585     1641216.536 5   1434552.979 5
  22061017.468   -16604281.296 6 -12794291.826 8
  21701991.155   -17849583.544 7 -14270855.496 8
  23381509.405    -8779398.146 6  -6727338.814 6
 94  2  2  5  3 30.0030000  0  8 24  2 12 13  7  9  4  5
  22030115.749   -15619661.723 6 -12092894.493 8
  24974602.335    16197811.243 4  12650435.822 1
  22142616.116   -16612056.793 7 -11499241.086 8
  22121505.476   -15734452.253 7 -11117032.512 7
  24427308.163     1722806.877 5   1498129.845 5
  22063576.116   -16590828.462 6 -12783809.106 8
  21705505.702   -17831135.811 7 -14256480.637 8
  23368274.562    -8848956.764 6  -6781540.339 6
 94  2  2  5  4  0.0030000  0  8 24  2 12 13  7  9  4  5
  22020508.101   -15670157.480 6 -12132241.820 8
  24991891.194    16288666.935 3  12721232.433 1
  22137368.647   -16639638.737 7 -11520733.524 8
  22132191.983   -15678288.041 7 -11073268.198 7
  24442838.140     1804435.819 5   1561736.822 5
  22066242.944   -16576792.817 6 -12772872.250 8
  21709124.171   -17812114.231 7 -14241658.620 8
  23355058.796    -8918390.118 6  -6835644.240 6
 94  2  2  5  4 30.0030000  0  8 24  2 12 13  7  9  4  5
  22010987.226   -15720193.618 6 -12171231.010 8
  25009213.921    16379699.002 3  12792166.464 2
  22132218.319   -16666711.628 7 -11541829.273 8
  22142929.515   -15621864.019 7 -11029301.421 7
  24458374.710     1886081.075 5   1625356.477 6
  22069026.272   -16562193.120 6 -12761495.878 8
  21712849.561   -17792536.618 7 -14226403.332 8
  23341862.366    -8987737.921 6  -6889681.472 6
 94  2  2  5  5  0.0030000  0  8 24  2 12 13  7  9  4  5
  22001560.858   -15769748.444 6 -12209845.151 8
  25026573.819    16470926.066 3  12863252.435 2
  22127166.163   -16693260.967 7 -11562517.080 8
  22153721.374   -15565169.933 7 -10985124.218 7
  24473918.155     1967755.140 5   1688998.598 5
  22071915.679   -16547009.455 6 -12749664.460 8
  21716682.530   -17772388.867 7 -14210703.781 8
  23328683.452    -9056993.647 6  -6943646.971 6
 94  2  2  5  5 30.0030000  0  8 24  2 12 13  7  9  4  5
  21992220.952   -15818822.556 6 -12248084.711 8
  25043967.569    16562382.170 2  12934516.901 2
  22122215.890   -16719275.313 7 -11582788.004 8
  22164559.351   -15508198.552 7 -10940730.930 7
  24489463.601     2049462.651 5   1752666.773 5
  22074918.179   -16531221.194 6 -12737361.931 8
  21720628.812   -17751655.390 7 -14194547.816 8
  23315522.702    -9126148.796 6  -6997534.089 6
 94  2  2  5  6  0.0030000  0  8 24  2 12 13  7  9  4  5
  21982969.101   -15867429.468 6 -12285960.212 8
  25061426.069    16654069.112 2  13005961.224 1
  22117365.515   -16744764.095 6 -11602649.402 8
  22175455.140   -15450963.429 7 -10896132.137 7
  24505018.226     2131186.639 5   1816347.796 5
  22078034.343   -16514836.531 6 -12724594.664 8
  21724685.780   -17730332.249 7 -14177932.376 8
  23302382.226    -9195214.173 6  -7051351.265 6
 94  2  2  5  6 30.0030000  0  8 24  2 12 13  7  9  4  5
  21973809.233   -15915566.167 6 -12323469.319 8
  25078928.022    16745987.520 3  13077585.895 3
  22112614.499   -16769723.731 6 -11622098.471 8
  22186394.546   -15393465.052 7 -10851328.196 7
  24520572.382     2212924.624 5   1880039.727 5
  22081266.327   -16497868.458 6 -12711372.804 8
  21728854.976   -17708415.712 7 -14160854.550 8
  23289255.288    -9264181.074 6  -7105091.703 6
 94  2  2  5  7  0.0030000  0  8 24  2 12 13  7  9  4  5
  21964740.819   -15963219.856 6 -12360602.052 9
  25096455.647    16838158.742 3  13149407.539 1
  22107964.694   -16794150.287 6 -11641132.156 8
  22197386.210   -15335703.679 7 -10806319.333 7
  24536130.554     2294693.191 5   1943755.482 5
  22084606.835   -16480320.167 6 -12697698.823 8
  21733139.374   -17685905.767 7 -14143314.333 8
  23276155.288    -9333031.972 6  -7158741.746 6
 94  2  2  5  7 30.0030000  0  8 24  2 12 13  7  9  4  5
  21955764.890   -16010393.829 6 -12397360.981 8
  25114040.687    16930562.608 3  13221410.518 2
  22103419.515   -16818049.049 6 -11659754.569 8
  22208422.554   -15277688.538 7 -10761112.732 7
  24551696.116     2376480.632 5   2007485.956 5
  22088051.835   -16462211.953 6 -12683588.543 8
  21737533.390   -17662808.867 7 -14125316.739 8
  23263075.593    -9401767.565 6  -7212301.951 6
 94  2  2  5  8  0.0030000  0  8 24  2 12 13  7  9  4  5
  21946880.913   -16057075.075 6 -12433735.962 8
  25131668.218    17023178.783 3  13293578.901 2
  22098970.999   -16841419.140 6 -11677965.031 8
  22219513.460   -15219423.023 7 -10715711.033 7
  24567262.390     2458281.163 5   2071226.613 5
  22091598.780   -16443550.139 6 -12669046.882 8
  21742042.749   -17639134.947 7 -14106869.519 8
  23250014.015    -9470394.993 6  -7265777.870 7
 94  2  2  5  8 30.0030000  0  8 24  2 12 13  7  9  4  5
  21938088.694   -16103255.771 6 -12469720.910 8
  25149333.265    17116005.786 3  13365911.603 2
  22094626.702   -16864254.412 6 -11695758.752 8
  22230647.163   -15160904.980 7 -10670112.557 7
  24582830.444     2540103.736 5   2134984.463 5
  22095258.843   -16424333.214 6 -12654072.669 8
  21746654.038   -17614904.775 7 -14087988.868 8
  23236983.413    -9538900.363 6  -7319158.668 7
 94  2  2  5  9  0.0030000  0  8 24  2 12 13  7  9  4  5
  21929398.710   -16148926.063 6 -12505308.133 8
  25167031.061    17209033.247 3  13438400.485 4
  22090380.116   -16886559.043 6 -11713138.991 8
  22241833.421   -15102142.489 7 -10624323.613 7
  24598403.132     2621932.468 5   2198747.087 5
  22099021.772   -16404561.740 6 -12638666.334 8
  21751363.421   -17590136.584 7 -14068688.975 9
  23223964.038    -9607294.393 6  -7372452.705 6
 94  2  2  5  9 30.0030000  0  8 24  2 12 13  7  9  4  5
  21920803.093   -16194093.781 6 -12540503.749 8
  25184767.952    17302258.164 4  13511043.245 3
  22086240.929   -16908325.165 6 -11730099.609 8
  22253059.437   -15043131.700 7 -10578341.174 7
  24613973.061     2703754.832 5   2262504.779 5
  22102891.905   -16384219.290 6 -12622815.090 8
  21756179.960   -17564829.122 7 -14048968.871 8
  23210972.561    -9675573.992 6  -7425657.587 7
 94  2  2  5 10  0.0030000  0  8 24  2 12 13  7  9  4  5
  21912302.921   -16238757.566 6 -12575306.677 8
  25202555.772    17395695.448 4  13583851.465 2
  22082200.202   -16929549.702 7 -11746638.216 8
  22264339.210   -14983873.667 7 -10532166.087 7
  24629542.757     2785578.053 5   2326263.121 5
  22106872.890   -16363297.422 6 -12606512.355 8
  21761097.890   -17538983.903 6 -14028829.740 8
  23198001.960    -9743728.651 6  -7478765.104 7
 94  2  2  5 10 30.0030000  0  8 24  2 12 13  7  9  4  5
  21903902.608   -16282922.874 6 -12609721.194 8
  25220374.444    17489338.693 4  13656820.176 2
  22078265.444   -16950235.782 6 -11762757.243 8
  22275655.069   -14924375.349 7 -10485803.760 7
  24645114.929     2867406.112 5   2390025.240 5
  22110962.726   -16341802.960 6 -12589763.440 8
  21766119.921   -17512606.196 7 -14008275.672 8
  23185056.491    -9811753.092 6  -7531771.153 7
 94  2  2  5 11  0.0030000  0  8 24  2 12 13  7  9  4  5
  21895595.468   -16326578.037 6 -12643738.194 8
  25238234.476    17583196.400 4  13729956.029 2
  22074434.765   -16970364.708 6 -11778442.121 8
  22287031.179   -14864621.993 7 -10439242.696 7
  24660688.726     2949262.813 5   2453809.670 5
  22115165.163   -16319717.650 6 -12572554.121 8
  21771245.241   -17485666.761 7 -13987283.898 9
  23172141.022    -9879633.769 6  -7584665.184 7
 94  2  2  5 11 30.0030000  0  8 24  2 12 13  7  9  4  5
  21887380.421   -16369748.651 6 -12677377.618 8
  25256132.780    17677260.053 4  13803252.309 2
  22070708.085   -16989948.881 7 -11793702.520 8
  22298446.343   -14804629.895 7 -10392495.605 7
  24676270.226     3031147.311 5   2517615.771 5
  22119482.397   -16297049.640 6 -12554890.748 8
  21776473.413   -17458178.682 7 -13965864.617 9
  23159250.749    -9947375.001 6  -7637450.550 7
 94  2  2  5 12  0.0030000  0  8 24  2 12 13  7  9  4  5
  21879258.335   -16412423.365 6 -12710630.625 8
  25274071.335    17771518.436 4  13876700.357 2
  22067084.366   -17008992.464 7 -11808541.675 8
  22309906.530   -14744407.094 7 -10345568.758 7
  24691861.483     3113055.704 5   2581440.476 5
  22123906.140   -16273802.463 6 -12536776.082 8
  21781808.186   -17430140.368 6 -13944016.579 9
  23146382.929   -10014983.821 6  -7690132.737 7
 94  2  2  5 12 30.0030000  0  8 24  2 12 13  7  9  4  5
  21871232.476   -16454593.329 6 -12743490.334 8
  25292044.874    17865980.797 4  13950307.354 2
  22063565.702   -17027475.981 7 -11822944.426 7
  22321410.530   -14683937.971 7 -10298449.955 7
  24707449.296     3194998.827 5   2645292.260 5
  22128442.476   -16249965.855 6 -12518202.104 8
  21787255.577   -17401533.757 7 -13921725.709 9
  23133546.812   -10082449.499 6  -7742703.392 7
 94  2  2  5 13  0.0030000  0  8 24  2 12 13  7  9  4  5
  21863305.757   -16496267.777 6 -12775963.910 8
  25310061.210    17960650.263 4  14024075.718 1
  22060154.304   -17045405.900 6 -11836915.792 8
  22332966.054   -14623232.840 7 -10251147.254 7
  24723050.663     3276961.206 5   2709159.043 5
  22133088.085   -16225542.533 6 -12499170.963 8
  21792803.874   -17372356.991 6 -13898990.565 9
  23120730.327   -10149790.346 6  -7795176.766 7
 94  2  2  5 13 30.0030000  0  8 24  2 12 13  7  9  4  5
  21855469.296   -16537445.806 6 -12808050.677 8
  25328113.343    18055534.036 3  14098011.103 1
  22056845.913   -17062789.718 6 -11850461.629 8
  22344560.187   -14562303.154 7 -10203669.572 7
  24738645.218     3358925.519 5   2773027.331 5
  22137846.038   -16200539.200 6 -12479687.856 8
  21798465.819   -17342615.608 7 -13875815.459 9
  23107939.429   -10217018.306 6  -7847562.192 7
 94  2  2  5 14  0.0030000  0  8 24  2 12 13  7  9  4  5
  21847727.155   -16578121.829 6 -12839746.263 8
  25346213.530    18150633.346 3  14172114.400 1
  22053642.429   -17079619.286 6 -11863575.574 7
  22356197.866   -14501144.100 7 -10156013.170 7
  24754247.960     3440898.893 5   2836902.666 5
  22142712.218   -16174959.289 6 -12459755.469 8
  21804236.694   -17312297.426 6 -13852190.901 9
  23095167.999   -10284124.736 6  -7899852.909 7
 94  2  2  5 14 30.0030000  0  8 24  2 12 13  7  9  4  5
  21840076.827   -16618312.988 6 -12871064.039 8
  25364353.077    18245945.267 3  14246383.403 1
  22050547.288   -17095896.908 7 -11876259.435 8
  22367877.265   -14439762.055 7 -10108183.002 7
  24769852.741     3522894.535 5   2900795.362 5
  22147684.655   -16148825.210 6 -12439391.259 8
  21810113.186   -17281412.278 7 -13828124.547 9
  23082422.663   -10351110.082 6  -7952049.272 7
 94  2  2  5 15  0.0030000  0  8 24  2 12 13  7  9  4  5
  21832530.515   -16657989.886 6 -12901981.086 8
  25382533.460    18341489.304 3  14320833.274 1
  22047554.999   -17111607.046 6 -11888501.108 7
  22379602.288   -14378145.222 7 -10060169.885 7
  24785457.194     3604933.742 5   2964722.002 5
  22152766.343   -16122114.989 6 -12418578.115 8
  21816101.866   -17249952.436 7 -13803610.379 9
  23069699.726   -10417961.524 6  -8004141.301 7
 94  2  2  5 15 30.0030000  0  8 24  2 12 13  7  9  4  5
  21825073.546   -16697156.021 6 -12932500.141 8
  25400754.593    18437252.279 3  14395453.706 2
  22044674.780   -17126754.295 6 -11900304.166 7
  22391372.249   -14316301.966 7 -10011980.333 7
  24801079.554     3687006.202 5   3028674.567 5
  22157959.054   -16094834.014 6 -12397320.229 8
  21822190.530   -17217938.944 7 -13778664.801 9
  23057006.108   -10484667.925 6  -8056120.311 7
 94  2  2  5 16  0.0030000  0  8 24  2 12 13  7  9  4  5
  21817716.108   -16735833.204 6 -12962638.193 8
  25419009.999    18533197.502 3  14470216.166 1
  22041895.210   -17141359.950 6 -11911685.201 7
  22403180.046   -14254257.113 7  -9963633.701 7
  24816695.999     3769082.061 5   3092629.772 5
  22163252.663   -16067021.542 6 -12375648.183 8
  21828383.679   -17185394.860 6 -13753305.770 9
  23044338.437   -10551245.453 6  -8107998.896 7
 94  2  2  5 16 30.0030000  0  8 24  2 12 13  7  9  4  5
  21810453.726   -16773986.569 6 -12992368.075 8
  25437308.663    18629346.753 2
  22039223.507   -17155398.325 6 -11922624.195 7
  22415027.765   -14191988.742 7  -9915112.897 7
  24832316.233     3851167.248 5   3156592.257 5
  22168652.358   -16038648.858 6 -12353539.611 8
  21834680.108   -17152300.727 6 -13727518.128 9
  23031697.952   -10617667.959 6  -8159756.687 7
 94  2  2  5 17  0.0030000  0  8 24  2 12 13  7  9  4  5
  21803295.179   -16811602.357 6 -13021679.068 8
  25455653.890    18725693.617 3        -0.42311
  22036660.163   -17168872.108 6 -11933123.250 7
  22426917.952   -14129502.967 7  -9866422.685 7
  24847936.421     3933235.789 5   3220541.761 5
  22174161.483   -16009703.573 6 -12330984.862 8
  21841081.374   -17118664.613 7 -13701308.171 9
  23019087.429   -10683933.553 6  -8211392.211 7
 94  2  2  5 17 30.0030000  0  8 24  2 12 13  7  9  4  5
  21796235.296   -16848707.061 6 -13050591.804 8
  25474006.108    18822211.046 2     75207.927 1
  22034201.210   -17181796.010 6 -11943193.824 8
  22438847.468   -14066818.478 7  -9817577.629 7
  24863543.616     4015263.815 5   3284459.672 5
  22179769.163   -15980216.677 6 -12308008.068 8
  21847584.561   -17084499.403 6 -13674685.931 9
  23006504.046   -10750055.045 6  -8262915.440 7
 94  2  2  5 18  0.0030000  0  8 24  2 12 13  7  9  4  5
  21789274.835   -16885287.450 6 -13079095.988 8
  25492408.452    18918913.301 2    150560.303 1
  22031847.913   -17194149.712 6 -11952820.087 7
  22450813.726   -14003918.154 7  -9768564.397 7
  24879153.179     4097278.277 5   3348367.036 5
  22185487.710   -15950178.215 6 -12284601.494 8
  21854192.155   -17049778.067 6 -13647630.337 9
  22993951.093   -10816025.407 6  -8314320.913 7
 94  2  2  5 18 30.0030000  0  7 24 12 13  7  9  4  5
  21782412.960   -16921345.805 6 -13107193.397 8
  22029606.890   -17205932.665 6 -11962001.621 7
  22462825.601   -13940805.048 7  -9719385.359 7
  24894757.585     4179287.135 5   3412270.026 5
  22191313.163   -15919568.926 6 -12260750.101 8
  21860900.811   -17014519.974 6 -13620156.502 9
  22981425.538   -10881849.894 6  -8365612.718 7
 94  2  2  5 19  0.0030000  0  7 24 12 13  7  9  4  5
  21775652.374   -16956871.709 6 -13134875.910 8
  22027474.983   -17217131.948 6 -11970728.341 7
  22474878.069   -13877469.889 7  -9670033.281 7
  24910363.390     4261315.916 5   3476188.533 5
  22197246.007   -15888387.690 6 -12236453.048 8
  21867714.335   -16978719.036 6 -13592259.667 9
  22968930.718   -10947517.066 6  -8416781.925 7
 94  2  2  5 19 30.0030000  0  7 24 12 13  7  9  4  5
  21768985.929   -16991897.262 6 -13162168.532 8
  22025452.585   -17227763.467 6 -11979012.642 7
  22486969.147   -13813932.058 7  -9620523.287 7
  24925976.921     4343364.205 5   3540122.263 5
  22203283.499   -15856661.629 6 -12211731.458 8
  21874625.249   -16942393.646 6 -13563954.165 9
  22956459.351   -11013045.013 6  -8467842.664 7
 94  2  2  5 20  0.0030000  0  7 24 12 13  7  9  4  5
  21762414.929   -17026425.879 6 -13189073.944 8
  22023535.647   -17237836.157 6 -11986861.499 7
  22499096.226   -13750203.889 7  -9570864.979 7
  24941595.124     4425432.244 5   3604071.367 5
  22209426.686   -15824383.319 6 -12186579.536 8
  21881635.444   -16905558.188 6 -13535251.211 9
  22944017.030   -11078434.109 6  -8518795.195 7
 94  2  2  5 20 30.0030000  0  7 24 12 13  7  9  4  5
  21755948.194   -17060431.134 6 -13215571.527 8
  22021727.186   -17247331.702 6 -11994260.633 7
  22511262.429   -13686270.575 7  -9521046.813 7
  24957222.327     4507541.058 5   3668052.244 5
  22215675.327   -15791542.049 6 -12160988.947 8
  21888744.929   -16868193.620 6 -13506135.956 9
  22931605.366   -11143648.296 6  -8569611.439 7
 94  2  2  5 21  0.0030000  0  7 24 12 13  7  9  4  5
  21749573.726   -17093914.070 6 -13241662.120 8
  22020030.194   -17256247.489 6 -12001208.002 7
  22523467.022   -13622132.822 7  -9471069.350 7
  24972855.483     4589686.410 5   3732061.573 5
  22222029.108   -15758149.303 6 -12134968.635 8
  21895958.343   -16830289.950 6 -13476600.630 9
  22919232.351   -11208682.454 6  -8620287.406 7
 94  2  2  5 21 30.0030000  0  7 24 12 13  7  9  4  5
  21743301.476   -17126885.416 6 -13267354.074 8
  22018445.069   -17264585.443 6 -12007705.117 7
  22535713.390   -13557795.965 7  -9420936.730 7
  24988489.663     4671852.925 5   3796087.441 5
  22228488.437   -15724195.720 6 -12108511.309 8
  21903276.226   -16791839.462 6 -13446639.211 9
  22906886.413   -11273552.904 6  -8670835.793 7
 94  2  2  5 22  0.0030000  0  7 24 12 13  7  9  4  5
  21737126.835   -17159341.779 6 -13292644.732 8
  22016968.554   -17272357.755 7 -12013761.462 7
  22547985.116   -13493275.511 7  -9370661.061 7
  25004124.741     4754008.589 5   3860104.818 5
  22235053.960   -15689691.915 6 -12081625.250 8
  21910697.624   -16752842.925 6 -13416252.296 9
  22894570.132   -11338268.653 6  -8721263.642 7
 94  2  2  5 22 30.0030000  0  7 24 12 13  7  9  4  5
  21731046.819   -17191266.857 6 -13317521.407 8
  22015598.772   -17279550.439 7 -12019366.156 7
  22560302.874   -13428560.898 7  -9320234.080 7
  25019753.983     4836150.128 5   3924111.191 5
  22241724.296   -15654632.444 6 -12054306.197 8
  21918221.116   -16713292.894 6 -13385434.093 9
  22882286.905   -11402825.004 6  -8771567.289 7
 94  2  2  5 23  0.0030000  0  7 24 12 13  7  9  4  5
  21725075.554   -17222658.025 6 -13341982.050 8
  22014340.929   -17286158.022 6 -12024514.936 7
  22572656.233   -13363649.900 7  -9269654.086 7
  25035383.390     4918272.699 5   3988102.782 5
  22248508.765   -15618998.161 6 -12026539.237 8
  21925849.085   -16673195.393 6 -13354189.287 9
  22870032.226   -11467226.800 6  -8821750.502 7
 94  2  2  5 23 30.0030000  0  7 24 12 13  7  9  4  5
  21719201.554   -17253513.539 6 -13366025.297 8
  22013195.929   -17292184.222 7 -12029210.679 7
  22585043.022   -13298549.376 7  -9218926.407 7
  25051005.999     5000382.889 5   4052084.730 4
  22255400.101   -15582794.503 6 -11998328.616 8
  21933585.280   -16632552.695 6 -13322519.650 9
  22857807.226   -11531466.266 6  -8871807.233 7
 94  2  2  5 24  0.0030000  0  7 24 12 13  7  9  4  5
  21713431.280   -17283838.583 6 -13389655.191 8
  22012157.733   -17297636.760 7 -12033459.414 7
  22597463.226   -13233270.205 7  -9168059.518 7
  25066626.233     5082483.778 5   4116059.426 5
  22262390.702   -15546043.864 6 -11969691.766 8
  21941418.616   -16591390.346 6 -13290445.080 9
  22845615.835   -11595531.455 6  -8921728.142 7
 94  2  2  5 24 30.0030000  0  7 24 12 13  7  9  4  5
  21707761.140   -17313641.706 6 -13412878.388 8
  22011229.319   -17302506.929 7 -12037254.355 7
  22609921.335   -13167807.039 7  -9117049.266 7
  25082252.710     5164588.532 5   4180037.153 5
  22269492.390   -15508746.386 6 -11940628.810 8
  21949345.718   -16549727.637 6 -13257980.643 9
  22833460.140   -11659412.409 6  -8971505.506 8
 94  2  2  5 25  0.0030000  0  7 24 12 13  7  9  4  5
  21702189.733   -17342929.757 6 -13435700.238 8
  22010411.694   -17306795.622 7 -12040596.214 7
  22622414.546   -13102163.875 7  -9065898.742 7
  25097880.397     5246702.618 5   4244022.139 5
  22276689.468   -15470913.864 6 -11911148.939 8
  21957372.405   -16507560.210 6 -13225122.901 9
  22821337.874   -11723102.948 6  -9021134.493 8
 94  2  2  5 25 30.0030000  0  7 24 12 13  7  9  4  5
  21696712.241   -17371696.095 6 -13458115.552 8
  22009710.155   -17310495.934 6 -12043479.572 7
  22634941.155   -13036336.949 7  -9014605.043 7
  25113508.085     5328830.285 5   4308017.709 4
  22283987.022   -15432556.847 6 -11881260.364 8
  21965494.515   -16464877.295 6 -13191863.490 9
  22809257.796   -11786596.353 6  -9070609.874 8
 94  2  2  5 26  0.0030000  0  7 24 12 13  7  9  4  5
  21691336.593   -17399955.197 6 -13480135.623 8
  22009113.780   -17313623.319 7 -12045916.506 7
  22647499.147   -12970344.844 7  -8963182.633 7
  25129136.257     5410944.061 5   4372002.462 5
  22291383.585   -15393684.922 6 -11850970.567 8
  21973708.194   -16421698.892 6 -13158217.984 9
  22797207.726   -11849910.801 6  -9119945.807 8
 94  2  2  5 26 30.0030000  0  7 24 12 13  7  9  4  5
  21686061.983   -17427684.417 6 -13501742.799 8
  22008630.155   -17316157.649 7 -12047891.315 7
  22660091.140   -12904170.353 7  -8911618.088 7
  25144762.460     5493064.081 5   4435992.055 5
  22298886.249   -15354270.132 6 -11820257.756 8
  21982027.937   -16377995.811 6 -13124163.632 9
  22785194.351   -11913034.364 6  -9169132.994 8
 94  2  2  5 27  0.0030000  0  7 24 12 13  7  9  4  5
  21680886.507   -17454873.104 6 -13522928.775 8
  22008262.811   -17318093.059 7 -12049399.435 7
  22672719.390   -12837810.886 7  -8859909.417 7
  25160388.046     5575202.411 5   4499995.923 5
  22306492.405   -15314307.437 6 -11789118.008 8
  21990446.499   -16333749.693 6 -13089686.137 9
  22773222.757   -11975970.606 6  -9218174.221 8
 94  2  2  5 27 30.0030000  0  7 24 12 13  7  9  4  5
  21675811.710   -17481545.559 6 -13543712.500 8
  22008002.546   -17319453.514 7 -12050459.533 7
  22685376.530   -12771293.269 7  -8808077.501 7
  25176020.124     5657333.501 5   4563994.183 4
  22314193.780   -15273801.488 6 -11757554.949 8
  21998963.937   -16288989.729 6 -13054808.239 9
  22761275.210   -12038741.340 6  -9267086.474 8
 94  2  2  5 28  0.0030000  0  7 24 12 13  7  9  4  5
  21670836.265   -17507676.910 6 -13564074.578 8
  22007857.983   -17320220.865 7 -12051057.468 7
  22698069.311   -12704602.449 7  -8756110.632 7
  25191650.343     5739481.895 4   4628005.881 5
  22322009.522   -15232732.236 6 -11725552.951 8
  22007579.741   -16243706.567 6 -13019522.656 9
  22749364.921   -12101329.166 6  -9315856.201 8
 94  2  2  5 28 30.0030000  0  7 24 12 13  7  9  4  5
  21665964.397   -17533280.515 6 -13584025.429 8
  22007821.187   -17320410.540 7
  22710786.702   -12637756.724 7  -8704023.057 6
  25207288.780     5821641.114 5   4692026.006 5
  22329932.124   -15191128.221 6 -11693134.241 8
  22016292.233   -16197928.725 6 -12983851.611 9
  22737486.632   -12163759.781 6  -9364503.433 8
 94  2  2  5 29  0.0030000  0  8 24 20 12 13  7  9  4  5
  21661195.616   -17558338.722 6 -13603551.299 8
  25711948.546          -0.57313
  22007897.968   -17320007.942 7
  22723540.054   -12570744.322 7  -8651805.595 6
  25222927.515     5903823.189 5   4756063.972 4
  22337953.046   -15148968.673 6 -11660282.669 8
  22025097.827   -16151654.179 6 -12947793.524 9
  22725640.132   -12226009.945 6  -9413010.052 8
 94  2  2  5 29 30.0030000  0  8 24 20 12 13  7  9  4  5
  21656532.069   -17582858.198 6 -13622657.364 8
  25694698.194      -90621.987 3        -0.14212
  22008086.538   -17319017.506 7 -12050119.795 7
  22736320.991   -12503572.489 6  -8599463.911 6
  25238566.132     5986024.086 4   4820116.614 4
  22346081.733   -15106258.255 6 -11627001.830 8
  22033998.132   -16104889.333 6 -12911353.383 9
  22713828.757   -12288072.192 6  -9461370.247 8
 94  2  2  5 30  0.0030000  0  8 24 20 12 13  7  9  4  5
  21651963.890   -17606848.316 6 -13641350.958 8
  25677452.319     -181270.839 3    -70635.588 1
  22008388.054   -17317439.141 7 -12048889.908 7
  22749134.983   -12436244.219 7  -8547000.328 6
  25254213.968     6068247.348 4   4884186.663 5
  22354307.241   -15063021.599 6 -11593310.934 8
  22042988.351   -16057647.232 6 -12874541.357 9
  22702056.804   -12349954.075 6  -9509589.883 8
 94  2  2  5 30 30.0030000  0  8 24 20 12 13  7  9  4  5
  21647500.835   -17630323.405 6 -13659643.229 8
  25660200.663     -271938.267 3   -141285.526 1
  22008800.757   -17315264.455 6 -12047195.352 7
  22761976.304   -12368753.686 7  -8494410.298 6
  25269862.436     6150489.427 5   4948271.355 5
  22362637.632   -15019252.222 6 -11559204.950 8
  22052074.921   -16009907.622 7 -12837341.661 9
  22690316.749   -12411635.042 6  -9557652.976 8
 94  2  2  5 31  0.0030000  0  8 24 20 12 13  7  9  4  5
  21643126.218   -17653306.654 6 -13677552.246 8
  25642939.679     -362636.403 2   -211959.368 1
  22009324.460   -17312506.062 7 -12045045.971 7
  22774848.726   -12301116.383 7  -8441705.916 7
  25285517.179     6232731.885 5   5012356.364 5
  22371065.186   -14974973.976 6 -11524702.441 8
  22061249.101   -15961671.556 6 -12799755.106 9
  22678618.147   -12473112.294 6  -9605557.319 8
 94  2  2  5 31 30.0030000  0  8 24 20 12 13  7  9  4  5
  21638846.952   -17675778.160 6 -13695062.499 8
  25625676.780     -453350.189 3   -282645.457 1
  22009964.960   -17309149.618 6 -12042430.569 7
  22787749.429   -12233320.882 7  -8388878.246 7
  25301166.108     6314978.410 4   5076444.560 4
  22379586.483   -14930192.177 6 -11489807.558 8
  22070528.569   -15912917.951 6 -12761765.274 9
  22666959.741   -12534380.468 6  -9653298.755 8
 94  2  2  5 32  0.0030000  0  8 24 20 12 13  7  9  4  5
  21634668.147   -17697751.567 6 -13712184.618 8
  25608402.507     -544099.661 3   -353359.318 1
  22010713.429   -17305215.923 7 -12039365.363 7
  22800676.288   -12165390.278 6  -8335945.305 6
  25316813.351     6397192.818 5   5140507.704 3
  22388199.733   -14884921.919 6 -11454532.047 8
  22079899.593   -15863672.290 6 -12723392.038 9
  22655333.976   -12595460.882 6  -9700893.874 8
 94  2  2  5 32 30.0030000  0  8 24 20 12 13  7  9  4  5
  21630591.038   -17719177.839 6 -13728880.395 8
  25591121.421     -634859.881 3   -424081.568 1
  22011578.655   -17300680.665 6 -12035831.415 7
  22813633.640   -12097303.187 6  -8282890.432 6
  25332455.921     6479390.901 5   5204558.145 4
  22396913.015   -14839126.075 6 -11418846.994 8
  22089369.085   -15813901.977 6 -12684609.974 9
  22643757.062   -12656317.693 7  -9748314.768 8
 94  2  2  5 33  0.0030000  0  8 24 20 12 13  7  9  4  5
  21626625.069   -17740022.921 6 -13745123.314 8
  25573858.562     -725623.077 3   -494806.115 2
  22012556.890   -17295537.075 6 -12031823.433 7
  22826623.796   -12029055.684 7  -8229710.559 6
  25348091.687     6561569.182 4   5268593.130 4
  22405729.241   -14792777.211 6 -11382731.020 8
  22098939.804   -15763613.319 6 -12645424.004 9
  22632217.132   -12716946.532 6  -9795558.012 8
 94  2  2  5 33 30.0030000  0  8 24 20 12 13  7  9  4  5
  21622763.983   -17760308.724 6 -13760930.417 8
  25556578.874     -816402.153 3   -565543.024 2
  22013648.585   -17289798.786 7 -12027352.048 7
  22839635.374   -11960663.747 7  -8176418.144 6
  25363721.022     6643711.723 4   5332600.272 3
  22414656.851   -14745871.698 6 -11346181.295 8
  22108604.569   -15712826.788 6 -12605850.081 9
  22620721.976   -12777361.210 7  -9842634.385 8
 94  2  2  5 34  0.0030000  0  8 24 20 12 13  7  9  4  5
  21619010.686   -17780037.863 6 -13776303.766 8
  25539302.593     -907192.190 3   -636288.466 3
  22014850.077   -17283461.778 6 -12022414.121 7
  22852673.304   -11892125.917 6  -8123012.034 6
  25379351.476     6725836.242 4   5396593.393 2
  22423690.147   -14698411.127 6 -11309199.048 8
  22118366.538   -15661540.725 6 -12565886.915 9
  22609268.655   -12837542.150 7  -9889528.628 8
 94  2  2  5 34 30.0030000  0  8 24 20 12 13  7  9  4  5
  21615360.929   -17799217.269 6 -13791248.749 8
  25522028.366     -997996.440 3   -707045.060 1
  22016173.226   -17276529.961 6 -12017012.711 7
  22865747.101   -11823448.709 7  -8069497.337 6
  25394972.187     6807948.067 4   5460576.619 4
  22432823.796   -14650420.268 6 -11271803.584 8
  22128219.054   -15609757.748 6 -12525536.539 9
  22597861.327   -12897491.056 7  -9936242.056 8
 94  2  2  5 35  0.0030000  0  8 24 20 12 13  7  9  4  5
  21611814.640   -17817864.505 6 -13805779.047 8
  25504748.655    -1088807.229 3   -777806.681 1
  22017604.843   -17268996.548 6 -12011142.523 7
  22878842.929   -11754627.871 7  -8015870.707 6
  25410600.476     6890064.769 4   5524563.635 3
  22442054.476   -14601914.711 6 -11234007.053 8
  22138165.069   -15557485.563 6 -12484804.967 9
  22586496.960   -12957216.976 7  -9982781.728 8
 94  2  2  5 35 30.0030000  0  8 24 20 12 13  7  9  4  5
  21608360.483   -17836005.798 6 -13819915.111 8
  25487469.718    -1179626.045 4   -848574.587 1
  22019151.944   -17260864.165 6 -12004805.604 7
  22891963.671   -11685668.472 6  -7962136.113 6
  25426226.882     6972205.688 3   5588569.526 3
  22451374.507   -14552933.776 6 -11195840.107 8
  22148202.030   -15504740.820 6 -12443705.163 9
  22575169.960   -13016730.425 7 -10029155.842 8
 94  2  2  5 36  0.0030000  0  8 24 20 12 13  7  9  4  5
  21605009.038   -17853618.106 6 -13833638.976 8
  25470184.546    -1270449.357 3   -919345.999 2
  22020814.397   -17252130.091 6 -11997999.839 7
  22905115.054   -11616570.110 7  -7908293.240 6
  25441868.405     7054365.571 4   5652590.205 3
  22460785.140   -14503477.609 6 -11157302.832 8
  22158326.288   -15451529.670 6 -12402241.930 9
  22563883.069   -13076045.273 7 -10075375.197 8
 94  2  2  5 36 30.0030000  0  8 24 20 12 13  7  9  4  5
  21601758.679   -17870699.910 6 -13846949.463 8
  25452897.702    -1361271.680 3   -990116.602 2
  22022592.163   -17242789.972 6 -11990721.833 7
  22918288.233   -11547331.161 6  -7854340.806 6
  25457503.593     7136535.932 4   5716619.035 3
  22470291.194   -14453529.361 6 -11118382.142 8
  22168539.468   -15397862.241 6 -12360423.152 9
  22552632.944   -13135174.725 7 -10121450.092 8
 94  2  2  5 37  0.0030000  0  8 24 20 12 13  7  9  4  5
  21598600.866   -17887276.462 6 -13859866.254 8
  25435615.585    -1452114.240 3  -1060902.988 1
  22024482.757   -17232866.196 6 -11982989.032 7
  22931486.858   -11477975.932 6  -7800297.775 6
  25473140.108     7218688.603 3   5780634.071 2
  22479892.163   -14403087.127 6 -11079076.527 8
  22178831.108   -15343771.145 7 -12318274.243 9
  22541412.155   -13194139.272 7 -10167396.495 8
 94  2  2  5 37 30.0030000  0  8 24 20 12 13  7  9  4  5
  21595551.007   -17903313.515 6 -13872362.653 8
  25418326.022    -1542958.593 3  -1131690.785 2
  22026484.569   -17222341.200 6 -11974787.747 7
  22944709.405   -11408489.479 6  -7746152.489 6
  25488766.874     7300827.199 3   5844638.126 3
  22489587.569   -14352110.130 6 -11039354.232 8
  22189213.140   -15289217.439 6 -12275764.865 9
  22530229.046   -13252898.157 7 -10213182.630 8
 94  2  2  5 38  0.0030000  0  8 24 20 12 13  7  9  4  5
  21592605.663   -17918796.675 6 -13884427.445 8
  25401035.679    -1633805.024 3  -1202480.207 2
  22028601.460   -17211216.542 6 -11966119.194 7
  22957956.163   -11338875.530 6  -7691907.857 6
  25504394.679     7382939.779 4   5908621.959 2
  22499394.835   -14300591.140 6 -10999209.601 8
  22199688.694   -15234186.273 7 -12232883.439 9
  22519089.437   -13311444.525 7 -10258803.175 8
 94  2  2  5 38 30.0030000  0  8 24 20 12 13  7  9  4  5
  21589760.726   -17933740.948 6 -13896072.326 8
  25383750.843    -1724654.877 3  -1273272.323 1
  22030831.569   -17199494.726 6 -11956985.323 7
  22971225.312   -11269138.887 6  -7637567.613 6
  25520016.397     7465035.054 3   5972592.282 3
  22509297.093   -14248537.550 6 -10958648.370 8
  22210250.749   -15178677.373 7 -12189629.747 9
  22507990.843   -13369759.333 7 -10304243.283 8
 94  2  2  5 39  0.0030000  0  8 24 20 12 13  7  9  4  5
  21587021.179   -17948136.507 6 -13907289.633 8
  25366459.538    -1815489.391 3  -1344052.428 2
  22033180.757   -17187158.152 6 -11947372.424 7
  22984522.788   -11199264.112 6  -7583119.747 6
  25535637.202     7547134.236 3   6036565.618 3
  22519307.179   -14195945.069 6 -10917667.224 7
  22220908.796   -15122666.174 6 -12145984.658 9
  22496947.085   -13427805.920 7 -10349474.388 8
 94  2  2  5 39 30.0030000  0  8 24 20 12 13  7  9  4  5
  21584383.444   -17962005.402 6 -13918096.552 8
  25349186.366    -1906327.782 3  -1414835.564 2
  22035639.413   -17174227.288 6 -11937296.434 7
  22997844.343   -11129273.982 6  -7528581.979 6
  25551255.015     7629220.048 3   6100528.562 3
  22529407.663   -14142858.266 6 -10876300.902 7
  22231659.265   -15066168.421 6 -12101960.440 9
  22485949.608   -13485598.315 7 -10394507.420 9
 94  2  2  5 40  0.0030000  0  8 24 20 12 13  7  9  4  5
  21581847.632   -17975336.794 6 -13928484.641 8
  25331897.616    -1997151.217 4  -1485607.089 3
  22038218.569   -17160684.544 6 -11926743.662 7
  23011187.507   -11059153.198 6  -7473942.409 6
  25566881.491     7711313.233 3   6164497.273 3
  22539599.515   -14089283.648 6 -10834554.450 8
  22242502.296   -15009183.842 6 -12057556.873 9
  22475001.155   -13543122.967 7 -10439331.833 9
 94  2  2  5 40 30.0030000  0  8 24 20 12 13  7  9  4  5
  21579408.702   -17988151.072 6 -13938469.786 8
  25314614.319    -2087968.622 3  -1556373.876 2
  22040909.015   -17146540.124 6 -11915722.043 7
  23024549.921   -10988913.565 6  -7419210.231 6
  25582497.452     7793398.506 3   6228459.754 2
  22549888.640   -14035232.171 6 -10792436.426 8
  22253439.632   -14951723.664 7 -12012782.702 9
  22464104.288   -13600380.920 7 -10483948.409 8
 94  2  2  5 41  0.0030000  0  8 24 20 12 13  7  9  4  5
  21577066.866   -18000448.862 6 -13948052.471 8
  25297336.093    -2178781.951 4  -1627137.488 2
  22043713.702   -17131797.059 6 -11904233.951 7
  23037941.679   -10918560.431 6  -7364389.620 6
  25598125.624     7875468.222 4   6292410.160 3
  22560260.655   -13980714.552 6 -10749955.197 8
  22264461.226   -14893791.575 7 -11967640.815 9
  22453257.108   -13657386.813 7 -10528368.592 9
 94  2  2  5 41 30.0030000  0  8 24 20 12 13  7  9  4  5
  21574831.491   -18012201.391 6 -13957210.287 8
  25280056.335    -2269583.005 3  -1697891.572 2
  22046633.749   -17116448.676 6 -11892274.185 7
  23051352.522   -10848089.312 6  -7309477.051 6
  25613731.061     7957534.212 3   6356357.667 3
  22570727.741   -13925726.605 6 -10707107.466 8
  22275570.671   -14835393.055 6 -11922135.473 9
  22442459.686   -13714145.277 7 -10572595.968 9
 94  2  2  5 42  0.0030000  0  8 24 20 12 13  7  9  4  5
  21572696.108   -18023406.710 6 -13965941.697 8
  25262778.929    -2360367.120 3  -1768632.415 3
  22049670.593   -17100491.714 6 -11879840.199 7
  23064780.593   -10777499.028 6  -7254471.637 6
  25629353.007     8039601.966 3   6420306.542 4
  22581282.780   -13870264.186 6 -10663890.007 8
  22286775.601   -14776527.093 6 -11876265.894 9
  22431702.280   -13770668.568 7 -10616640.083 9
 94  2  2  5 42 30.0030000  0  8 24 20 12 13  7  9  4  5
  21570667.257   -18034078.355 6 -13974257.257 8
  25245510.905    -2451145.328 4  -1839368.646 4
  22052824.054   -17083938.882 6 -11866941.895 7
  23078237.265   -10706804.053 6  -7199384.651 6
  25644965.397     8121673.924 3   6484258.690 4
  22591922.483   -13814326.154 6 -10620301.944 7
  22298062.624   -14717212.469 6 -11830046.700 9
  22420985.413   -13826974.137 7 -10660514.553 9
 94  2  2  5 43  0.0030000  0  8 24 20 12 13  7  9  4  5
  21568740.374   -18044204.846 6 -13982148.027 8
  25228232.679    -2541913.020 4  -1910096.746 3
  22056084.944   -17066787.002 6 -11853576.793 7
  23091708.444   -10636003.141 6  -7144215.114 6
  25660594.554     8203769.416 3   6548229.186 3
  22602663.835   -13757907.629 6 -10576339.473 7
  22309432.694   -14657465.574 6 -11783490.688 9
  22410313.827   -13883064.925 7 -10704221.662 9
 94  2  2  5 43 30.0030000  0  8 24 20 12 13  7  9  4  5
  21566918.351   -18053784.664 6 -13989612.819 8
  25210967.687    -2632665.214 4  -1980812.710 4
  22059463.999   -17049032.615 6 -11839742.220 7
  23105203.921   -10565094.786 6  -7088961.849 6
  25676212.022     8285891.405 3   6612220.336 4
  22613491.452   -13701005.581 6 -10532000.237 8
  22320885.819   -14597290.060 7 -11736600.679 9
  22399682.319   -13938914.688 7 -10747740.955 9
 94  2  2  5 44  0.0030000  0  8 24 20 12 13  7  9  4  5
  21565199.382   -18062821.147 6 -13996654.221 8
  25193698.835    -2723387.795 3  -2051505.605 1
  22062960.343   -17030663.069 6 -11825428.298 7
  23118716.679   -10494068.209 6  -7033616.461 6
  25691847.436     8368046.942 3   6676237.608 2
  22624417.444   -13643599.336 6 -10487268.112 8
  22332418.194   -14536667.861 7 -11689362.596 9
  22389109.397   -13994494.294 7 -10791049.735 9
 94  2  2  5 44 30.0030000  0  8 24 20 12 13  7  9  4  5
  21563580.132   -18071317.756 6 -14003274.949 7
  25176438.999    -2814090.894 4  -2122183.331 2
  22066572.429   -17011689.915 6 -11810644.035 7
  23132254.366   -10422936.651 6  -6978189.277 6
  25707483.218     8450215.149 3   6740264.766 4
  22635436.085   -13585684.599 6 -10442139.757 8
  22344035.312   -14475620.436 6 -11641793.174 9
  22378584.202   -14049804.752 7 -10834148.789 9
 94  2  2  5 45  0.0030000  0  8 24 20 12 13  7  9  4  5
  21562066.460   -18079263.746 6 -14009466.613 8
  25159186.296    -2904762.906 4  -2192836.844 2
  22070298.960   -16992103.648 6 -11795382.017 7
  23145808.952   -10351692.476 6  -6922674.341 6
  25723117.796     8532378.535 3   6804288.184 3
  22646557.444   -13527255.225 6 -10396610.392 8
  22355734.749   -14414136.942 7 -11593883.954 9
  22368113.007   -14104834.706 7 -10877029.279 9
 94  2  2  5 45 30.0030000  0  8 24 20 12 13  7  9  4  5
  21560654.562   -18086686.948 6 -14015250.919 8
  25141929.929    -2995420.803 3  -2263479.327 5
  22074137.538   -16971922.593 6 -11779656.530 7
  23159384.296   -10280355.852 6  -6867087.368 6
  25738746.327     8614499.395 3   6868278.432 2
  22657768.272   -13468333.610 6 -10350697.461 8
  22367518.280   -14352220.799 7 -11545637.606 9
  22357689.358   -14159603.702 7 -10919706.413 9
 94  2  2  5 46  0.0030000  0  7 24 20 12 13  9  4  5
  21559343.687   -18093579.304 6 -14020621.580 7
  25124690.663    -3086052.139 4  -2334101.123 2
  22078093.647   -16951136.006 6 -11763459.204 7
  23172978.710   -10208917.616 6  -6811421.209 6
  22669076.108   -13408901.990 6 -10304387.110 8
  22379386.312   -14289852.362 7 -11497038.827 9
  22347312.718   -14214130.635 7 -10962194.932 9
 94  2  2  5 46 30.0030000  0  7 24 20 12 13  9  4  5
  21558132.304   -18099943.939 6 -14025581.030 7
  25107447.265    -3176661.426 4  -2404705.743 2
  22082163.694   -16929750.392 6 -11746795.098 7
  23186590.210   -10137385.948 6  -6755682.247 6
  22680477.093   -13348981.920 6 -10257696.156 8
  22391340.491   -14227042.928 7 -11448096.413 9
  22336979.116   -14268436.572 7 -11004511.249 9
 94  2  2  5 47  0.0030000  0  7 24 20 12 13  9  4  5
  21557019.679   -18105791.966 6 -14030137.918 8
  25090208.851    -3267245.462 4  -2475290.695 3
  22086349.585   -16907764.190 6 -11729663.001 7
  23200223.499   -10065760.943 6  -6699870.569 6
  22691966.296   -13288600.537 6 -10210645.744 8
  22403376.147   -14163788.466 7 -11398807.221 9
  22326687.382   -14322511.983 7 -11046647.931 9
 94  2  2  5 47 30.0030000  0  7 24 20 12 13  9  4  5
  21556005.499   -18111121.608 6 -14034290.876 7
  25072971.007    -3357798.817 4  -2545851.744 2
  22090647.608   -16885173.887 6 -11712060.180 7
  23213872.288    -9994040.802 6  -6643984.741 6
  22703543.210   -13227765.596 6 -10163241.909 8
  22415496.890   -14100085.863 7 -11349168.828 9
  22316443.460   -14376345.970 7 -11088596.491 9
 94  2  2  5 48  0.0030000  0  7 24 20 12 13  9  4  5
  21555091.874   -18115918.550 6 -14038028.742 7
  25055751.108    -3448325.558 5  -2616392.057 2
  22095056.257   -16861985.046 6 -11693990.956 7
  23227535.647    -9922232.463 6  -6588030.196 6
  22715205.280   -13166483.886 6 -10115489.951 8
  22427700.679   -14035954.922 7 -11299196.667 9
  22306247.921   -14429938.755 7 -11130357.111 9
 94  2  2  5 48 30.0030000  0  7 24 20 12 13  9  4  5
  21554283.163   -18120167.174 6 -14041339.351 8
  25038531.741    -3538815.648 4  -2686903.780 3
  22099587.015   -16838189.489 6 -11675448.979 7
  23241218.233    -9850329.632 6  -6532002.024 6
  22726954.429   -13104761.840 6 -10067394.870 8
  22439983.358   -13971401.588 7 -11248895.367 9
  22296100.218   -14483259.305 7 -11171905.582 9
 94  2  2  5 49  0.0030000  0  7 24 20 12 13  9  4  5
  21553577.624   -18123880.867 6 -14044233.124 7
  25021312.827    -3629275.256 4  -2757391.756 4
  22104228.991   -16813795.816 6 -11656440.933 7
  23254916.640    -9778341.890 6  -6475907.680 6
  22738781.616   -13042597.467 6 -10018955.127 8
  22452350.851   -13906430.855 7 -11198268.818 9
  22286006.202   -14536302.317 7 -11213237.798 9
 94  2  2  5 49 30.0030000  0  7 24 20 12 13  9  4  5
  21552974.640   -18127045.354 6 -14046698.956 7
  25004104.483    -3719701.798 4  -2827853.990 2
  22108983.765   -16788803.110 6 -11636966.111 7
  23268631.218    -9706269.878 6  -6419747.676 6
  22750695.101   -12979981.907 6  -9970163.807 8
  22464793.335   -13841043.684 7 -11147317.782 9
  22275964.897   -14589061.364 7 -11254348.741 9
 94  2  2  5 50  0.0030000  0  7 24 20 12 13  9  4  5
  21552479.374   -18129660.781 6 -14048736.940 7
  24986905.233    -3810090.179 4  -2898286.472 4
  22113852.460   -16763208.344 6 -11617022.152 7
  23282366.101    -9634112.344 6  -6363521.023 6
  22762698.562   -12916910.962 6  -9921017.646 8
  22477315.382   -13775241.817 7 -11096043.605 9
  22265983.022   -14641526.753 7 -11295230.859 9
 94  2  2  5 50 30.0030000  0  7 24 20 12 13  9  4  5
  21552080.858   -18131750.712 6 -14050365.448 7
  24969714.632    -3900435.133 4  -2968685.138 4
  22118840.171   -16737008.435 6 -11596606.650 7
  23296110.132    -9561867.170 6  -6307226.086 6
  22774789.733   -12853381.875 6  -9871514.493 8
  22489915.655   -13709029.224 7 -11044449.379 9
  22256056.983   -14693687.210 7 -11335875.374 9
 94  2  2  5 51  0.0030000  0  7 24 20 12 13  9  4  5
  21551780.741   -18133334.992 6 -14051599.941 7
  24952522.429    -3990751.611 4  -3039061.569 4
  22123939.265   -16710220.462 6 -11575732.921 7
  23309870.351    -9489553.001 6  -6250877.378 6
  22786963.312   -12789407.188 6  -9821664.117 7
  22502587.702   -13642427.060 6 -10992551.584 9
  22246187.335   -14745555.370 7 -11376292.119 9
 94  2  2  5 51 30.0030000  0  7 24 20 12 13  9  4  5
  21551577.202   -18134396.846 6 -14052427.347 7
  24935350.694    -4081027.028 4  -3109406.034 3
  22129150.374   -16682833.906 6 -11554392.756 7
  23323648.585    -9417160.564 6  -6194467.696 6
  22799220.429   -12724982.681 6  -9771463.228 7
  22515336.483   -13575433.053 7 -10940348.463 9
  22236375.788   -14797117.691 7 -11416470.550 9
